[[{"header":{"parameterUnit":"m.s-1","parameterCategory":1,"la1":30.6,"la2":29.2853,"lo1":-89.7004,"lo2":-87.6739,"dy":0.0162,"dx":0.0183,"nx":112,"ny":82,"refTime":"2025-05-14T12:00:00:Z","depth":0,"parameterNumber":2,"parameterNumberName":"U-component_of_WINDS"},"data":[0.0,0.0,0.0,0.0,0.0,0.0,0.0,0.0,0.0,0.0,0.0,0.0,0.0,0.0,0.0,0.0,0.0,0.0,0.0,0.0,0.0,0.0,0.0,0.0,0.0,0.0,0.0,0.0,0.0,0.0,0.0,0.0,0.0,0.0,0.0,0.0,0.0,0.0,0.0,0.0,0.0,0.0,0.0,0.0,0.0,0.0,0.0,0.0,0.0,0.0,0.0,0.0,0.0,0.0,0.0,0.0,0.0,0.0,0.0,0.0,0.0,0.0,0.0,0.0,0.0,0.0,0.0,0.0,0.0,0.0,0.0,0.0,0.0,0.0,0.0,0.0,0.0,0.0,0.0,0.0,0.0,0.0,0.0,0.0,0.0,0.0,0.0,0.0,0.0,0.0,-5.3482,-5.4638,-5.6712,-5.8235,-5.8762,-5.7483,-5.525,-5.2094,0.0,0.0,0.0,0.0,0.0,0.0,0.0,0.0,0.0,0.0,0.0,0.0,0.0,0.0,0.0,0.0,0.0,0.0,0.0,0.0,0.0,0.0,0.0,0.0,0.0,0.0,0.0,0.0,0.0,0.0,0.0,0.0,0.0,0.0,0.0,0.0,0.0,0.0,0.0,0.0,0.0,0.0,0.0,0.0,0.0,0.0,0.0,0.0,0.0,0.0,0.0,0.0,0.0,0.0,0.0,0.0,0.0,0.0,0.0,0.0,0.0,0.0,0.0,0.0,0.0,0.0,0.0,0.0,0.0,0.0,0.0,0.0,0.0,0.0,0.0,0.0,0.0,0.0,0.0,0.0,0.0,0.0,0.0,0.0,0.0,0.0,0.0,0.0,0.0,0.0,0.0,0.0,0.0,0.0,0.0,0.0,0.0,0.0,0.0,0.0,0.0,0.0,0.0,0.0,-5.3261,-5.6143,-5.7373,-5.7776,-5.7226,-5.6308,-5.4255,-5.0666,0.0,0.0,0.0,0.0,0.0,0.0,0.0,0.0,0.0,0.0,0.0,0.0,0.0,0.0,0.0,0.0,0.0,0.0,0.0,0.0,0.0,0.0,0.0,0.0,0.0,0.0,0.0,0.0,0.0,0.0,0.0,0.0,0.0,0.0,0.0,0.0,0.0,0.0,0.0,0.0,0.0,0.0,0.0,0.0,0.0,0.0,0.0,0.0,0.0,0.0,0.0,0.0,0.0,0.0,0.0,0.0,0.0,0.0,0.0,0.0,0.0,0.0,0.0,0.0,0.0,0.0,0.0,0.0,0.0,0.0,0.0,0.0,0.0,0.0,0.0,0.0,0.0,0.0,0.0,0.0,0.0,0.0,0.0,0.0,0.0,0.0,0.0,0.0,0.0,0.0,0.0,0.0,0.0,0.0,0.0,0.0,0.0,0.0,0.0,0.0,0.0,0.0,0.0,-5.2454,-5.3885,-5.7116,-5.7391,-5.7207,-5.684,-5.5666,-5.3572,-5.0322,-4.9323,0.0,0.0,0.0,0.0,0.0,0.0,0.0,0.0,0.0,0.0,0.0,0.0,0.0,0.0,0.0,0.0,0.0,0.0,0.0,0.0,0.0,0.0,0.0,0.0,0.0,0.0,0.0,0.0,0.0,0.0,0.0,0.0,0.0,0.0,0.0,0.0,0.0,0.0,0.0,0.0,0.0,0.0,0.0,0.0,0.0,0.0,0.0,0.0,0.0,0.0,0.0,0.0,0.0,0.0,0.0,0.0,0.0,0.0,0.0,0.0,0.0,0.0,0.0,0.0,0.0,0.0,0.0,0.0,0.0,0.0,0.0,0.0,0.0,0.0,0.0,0.0,0.0,0.0,0.0,0.0,0.0,0.0,0.0,0.0,0.0,0.0,0.0,0.0,0.0,0.0,0.0,0.0,0.0,0.0,0.0,0.0,0.0,0.0,0.0,0.0,0.0,0.0,-5.3794,-5.4858,-5.7703,-5.7281,-5.673,-5.6528,-5.473,-5.2527,-4.9977,-4.7882,0.0,0.0,0.0,0.0,0.0,0.0,0.0,0.0,0.0,0.0,0.0,0.0,0.0,0.0,0.0,0.0,0.0,0.0,0.0,0.0,0.0,0.0,0.0,0.0,0.0,0.0,0.0,0.0,0.0,0.0,0.0,0.0,0.0,0.0,0.0,0.0,0.0,0.0,0.0,0.0,0.0,0.0,0.0,0.0,0.0,0.0,0.0,0.0,0.0,0.0,0.0,0.0,0.0,0.0,0.0,0.0,0.0,0.0,0.0,0.0,0.0,0.0,0.0,0.0,0.0,0.0,0.0,0.0,0.0,0.0,0.0,0.0,0.0,0.0,0.0,0.0,0.0,0.0,0.0,0.0,0.0,0.0,0.0,0.0,0.0,0.0,0.0,0.0,0.0,0.0,0.0,0.0,0.0,0.0,0.0,0.0,0.0,0.0,0.0,0.0,0.0,0.0,-5.409,-5.6088,-5.7813,-5.7281,-5.651,-5.5739,-5.3016,-5.0654,-4.9081,-4.5653,0.0,0.0,0.0,0.0,0.0,0.0,0.0,0.0,0.0,0.0,0.0,0.0,0.0,0.0,0.0,0.0,0.0,0.0,0.0,0.0,0.0,0.0,0.0,0.0,0.0,0.0,0.0,0.0,0.0,0.0,0.0,0.0,0.0,0.0,0.0,0.0,0.0,0.0,0.0,0.0,0.0,0.0,0.0,0.0,0.0,0.0,0.0,0.0,0.0,0.0,0.0,0.0,0.0,0.0,0.0,0.0,0.0,0.0,0.0,0.0,0.0,0.0,0.0,0.0,0.0,0.0,0.0,0.0,0.0,0.0,0.0,0.0,0.0,0.0,0.0,0.0,0.0,0.0,0.0,0.0,0.0,0.0,0.0,0.0,0.0,0.0,0.0,0.0,0.0,0.0,0.0,0.0,0.0,0.0,0.0,0.0,0.0,0.0,0.0,0.0,0.0,0.0,-5.2472,-5.4142,-5.6271,-5.5776,-5.5188,-5.4876,-5.2922,-5.07,-4.83,0.0,0.0,0.0,0.0,0.0,0.0,0.0,0.0,0.0,0.0,0.0,0.0,0.0,0.0,0.0,0.0,0.0,0.0,0.0,0.0,0.0,0.0,0.0,0.0,0.0,0.0,0.0,0.0,0.0,0.0,0.0,0.0,0.0,0.0,0.0,0.0,0.0,0.0,0.0,0.0,0.0,0.0,0.0,0.0,0.0,0.0,0.0,0.0,0.0,0.0,0.0,0.0,0.0,0.0,0.0,0.0,0.0,0.0,0.0,0.0,0.0,0.0,0.0,0.0,0.0,0.0,0.0,0.0,0.0,0.0,0.0,0.0,0.0,0.0,0.0,0.0,0.0,0.0,0.0,0.0,0.0,0.0,0.0,0.0,0.0,0.0,0.0,0.0,0.0,0.0,0.0,0.0,0.0,0.0,0.0,0.0,0.0,0.0,0.0,0.0,0.0,0.0,-5.0031,-5.1775,-5.3482,-5.539,-5.4876,-5.4399,-5.4399,-5.2145,-4.9734,-4.75,0.0,0.0,0.0,0.0,0.0,0.0,0.0,0.0,0.0,0.0,0.0,0.0,0.0,0.0,0.0,0.0,0.0,0.0,0.0,0.0,0.0,0.0,0.0,0.0,0.0,0.0,0.0,0.0,0.0,0.0,0.0,0.0,0.0,0.0,0.0,0.0,0.0,0.0,0.0,0.0,0.0,0.0,0.0,0.0,0.0,0.0,0.0,0.0,0.0,0.0,0.0,0.0,0.0,0.0,0.0,0.0,0.0,0.0,0.0,0.0,0.0,0.0,0.0,0.0,0.0,0.0,0.0,0.0,0.0,0.0,0.0,0.0,0.0,0.0,0.0,0.0,0.0,0.0,0.0,0.0,0.0,0.0,0.0,0.0,0.0,0.0,0.0,0.0,0.0,0.0,0.0,0.0,0.0,0.0,0.0,0.0,0.0,0.0,0.0,0.0,0.0,0.0,-4.9279,-5.2344,-5.4693,-5.5504,-5.4858,-5.4399,-5.4399,-5.0289,-4.7406,0.0,0.0,0.0,0.0,0.0,0.0,0.0,0.0,0.0,0.0,0.0,0.0,0.0,0.0,0.0,0.0,0.0,0.0,0.0,0.0,0.0,0.0,0.0,0.0,0.0,0.0,0.0,0.0,0.0,0.0,0.0,0.0,0.0,0.0,0.0,0.0,0.0,0.0,0.0,0.0,0.0,0.0,0.0,0.0,0.0,0.0,0.0,0.0,0.0,0.0,0.0,0.0,0.0,0.0,0.0,0.0,0.0,0.0,0.0,0.0,0.0,0.0,0.0,0.0,0.0,0.0,0.0,0.0,0.0,0.0,0.0,0.0,0.0,0.0,0.0,0.0,0.0,0.0,0.0,0.0,0.0,0.0,0.0,0.0,0.0,0.0,0.0,0.0,0.0,0.0,0.0,0.0,0.0,0.0,0.0,0.0,0.0,0.0,0.0,0.0,0.0,0.0,0.0,-4.8526,-5.1518,-5.3647,-5.3885,-5.3702,-5.3555,-5.3555,-5.1348,-4.8755,-4.5988,0.0,0.0,0.0,0.0,0.0,0.0,0.0,0.0,0.0,0.0,0.0,0.0,0.0,0.0,0.0,0.0,0.0,0.0,0.0,0.0,0.0,0.0,0.0,0.0,0.0,0.0,0.0,0.0,0.0,0.0,0.0,0.0,0.0,0.0,0.0,0.0,0.0,0.0,0.0,0.0,0.0,0.0,0.0,0.0,0.0,0.0,0.0,0.0,0.0,0.0,0.0,0.0,0.0,0.0,0.0,0.0,0.0,0.0,0.0,0.0,0.0,0.0,0.0,0.0,0.0,0.0,0.0,0.0,0.0,0.0,0.0,0.0,0.0,0.0,0.0,0.0,0.0,0.0,0.0,0.0,0.0,0.0,0.0,0.0,0.0,0.0,0.0,0.0,0.0,0.0,0.0,0.0,0.0,0.0,0.0,0.0,0.0,0.0,0.0,0.0,0.0,0.0,-4.7681,-5.0692,-5.2839,-5.3167,-5.3185,-5.3057,-5.2747,-5.1336,-4.8902,-4.5263,0.0,0.0,0.0,0.0,0.0,0.0,0.0,0.0,0.0,0.0,0.0,0.0,0.0,0.0,0.0,0.0,0.0,0.0,0.0,0.0,0.0,0.0,0.0,0.0,0.0,0.0,0.0,0.0,0.0,0.0,0.0,0.0,0.0,0.0,0.0,0.0,0.0,0.0,0.0,0.0,0.0,0.0,0.0,0.0,0.0,0.0,0.0,0.0,0.0,0.0,0.0,0.0,0.0,0.0,0.0,0.0,0.0,0.0,0.0,0.0,0.0,0.0,0.0,0.0,0.0,0.0,0.0,0.0,0.0,0.0,0.0,0.0,0.0,0.0,0.0,0.0,0.0,0.0,0.0,0.0,0.0,0.0,0.0,0.0,0.0,0.0,0.0,0.0,0.0,0.0,0.0,0.0,0.0,0.0,0.0,0.0,0.0,0.0,0.0,0.0,0.0,0.0,-4.6782,-4.9866,-5.216,-5.2913,-5.2965,-5.2692,-5.194,-5.0583,-4.8195,-4.4547,0.0,0.0,0.0,0.0,0.0,0.0,0.0,0.0,0.0,0.0,0.0,0.0,0.0,0.0,0.0,0.0,0.0,0.0,0.0,0.0,0.0,0.0,0.0,0.0,0.0,0.0,0.0,0.0,0.0,0.0,0.0,0.0,0.0,0.0,0.0,0.0,0.0,0.0,0.0,0.0,0.0,0.0,0.0,0.0,0.0,0.0,0.0,0.0,0.0,0.0,0.0,0.0,0.0,0.0,0.0,0.0,0.0,0.0,0.0,0.0,-5.2318,-5.1731,0.0,0.0,0.0,0.0,0.0,0.0,0.0,0.0,0.0,0.0,0.0,0.0,0.0,0.0,0.0,0.0,0.0,0.0,0.0,0.0,0.0,0.0,0.0,0.0,0.0,0.0,0.0,0.0,0.0,0.0,0.0,0.0,0.0,0.0,0.0,0.0,0.0,0.0,0.0,0.0,-4.603,-4.9022,-5.1114,-5.1298,-5.1316,-5.1242,-5.1077,-5.0188,-4.8117,-4.4533,-4.2881,0.0,0.0,0.0,0.0,0.0,0.0,0.0,0.0,0.0,0.0,0.0,0.0,0.0,0.0,0.0,0.0,0.0,0.0,0.0,0.0,0.0,0.0,0.0,0.0,0.0,0.0,0.0,0.0,0.0,0.0,0.0,0.0,0.0,0.0,0.0,0.0,0.0,0.0,0.0,0.0,0.0,0.0,0.0,0.0,0.0,0.0,0.0,0.0,0.0,0.0,0.0,0.0,0.0,0.0,0.0,0.0,0.0,0.0,0.0,-5.3106,-5.275,0.0,0.0,0.0,0.0,0.0,0.0,0.0,0.0,0.0,0.0,0.0,0.0,0.0,0.0,0.0,0.0,0.0,0.0,0.0,0.0,0.0,0.0,0.0,0.0,0.0,0.0,0.0,0.0,0.0,0.0,0.0,0.0,0.0,0.0,0.0,0.0,0.0,0.0,0.0,0.0,-4.5755,-4.8416,-5.0362,-5.0765,-5.0802,-5.0637,-5.0215,-4.9831,-4.8196,-4.4878,-4.3315,0.0,0.0,0.0,0.0,0.0,0.0,0.0,0.0,0.0,0.0,0.0,0.0,0.0,0.0,0.0,0.0,0.0,0.0,0.0,0.0,0.0,0.0,0.0,0.0,0.0,0.0,0.0,0.0,0.0,0.0,0.0,0.0,0.0,0.0,0.0,0.0,0.0,0.0,0.0,0.0,0.0,0.0,0.0,0.0,0.0,0.0,0.0,0.0,0.0,0.0,0.0,0.0,0.0,-5.4621,-5.4592,-5.3859,-5.4476,-5.4735,-5.4664,-5.3953,-5.3953,-5.4395,-5.2953,0.0,0.0,0.0,0.0,0.0,0.0,0.0,0.0,0.0,0.0,0.0,0.0,0.0,0.0,0.0,0.0,0.0,0.0,0.0,0.0,0.0,0.0,-4.8545,-4.7718,-4.8049,-4.7755,-4.4929,0.0,0.0,0.0,0.0,0.0,0.0,0.0,0.0,0.0,0.0,0.0,-4.5498,-4.7847,-4.9627,-5.0288,-5.0362,-5.0013,-4.915,-4.9132,-4.7929,-4.5066,-4.362,-4.17,0.0,0.0,0.0,0.0,0.0,0.0,0.0,0.0,0.0,0.0,0.0,0.0,0.0,0.0,0.0,0.0,0.0,0.0,0.0,0.0,0.0,0.0,0.0,0.0,0.0,0.0,0.0,0.0,0.0,0.0,0.0,0.0,-5.5488,-5.6484,0.0,0.0,0.0,0.0,0.0,0.0,0.0,0.0,0.0,0.0,0.0,0.0,0.0,-5.3769,-5.3769,-5.4513,-5.4846,-5.4743,-5.5705,-5.5964,-5.5575,-5.5678,-5.5652,-5.553,-5.5415,0.0,-5.4472,-5.4241,0.0,0.0,0.0,0.0,0.0,0.0,0.0,0.0,0.0,0.0,0.0,0.0,0.0,0.0,0.0,0.0,0.0,0.0,0.0,0.0,0.0,0.0,-5.027,-4.9463,-4.9353,-4.9115,-4.7921,-4.603,-4.4085,-4.2451,-4.2139,-4.1625,0.0,0.0,0.0,0.0,0.0,0.0,-4.4745,-4.6966,-4.8508,-4.8618,-4.8636,-4.8287,-4.748,-4.7424,-4.6465,-4.4196,-4.2813,-4.1339,-3.9718,-3.7837,0.0,0.0,0.0,0.0,0.0,0.0,0.0,0.0,0.0,0.0,0.0,0.0,0.0,0.0,0.0,0.0,0.0,0.0,0.0,0.0,0.0,0.0,0.0,0.0,0.0,0.0,0.0,0.0,0.0,-5.4512,-5.5625,-5.6504,-5.6601,-5.6113,0.0,0.0,0.0,0.0,0.0,0.0,0.0,0.0,0.0,-5.4726,-5.4664,-5.4874,-5.5363,-5.5753,-5.5902,-5.586,-5.6241,-5.6312,-5.6168,-5.5984,-5.5866,-5.5798,-5.5738,-5.5491,-5.5145,-5.4684,-5.4049,-5.3318,0.0,0.0,0.0,0.0,-5.2061,-5.2376,-5.2356,-5.2358,-5.2162,-5.099,0.0,0.0,0.0,0.0,0.0,0.0,0.0,-4.8013,-4.8235,-4.9187,-4.9976,-4.9665,-4.961,-4.95,-4.9095,-4.7829,-4.625,-4.4635,-4.4323,-4.3516,-4.102,-4.0946,0.0,0.0,0.0,-4.447,-4.5278,-4.7095,-4.8141,-4.7663,-4.7626,-4.7296,-4.6489,-4.6434,-4.5828,-4.4454,-4.3504,-4.2333,-4.0824,-3.9308,-3.8105,0.0,0.0,0.0,0.0,0.0,0.0,0.0,0.0,0.0,0.0,0.0,0.0,0.0,0.0,0.0,0.0,0.0,0.0,0.0,0.0,0.0,0.0,0.0,0.0,0.0,0.0,0.0,0.0,-5.4941,-5.5859,-5.6481,-5.6581,-5.625,0.0,0.0,0.0,0.0,0.0,0.0,-5.498,-5.5,-5.539,-5.6269,-5.6074,-5.6289,-5.6933,-5.6719,-5.6601,-5.6601,-5.6508,-5.6426,-5.6386,-5.6142,-5.5976,-5.5888,-5.5798,-5.5728,-5.5645,-5.5049,-5.4684,-5.4434,-5.3799,-5.3395,-5.3203,-5.3203,-5.3337,-5.3626,-5.428,-5.4491,-5.4267,-5.2928,-5.1598,-5.0186,-4.839,0.0,0.0,0.0,0.0,-4.8255,-4.8661,-4.9195,-4.9636,-4.9593,-4.961,-4.9537,-4.9335,-4.8765,-4.7884,-4.6489,-4.6214,-4.5259,-4.2231,-4.2213,0.0,-4.1809,-4.3424,-4.5002,-4.5792,-4.7131,-4.7681,-4.6874,-4.6782,-4.6471,-4.5663,-4.559,-4.5259,-4.4452,-4.3885,-4.3075,-4.1866,-4.0521,-3.9193,-3.7901,0.0,0.0,0.0,0.0,0.0,0.0,0.0,0.0,0.0,0.0,0.0,0.0,0.0,0.0,0.0,0.0,0.0,0.0,0.0,0.0,0.0,0.0,0.0,0.0,0.0,0.0,0.0,0.0,0.0,-5.6424,-5.6515,0.0,0.0,0.0,0.0,-5.5293,-5.5996,-5.6836,-5.7656,-5.7695,-5.8105,-5.8984,-5.8203,-5.7793,-5.7832,-5.7012,-5.6601,-5.6601,-5.6582,-5.6515,-5.6408,-5.6383,-5.6193,-5.5896,-5.5888,-5.5816,-5.5703,-5.5665,-5.5184,-5.4491,-5.4453,-5.3933,-5.3203,-5.3203,-5.3722,-5.4434,-5.4472,-5.4491,-5.4607,-5.5269,-5.3606,-5.1183,-5.0231,-4.915,0.0,0.0,-4.8829,-4.9503,-4.9898,-5.0038,-4.9988,-4.9672,-4.961,-4.9372,-4.8545,-4.8343,-4.8048,-4.7204,-4.7039,-4.625,-4.3791,0.0,-4.3441,-4.3404,-4.414,-4.5002,-4.5792,-4.6654,-4.6837,-4.6049,-4.5957,-4.5626,-4.4837,-4.4746,-4.4415,-4.3608,-4.3068,-4.2729,-4.2639,-4.0799,-3.9435,-3.8664,-3.7422,0.0,0.0,0.0,0.0,0.0,0.0,0.0,0.0,0.0,0.0,0.0,0.0,0.0,0.0,0.0,0.0,0.0,0.0,0.0,0.0,0.0,0.0,0.0,0.0,0.0,0.0,0.0,0.0,-5.7233,-5.7843,0.0,-5.7767,-5.8065,-5.8144,-5.7832,-5.8105,-5.8418,-5.8711,-5.873,-5.8613,-5.8379,-5.8066,-5.7637,-5.707,-5.6758,-5.6601,-5.6601,-5.6601,-5.6562,-5.6535,-5.6448,-5.6338,-5.6218,-5.5991,-5.5874,-5.5825,-5.5738,-5.553,-5.5261,-5.5261,-5.5068,-5.4799,-5.4799,-5.5011,-5.5261,-5.5261,-5.5261,-5.5145,-5.4357,-5.267,-5.0888,-5.0581,-5.0199,-4.979,-4.9537,-4.9651,-4.9863,-4.9744,-4.9696,-4.9621,-4.9243,-4.9156,-4.8992,-4.8418,-4.8306,-4.8233,-4.792,-4.7865,-4.7113,-4.469,-4.469,-4.4507,-4.2965,-4.3846,-4.48,-4.5094,-4.5828,-4.603,-4.5223,-4.5131,-4.48,-4.3993,-4.392,-4.3571,-4.2782,-4.2554,-4.2211,-4.17,-4.0629,-3.9708,-3.8965,-3.7815,-3.6874,0.0,0.0,0.0,0.0,0.0,0.0,0.0,0.0,0.0,0.0,0.0,0.0,0.0,0.0,0.0,0.0,0.0,0.0,0.0,0.0,0.0,0.0,0.0,0.0,0.0,-5.6089,-5.7584,-5.7546,-5.8453,-5.9072,-5.9039,-5.9137,-5.9199,-5.9199,-5.9199,-5.9316,-5.959,-5.9355,-5.9062,-5.875,-5.8183,-5.7617,-5.7031,-5.6758,-5.6601,-5.6601,-5.6601,-5.6601,-5.6601,-5.6511,-5.643,-5.6383,-5.6163,-5.6005,-5.5888,-5.5798,-5.5729,-5.5703,-5.5703,-5.5703,-5.5703,-5.5703,-5.5703,-5.5665,-5.5395,-5.5299,-5.5011,-5.3318,-5.201,-5.1048,-5.0789,-5.0712,-5.0634,-5.0388,-5.0294,-5.0206,-4.98,-4.9706,-4.9561,-4.9027,-4.8897,-4.8722,-4.8033,-4.7901,-4.781,-4.7553,-4.7719,-4.7296,-4.5443,-4.5333,-4.4947,-4.3351,-4.403,-4.4691,-4.4691,-4.5168,-4.5186,-4.4378,-4.4305,-4.4085,-4.3551,-4.324,-4.2873,-4.2323,-4.2047,-4.1645,-4.1113,-4.0526,-3.986,-3.912,-3.7802,-3.6692,-3.5761,0.0,0.0,0.0,0.0,0.0,0.0,0.0,0.0,0.0,0.0,0.0,0.0,0.0,0.0,0.0,0.0,0.0,0.0,0.0,0.0,0.0,0.0,0.0,-5.4846,-5.637,-5.7385,-5.7257,-5.8261,-5.8925,-5.8796,-5.9063,-5.9277,-5.9277,-5.9277,-5.9609,-6.0351,-5.9668,-5.957,-6.0293,-5.875,-5.789,-5.7851,-5.7012,-5.6601,-5.6601,-5.6601,-5.6601,-5.6601,-5.6601,-5.6536,-5.6414,-5.6391,-5.6198,-5.5912,-5.5904,-5.5825,-5.5703,-5.5703,-5.5703,-5.5703,-5.5703,-5.5684,-5.5549,-5.4741,-5.4434,-5.4145,-5.2442,-5.1885,-5.1712,-5.0933,-5.0712,-5.0712,-5.0712,-5.0712,-5.0614,-5.0225,-5.0123,-4.9924,-4.9123,-4.8911,-4.8553,-4.7371,-4.7095,-4.6819,-4.6049,-4.6507,-4.6782,-4.5993,-4.5223,-4.4691,-4.4654,-4.4672,0.0,-4.4672,-4.4672,-4.436,-4.3588,-4.3478,-4.346,-4.346,-4.2727,-4.2249,-4.2231,-4.148,-4.104,-4.1022,-4.0453,-3.9806,-3.9066,-3.7292,-3.5761,-3.4489,0.0,0.0,0.0,0.0,0.0,0.0,0.0,0.0,0.0,0.0,0.0,0.0,0.0,0.0,0.0,0.0,0.0,0.0,0.0,0.0,0.0,-5.4216,-5.4524,-5.4611,-5.6671,-5.8184,-5.8148,-5.9614,-6.0627,-6.0589,-6.0677,-6.0765,-6.0863,-6.0868,-6.0726,-6.043,-6.0195,-5.9609,-5.8613,-5.8144,-5.7598,-5.6953,-5.6719,-5.6601,-5.6601,-5.6601,-5.6601,-5.6601,-5.6601,-5.6581,-5.6538,-5.643,-5.6285,-5.6116,-5.5966,-5.5825,-5.5703,-5.5703,-5.5703,-5.5703,-5.5703,-5.5318,-5.4703,-5.3857,-5.3145,-5.2538,-5.2058,-5.151,-5.0991,-5.077,-5.0712,-5.0712,-5.0712,-5.0712,-5.0673,-5.0554,-5.0544,-5.041,-4.9879,-4.9089,-4.8292,-4.7659,-4.6853,-4.6159,-4.5938,-4.5608,-4.5278,-4.5076,-4.4856,-4.4507,-4.392,-4.3828,-4.3828,-4.3828,-4.3828,-4.3736,-4.3533,-4.2983,-4.2635,-4.2635,-4.1901,-4.1185,-4.0598,-4.0341,-3.9974,-3.9371,-3.9205,-3.866,-3.7735,-3.6849,-3.5761,0.0,0.0,0.0,0.0,0.0,0.0,0.0,0.0,0.0,0.0,0.0,0.0,0.0,0.0,0.0,0.0,0.0,0.0,0.0,0.0,0.0,0.0,-5.478,-5.4991,-5.4991,-5.6666,-5.8017,-5.8375,-5.9746,-6.0791,-6.114,-6.1306,-6.1424,-6.1501,-6.1217,-6.0849,-6.043,-5.9726,-5.8906,-5.793,-5.7558,-5.7109,-5.6601,-5.6601,-5.6601,-5.6601,-5.6601,-5.6601,-5.6601,-5.6601,-5.6601,-5.6601,-5.6514,-5.6414,-5.6264,-5.6103,-5.5932,-5.5789,0.0,0.0,0.0,0.0,-5.4664,-5.3837,-5.2972,-5.2308,-5.1846,-5.151,-5.1087,-5.0712,-5.0712,-5.0712,-5.0712,-5.0712,-5.0712,-5.0712,-5.0712,-5.0712,-5.0508,-4.9744,-4.8922,-4.7999,-4.6887,-4.5998,-4.5296,-4.4947,-4.4525,0.0,-4.4195,-4.4195,-4.403,-4.357,-4.3515,-4.3515,-4.3515,-4.3221,-4.3002,-4.3002,-4.2286,-4.1809,-4.1809,-4.1056,0.0,0.0,0.0,-3.9184,-3.8726,-3.8707,0.0,0.0,0.0,0.0,0.0,0.0,0.0,0.0,-3.5165,-3.5605,0.0,0.0,0.0,0.0,0.0,0.0,0.0,0.0,0.0,0.0,0.0,0.0,0.0,0.0,0.0,0.0,-5.5376,-5.5838,-5.5838,-5.6522,-5.728,-5.8069,-5.9109,-6.0052,-6.0768,-6.1108,-6.1292,-6.1332,-6.0625,-6.0174,-6.0117,-5.8711,0.0,0.0,0.0,-5.6601,-5.6601,-5.6601,-5.6601,-5.6601,-5.6601,-5.6601,-5.6601,-5.6601,-5.6601,-5.6601,-5.6601,-5.6516,-5.6383,-5.6266,-5.6026,-5.573,-5.5604,-5.5549,-5.5453,-5.453,-5.3722,-5.2933,-5.2058,0.0,0.0,-5.0933,-5.0712,-5.0712,-5.0712,-5.0712,-5.0712,-5.0712,-5.0712,-5.0673,-5.0577,-5.0558,-5.0239,-4.9014,-4.839,-4.7579,-4.572,-4.4951,-4.4375,-4.3583,-4.3402,-4.3332,-4.324,-4.3386,-4.3478,-4.3386,-4.3368,-4.3331,-4.3239,-4.2598,-4.2158,-4.2158,0.0,0.0,-4.0948,-4.023,-3.9753,-3.9753,-3.9093,-3.8707,-3.8707,-3.8643,-3.8185,-3.7285,-3.7228,-3.6686,-3.5694,-3.5694,-3.565,-3.56,-3.56,-3.6045,0.0,0.0,0.0,0.0,0.0,0.0,0.0,0.0,0.0,0.0,0.0,0.0,0.0,0.0,0.0,-5.631,-5.6656,-5.6753,-5.6753,-5.6887,-5.706,-5.7234,-5.8624,-5.962,-5.9774,-5.985,-5.9999,-6.0275,-5.9504,-5.8835,-5.8418,-5.8086,-5.7578,-5.6875,-5.6699,-5.6601,-5.6601,-5.6601,-5.6601,-5.6601,-5.6601,0.0,-5.6601,-5.6601,-5.6601,-5.6601,-5.6601,-5.6516,-5.6383,-5.6266,-5.5647,-5.4775,-5.4743,-5.4722,-5.453,-5.2991,-5.2288,-5.2019,-5.1221,-5.0933,-5.0914,-5.075,-5.0712,-5.0712,-5.0712,-5.0712,0.0,-5.0712,-5.0712,-5.0539,-4.9817,-4.9644,-4.9404,-4.8462,-4.7442,-4.6587,-4.6166,-4.5063,-4.3893,-4.3091,-4.2717,-4.2323,-4.168,-4.2635,-4.3277,-4.2635,-4.2525,-4.2304,-4.1662,-4.1425,-4.1334,-4.1334,-4.0616,-4.012,-4.012,-3.9386,-3.8927,-3.8927,-3.8799,-3.8707,-3.8707,-3.8283,-3.7963,-3.7772,-3.7396,-3.6884,-3.6245,-3.6245,-3.6011,-3.56,-3.56,-3.6045,0.0,0.0,0.0,0.0,0.0,0.0,0.0,0.0,0.0,0.0,0.0,-5.4722,-5.5588,0.0,-5.6684,-5.7511,-5.7646,-5.7646,-5.7646,-5.7646,-5.7492,-5.706,-5.7742,-5.8415,-5.8858,-5.895,-5.9059,-5.9241,-5.8592,-5.8084,-5.7817,-5.7459,-5.7051,-5.6601,-5.6601,-5.6601,-5.6601,-5.6601,-5.6601,-5.6601,-5.6601,-5.6601,-5.6601,-5.6601,-5.6601,-5.6601,-5.6601,-5.656,-5.6447,-5.5805,-5.4869,-5.3818,-5.3376,-5.3203,-5.3087,-5.2212,-5.1664,-5.1241,-5.0846,-5.0712,-5.0712,-5.0712,-5.0712,-5.0712,-5.0712,-5.0712,-5.0616,-5.0164,-5.0048,-4.9856,-4.8971,-4.8759,-4.8548,-4.7702,-4.6894,-4.6194,-4.5794,-4.4491,-4.3286,-4.2891,-4.2189,-4.1572,-4.1168,-4.1772,-4.2158,-4.1772,-4.1699,-4.1535,-4.115,-4.0763,-4.0506,-4.0506,-3.9772,-3.9294,-3.9294,-3.8927,-3.8707,-3.8707,-3.8707,-3.8707,-3.8707,-3.843,-3.8183,-3.7911,-3.7667,-3.7304,-3.6803,-3.6539,-3.6266,-3.5989,-3.5717,-3.6045,0.0,0.0,0.0,0.0,0.0,0.0,0.0,-5.3068,-5.3741,-5.4761,-5.5491,-5.6222,-5.7099,-5.7838,-5.8357,-5.8511,-5.8531,-5.8531,-5.8531,-5.8531,-5.8146,-5.7118,-5.7157,-5.7453,-5.7992,-5.8143,-5.8213,-5.8256,-5.7736,-5.7411,-5.7445,-5.6906,-5.6601,-5.6601,-5.6601,-5.6601,-5.6601,-5.6601,-5.6601,-5.6601,-5.6601,-5.6601,-5.6601,-5.6601,-5.6601,-5.6582,-5.6426,-5.6327,-5.6161,-5.4921,-5.3829,-5.2856,-5.2,-5.1673,-5.1673,-5.1673,-5.126,-5.0712,-5.0712,-5.0712,-5.0712,-5.0712,-5.0712,-5.0673,-5.05,-5.0462,-5.0269,-4.9394,-4.9144,-4.8952,-4.8086,-4.7875,-4.7663,-4.6836,-4.6397,-4.5938,-4.5125,-4.3925,-4.2871,-4.2502,-4.1646,-4.088,-4.0671,-4.0618,-4.0691,-4.0838,-4.0873,-4.0802,-4.0636,-4.0065,-3.9662,-3.9662,-3.9093,-3.8707,-3.8707,-3.8707,-3.8707,-3.8707,-3.8707,-3.8707,-3.8707,-3.8707,-3.8515,-3.8065,-3.8065,-3.7825,-3.7341,-3.6904,-3.6583,-3.6374,-3.5963,-3.6141,-5.2933,-5.1775,-5.1366,-5.2756,-5.2576,-5.2615,0.0,-5.4799,-5.4799,-5.6387,-5.6791,-5.7107,-5.7992,-5.8223,-5.8531,-5.9261,-5.9377,-5.9377,-5.9377,-5.9377,-5.8781,-5.7195,-5.7684,-5.7896,-5.7214,-5.717,-5.7226,-5.734,-5.6738,-5.642,-5.6542,-5.6574,-5.6601,-5.6601,-5.6601,-5.6601,-5.6601,-5.6601,-5.6601,-5.6601,-5.6601,-5.6601,-5.6601,-5.6601,-5.6601,-5.6562,-5.5781,-5.531,-5.4956,-5.3273,-5.2387,-5.1962,-5.1144,-5.0827,-5.0827,-5.0827,-5.0789,-5.0712,-5.0712,-5.0712,-5.0712,-5.0712,-5.0712,-5.0558,-4.9779,-4.9548,-4.9356,-4.849,-4.8259,-4.8067,-4.7259,-4.7019,-4.6817,-4.5951,-4.5703,-4.5435,-4.4589,-4.4009,-4.3187,-4.1446,-4.0723,-4.0088,-3.9136,-3.8982,-3.9221,-3.9918,-4.0029,-3.9772,-3.9056,-3.8891,-3.8836,-3.8836,-3.8762,-3.8707,-3.8707,-3.8707,-3.8707,-3.8707,-3.8707,-3.8707,-3.8707,-3.8707,-3.8658,-3.8611,-3.8611,-3.835,-3.7825,-3.7755,-3.7268,-3.6395,-3.6333,-3.6482,-5.3342,-5.3302,-5.3366,-5.3479,-5.3882,-5.4368,-5.4975,-5.5171,-5.5395,-5.6099,-5.7049,-5.7877,-5.8223,-5.9108,-5.9877,-6.0204,-6.0262,-6.0262,-6.0262,-5.9819,-5.9069,-5.7896,-5.7627,-5.7203,-5.6329,-5.6252,-5.6276,-5.6329,-5.6257,-5.6217,-5.6288,-5.6486,-5.6601,-5.6601,-5.6601,-5.6601,-5.6601,-5.6601,-5.6601,-5.6601,-5.6601,-5.6601,-5.6601,-5.6601,-5.6328,-5.582,-5.5469,-5.4614,-5.3432,-5.263,-5.1903,-5.128,-5.0856,-5.0712,-5.0712,-5.0712,-5.0712,-5.0712,-5.0712,-5.0712,-5.0616,-5.0106,-4.9933,-4.9779,-4.8913,-4.8644,-4.8471,-4.7644,-4.7413,-4.7221,-4.6355,-4.6144,-4.6047,-4.5691,-4.521,-4.4739,-4.4374,-4.3264,-4.2068,-4.1089,-4.0202,-3.9403,-3.8805,-3.8707,-3.8817,-3.9148,-3.9203,-3.9074,-3.8744,-3.8707,-3.8707,-3.8707,-3.8707,-3.8707,-3.8707,-3.8707,-3.8707,-3.8707,-3.8707,-3.8707,-3.8707,-3.8707,-3.8707,-3.8707,-3.8707,-3.8578,-3.8366,-3.7773,-3.7285,-3.6862,-3.6228,-3.5997,-5.3715,-5.4103,-5.4329,-5.4075,-5.4819,-5.5523,-5.5181,-5.5493,-5.5903,-5.6116,-5.7139,-5.8139,-5.8601,-5.9645,-6.0512,-6.0762,-6.08,-6.08,-6.08,-6.005,-5.9204,-5.8396,-5.753,-5.6656,-5.578,-5.5703,-5.5703,-5.5703,-5.602,-5.6191,-5.6191,-5.6456,-5.6601,-5.6601,-5.6601,-5.6601,-5.6601,-5.6601,-5.6601,-5.6601,-5.6601,-5.6601,-5.6582,-5.6348,-5.5762,-5.4922,-5.4687,-5.3783,-5.2469,-5.2134,-5.1558,-5.0894,-5.0799,-5.073,-5.0712,-5.0712,-5.0712,-5.0712,-5.0712,-5.0539,-5.025,-4.9606,-4.924,-4.8875,-4.8029,-4.7778,-4.7605,-4.6778,-4.6547,-4.6394,-4.5768,-4.5594,-4.5537,-4.5306,-4.4759,-4.4162,-4.3701,-4.2457,-4.1264,-4.0666,-3.9846,-3.9131,-3.8762,-3.8707,-3.8707,-3.8707,-3.8707,-3.8707,-3.8707,-3.8707,-3.8707,-3.8707,-3.8707,-3.8707,-3.8707,-3.8707,-3.8707,-3.8707,-3.8707,-3.8707,-3.8707,-3.8707,-3.8707,-3.8707,-3.8707,-3.8707,-3.8707,-3.7826,-3.7323,-3.719,-3.6249,-3.5739,-5.3984,-5.3309,-5.2979,-5.463,-5.4995,-5.5141,-5.5972,-5.6161,-5.6414,-5.7187,-5.7285,-5.7719,-5.9364,-5.9589,-5.9819,-6.0666,-6.08,-6.08,-6.08,-6.005,-5.9204,-5.8396,-5.753,-5.6656,-5.578,-5.5703,-5.5703,-5.5703,-5.602,-5.6191,-5.6191,-5.6456,-5.6601,-5.6601,-5.6601,-5.6601,-5.6601,-5.6601,-5.6601,-5.6601,-5.6601,-5.6601,-5.6562,-5.5723,-5.4863,-5.3984,-5.3144,-5.2669,-5.2433,-5.1572,-5.1092,-5.0908,-5.0901,-5.0814,-5.0712,-5.0712,-5.0712,-5.0712,-5.0712,-5.0144,-4.9433,-4.9413,-4.8836,-4.799,-4.7173,-4.6942,-4.6759,-4.5874,-4.5633,-4.5633,-4.5614,-4.5594,-4.5383,-4.4528,-4.4316,-4.3855,-4.2239,-4.1827,-4.1365,-3.9932,-3.9618,-3.9402,-3.8807,-3.8707,-3.8707,-3.8707,-3.8707,-3.8707,-3.8707,-3.8707,-3.8707,-3.8707,-3.8707,-3.8707,-3.8707,-3.8707,-3.8707,-3.8707,-3.8707,-3.8707,-3.8707,-3.8707,-3.8707,-3.8707,-3.8707,-3.8707,-3.8707,-3.815,-3.7649,-3.719,-3.6623,-3.6097,-5.4004,-5.4178,-5.4643,-5.5794,-5.5996,-5.5961,-5.6269,-5.6256,-5.6269,-5.6542,-5.6982,-5.7488,-5.7954,-5.8479,-5.9089,-5.9815,-5.9935,-6.0146,-6.0723,-6.005,-5.9204,-5.8396,-5.753,-5.6656,-5.578,-5.5703,-5.5703,-5.5703,-5.602,-5.6191,-5.6191,-5.6456,-5.6601,-5.6601,-5.6601,-5.6601,-5.6601,-5.6601,-5.6601,-5.6601,-5.6601,-5.6308,-5.5723,-5.543,-5.4512,-5.3125,-5.2832,-5.2343,-5.1732,-5.1355,-5.1136,-5.1008,-5.0939,-5.0822,-5.0635,-5.0048,-4.9837,-4.9837,-4.9837,-4.9644,-4.9221,-4.8105,-4.7548,-4.7163,-4.6297,-4.6028,-4.597,-4.5691,-4.5594,-4.5594,-4.5594,-4.5171,-4.4662,-4.4374,-4.3451,-4.2489,-4.1923,-4.1354,-4.0673,-3.978,-3.9599,-3.9414,-3.8807,-3.8707,-3.8707,-3.8707,-3.8707,-3.8707,-3.8707,-3.8707,-3.8707,-3.8707,-3.8707,-3.8707,-3.8707,-3.8707,-3.8707,-3.8707,-3.8707,-3.8707,-3.8707,-3.8707,-3.8707,-3.8707,-3.8707,-3.8707,-3.8707,-3.8167,-3.7667,-3.719,-3.6643,-3.6118,-5.4375,-5.4863,-5.5508,-5.6387,-5.6537,-5.6462,-5.6462,-5.6394,-5.6338,-5.6338,-5.6714,-5.7093,-5.7241,-5.7729,-5.8411,-5.9337,-5.9532,-5.9854,-6.0677,-6.005,-5.9319,-5.88,-5.7703,-5.6791,-5.6233,-5.5876,-5.5703,-5.5703,-5.602,-5.6191,-5.6191,-5.6456,-5.6601,-5.6601,-5.6601,-5.6601,-5.6601,-5.6601,-5.6601,-5.6601,-5.6289,-5.5683,-5.4824,-5.4512,-5.3594,-5.2246,-5.2246,-5.1914,-5.1387,-5.1318,-5.1202,-5.1064,-5.066,-5.0411,-5.0125,-4.926,-4.8933,-4.8933,-4.8933,-4.8759,-4.8336,-4.7259,-4.6701,-4.6336,-4.5768,-4.5594,-4.5594,-4.5594,-4.5594,-4.5594,-4.5594,-4.4951,-4.422,-4.3932,-4.2816,-4.1712,-4.1393,-4.0893,-4.0353,-3.9872,-3.9679,-3.9432,-3.8942,-3.8762,-3.8707,-3.8707,-3.8707,-3.8707,-3.8707,-3.8707,-3.8707,-3.8707,-3.8707,-3.8707,-3.8707,-3.8707,-3.8707,-3.8707,-3.8707,-3.8707,-3.8707,-3.8707,-3.8707,-3.8707,-3.8707,-3.8707,-3.8707,-3.8167,-3.7737,-3.7433,-3.6724,-3.6224,-5.5078,-5.5332,-5.5566,-5.6387,-5.6601,-5.6601,-5.6601,-5.6601,-5.6582,-5.6543,-5.6469,-5.6586,-5.7176,-5.7325,-5.7819,-5.9218,-5.9553,-5.991,-6.0692,-6.0089,-5.955,-5.9511,-5.805,-5.706,-5.7003,-5.6214,-5.5703,-5.5703,-5.602,-5.6191,-5.6191,-5.6456,-5.6601,-5.6601,-5.6601,-5.6601,-5.6601,-5.6601,-5.6582,-5.6523,-5.5703,-5.4824,-5.3906,-5.3086,-5.2226,-5.1406,-5.1406,-5.1406,-5.1406,-5.1367,-5.1219,-5.0958,-5.0072,-4.9576,-4.9221,-4.8355,-4.8048,-4.8029,-4.799,-4.7509,-4.6885,-4.6846,-4.6278,-4.5594,-4.5594,-4.5594,-4.5594,-4.5594,-4.5594,-4.5594,-4.5556,-4.4902,-4.4028,-4.3239,-4.2374,-4.1508,-4.0689,-4.0496,-4.0414,-4.0148,-3.9808,-3.9462,-3.9147,-3.8884,-3.8707,-3.8707,-3.8707,-3.8707,-3.8707,-3.8707,-3.8707,-3.8707,-3.8707,-3.8707,-3.8707,-3.8707,-3.8707,-3.8707,-3.8707,-3.8707,-3.8707,-3.8707,-3.8707,-3.8707,-3.8707,-3.8707,-3.8707,-3.8183,-3.7929,-3.7876,-3.6923,-3.6457,-5.5234,-5.5762,-5.6328,-5.6543,-5.6601,-5.6601,-5.6601,-5.6601,-5.6426,-5.5762,-5.6112,-5.6374,-5.5786,-5.6218,-5.7123,-5.8532,-5.8776,-5.9272,-6.0615,-6.0608,-6.0223,-5.9588,-5.8588,-5.7703,-5.706,-5.6214,-5.5703,-5.5703,-5.602,-5.6191,-5.6191,-5.6456,-5.6601,-5.6601,-5.6601,-5.6601,-5.6601,-5.6601,-5.6269,-5.5625,-5.541,-5.4492,-5.3027,-5.2793,-5.2226,-5.1406,-5.1406,-5.1406,-5.1348,-5.0742,-5.0362,-5.0033,-4.9177,-4.8677,-4.8336,-4.7509,-4.7212,-4.7105,-4.6451,-4.6528,-4.6797,-4.6144,-4.5787,-4.5594,-4.5594,-4.5594,-4.5594,-4.5594,-4.5594,-4.546,-4.4797,-4.4008,-4.3181,-4.2335,-4.147,-4.0766,-4.0554,-4.0496,-4.0414,-4.0148,-3.9622,-3.9199,-3.9107,-3.8884,-3.8707,-3.8707,-3.8707,-3.8707,-3.8707,-3.8707,-3.8707,-3.8707,-3.8707,-3.8707,-3.8707,-3.8707,-3.8707,-3.8707,-3.8707,-3.8707,-3.8707,-3.8707,-3.8707,-3.8707,-3.8707,-3.8707,-3.8707,-3.8562,-3.8283,-3.7893,-3.7649,-3.7117,-5.5762,-5.623,-5.6601,-5.6601,-5.6601,-5.6504,-5.6113,-5.6328,-5.623,-5.498,-5.5723,-5.6189,-5.4779,-5.5593,-5.6701,-5.734,-5.8093,-5.8994,-6.0151,-6.0591,-6.0473,-5.9608,-5.88,-5.7953,-5.708,-5.6214,-5.5703,-5.5703,-5.602,-5.6191,-5.6191,-5.6456,-5.6601,-5.6601,-5.6601,-5.6426,-5.6035,-5.6035,-5.5586,-5.4726,-5.4336,-5.3652,-5.2695,-5.2305,-5.1855,-5.1406,-5.1406,-5.1191,-5.084,-5.0391,-4.9846,-4.9219,-4.8299,-4.781,-4.7505,-4.6641,-4.6336,-4.6259,-4.5768,-4.5913,-4.624,-4.5768,-4.5594,-4.5594,-4.5594,-4.5594,-4.5594,-4.5594,-4.5325,-4.4921,-4.4432,-4.3412,-4.2412,-4.1923,-4.1123,-4.0496,-4.0496,-4.0496,-4.0414,-4.0148,-3.9668,-3.9264,-3.9139,-3.8884,-3.8707,-3.8707,-3.8707,-3.8707,-3.8707,-3.8707,-3.8707,-3.8707,-3.8707,-3.8707,-3.8707,-3.8707,-3.8707,-3.8707,-3.8707,-3.8707,-3.8707,-3.8707,-3.8707,-3.8707,-3.8707,-3.8707,-3.8707,-3.8707,-3.8415,-3.7911,-3.7685,-3.7173,-5.6387,-5.6601,-5.6601,-5.6601,-5.6601,-5.6367,-5.5508,-5.5879,-5.5937,-5.4199,-5.5117,-5.5721,-5.3971,-5.5164,-5.6333,-5.6164,-5.749,-5.8759,-5.9445,-6.0083,-6.0211,-5.9435,-5.8627,-5.7838,-5.708,-5.6214,-5.5705,-5.5737,-5.6015,-5.6191,-5.6191,-5.6456,-5.6601,-5.6601,-5.6484,-5.6055,-5.5312,-5.5195,-5.4687,-5.3828,-5.3066,-5.2637,-5.25,-5.1738,-5.1348,-5.123,-5.123,-5.0781,-5.0019,-4.9902,-4.9328,-4.8423,-4.7443,-4.6964,-4.6737,-4.5935,-4.562,-4.5594,-4.5594,-4.5594,-4.5594,-4.5594,-4.5594,-4.5594,-4.5594,-4.5594,-4.5575,-4.546,-4.4874,-4.4239,-4.4028,-4.2893,-4.1769,-4.1662,-4.1046,-4.0496,-4.0496,-4.0496,-4.0422,-4.0195,-3.9901,-3.9564,-3.9212,-3.8937,-3.875,-3.8707,-3.8707,-3.8707,-3.8707,-3.8707,-3.8707,-3.8707,-3.8707,-3.8707,-3.8707,-3.8707,-3.8707,-3.8707,-3.8707,-3.8707,-3.8707,-3.8707,-3.8707,-3.8707,-3.8707,-3.8707,-3.8707,-3.8707,-3.8465,-3.7997,-3.7506,-3.7001,-5.6562,-5.6601,-5.6601,-5.6601,-5.6601,-5.6367,-5.5508,-5.543,-5.5039,-5.3281,-5.373,-5.4121,-5.3084,-5.4242,-5.5577,-5.6248,-5.7069,-5.7878,-5.8612,-5.8815,-5.88,-5.8534,-5.7742,-5.7176,-5.7003,-5.6214,-5.5739,-5.5868,-5.6065,-5.6191,-5.6191,-5.6456,-5.6601,-5.6601,-5.5898,-5.5449,-5.5293,-5.459,-5.3789,-5.293,-5.2773,-5.2324,-5.1621,-5.1465,-5.1035,-5.041,-5.041,-4.9922,-4.9062,-4.8359,-4.7884,-4.7533,-4.6645,-4.6165,-4.599,-4.5821,-4.5712,-4.5594,-4.5594,-4.5594,-4.5594,-4.5594,-4.5594,-4.5594,-4.5594,-4.5594,-4.546,-4.472,-4.4412,-4.397,-4.2585,-4.2019,-4.1623,-4.0893,-4.0612,-4.0496,-4.0496,-4.0496,-4.0489,-4.0449,-4.0194,-3.9912,-3.9576,-3.9244,-3.8961,-3.8735,-3.8707,-3.8707,-3.8707,-3.8707,-3.8707,-3.8707,-3.8707,-3.8707,-3.8707,-3.8707,-3.8707,-3.8707,-3.8707,-3.8707,-3.8707,-3.8707,-3.8707,-3.8707,-3.8707,-3.8707,-3.8707,-3.8707,-3.8643,-3.8546,-3.8032,-3.7524,-5.6601,-5.6601,-5.6601,-5.6601,-5.6601,-5.625,-5.4922,-5.4961,-5.4687,-5.248,-5.3086,-5.3594,-5.2266,-5.3394,-5.4648,-5.4984,-5.6074,-5.7108,-5.7738,-5.8219,-5.8286,-5.7679,-5.7253,-5.683,-5.6368,-5.5953,-5.5728,-5.5789,-5.5955,-5.6121,-5.6281,-5.6058,-5.5918,-5.5918,-5.5078,-5.4414,-5.3945,-5.3535,-5.2891,-5.2012,-5.2012,-5.1797,-5.1406,-5.1406,-5.0957,-5.0195,-5.0195,-4.9453,-4.8183,-4.7773,-4.7284,-4.6786,-4.6296,-4.605,-4.5933,-4.5846,-4.5761,-4.5685,-4.5618,-4.5594,-4.5594,-4.5594,-4.5594,-4.5594,-4.5594,-4.5287,-4.4836,-4.4412,-4.3662,-4.2816,-4.2,-4.147,-4.1027,-4.0593,-4.0496,-4.0496,-4.0496,-4.0496,-4.0496,-4.0496,-4.0276,-4.0061,-3.9891,-3.9426,-3.9063,-3.8937,-3.8788,-3.8707,-3.8707,-3.8707,-3.8707,-3.8707,-3.8707,-3.8707,-3.8707,-3.8707,-3.8707,-3.8707,-3.8707,-3.8707,-3.8707,-3.8707,-3.8707,-3.8707,-3.8707,-3.8707,-3.8707,-3.8707,-3.8562,-3.8283,-3.8013,-3.7488,-5.6601,-5.6601,-5.6601,-5.6601,-5.6601,-5.6133,-5.4394,-5.4531,-5.4336,-5.1894,-5.248,-5.3027,-5.1641,-5.2655,-5.3703,-5.3799,-5.5081,-5.629,-5.6835,-5.7503,-5.7629,-5.6823,-5.6714,-5.6445,-5.5761,-5.5703,-5.5716,-5.5729,-5.5733,-5.593,-5.6383,-5.5696,-5.5293,-5.5293,-5.4277,-5.3398,-5.2715,-5.2519,-5.207,-5.1406,-5.1406,-5.1406,-5.1387,-5.1211,-5.0703,-4.9902,-4.9726,-4.8769,-4.7324,-4.7324,-4.6914,-4.6289,-4.6177,-4.6138,-4.6075,-4.5896,-4.5809,-4.5776,-4.5651,-4.5594,-4.5575,-4.5383,-4.546,-4.5575,-4.5383,-4.4836,-4.422,-4.3874,-4.2816,-4.175,-4.1566,-4.1008,-4.0496,-4.0496,-4.0496,-4.0496,-4.0496,-4.0496,-4.0496,-4.0496,-4.033,-4.0167,-4.011,-3.9656,-3.9282,-3.9125,-3.8923,-3.8762,-3.8707,-3.8707,-3.8707,-3.8707,-3.8707,-3.8707,-3.8707,-3.8707,-3.8707,-3.8707,-3.8707,-3.8707,-3.8707,-3.8707,-3.8707,-3.8707,-3.8707,-3.8707,-3.8707,-3.8707,-3.8481,-3.8065,-3.7963,-3.747,-5.6601,-5.6601,-5.6601,-5.6601,-5.6601,-5.6133,-5.4394,-5.4062,-5.3594,-5.1777,-5.1523,-5.1582,-5.1426,-5.2075,-5.2899,-5.3674,-5.45,-5.5272,-5.5928,-5.609,-5.6072,-5.5831,-5.5818,-5.578,-5.5703,-5.5703,-5.5749,-5.5874,-5.5443,-5.5535,-5.6369,-5.5696,-5.5293,-5.5293,-5.3691,-5.2773,-5.2695,-5.1914,-5.1484,-5.1406,-5.1406,-5.1406,-5.1387,-5.0644,-4.9844,-4.8984,-4.8183,-4.7305,-4.6426,-4.6426,-4.6367,-4.6308,-4.6289,-4.6202,-4.6082,-4.5948,-4.5845,-4.5776,-4.5651,-4.5594,-4.5479,-4.4682,-4.4951,-4.546,-4.4662,-4.4355,-4.397,-4.247,-4.1923,-4.1623,-4.0816,-4.0554,-4.0496,-4.0496,-4.0496,-4.0496,-4.0496,-4.0496,-4.0496,-4.0496,-4.0481,-4.0381,-4.0139,-4.0061,-3.9797,-3.9186,-3.9085,-3.899,-3.8735,-3.8707,-3.8707,-3.8707,-3.8707,-3.8707,-3.8707,-3.8707,-3.8707,-3.8707,-3.8707,-3.8707,-3.8707,-3.8707,-3.8707,-3.8707,-3.8707,-3.8707,-3.8707,-3.8707,-3.8658,-3.8611,-3.8133,-3.7842,-5.6212,-5.6368,-5.638,-5.6458,-5.6484,-5.6041,-5.4374,-5.4004,-5.3516,-5.1758,-5.1406,-5.1406,-5.1406,-5.1637,-5.2269,-5.3582,-5.3611,-5.3861,-5.5028,-5.5176,-5.5133,-5.4984,-5.5415,-5.5703,-5.5703,-5.5703,-5.5547,-5.5194,-5.4577,-5.4383,-5.4803,-5.4133,-5.373,-5.373,-5.2558,-5.1914,-5.1914,-5.1562,-5.1406,-5.1387,-5.0918,-5.0683,-5.0644,-4.9805,-4.8945,-4.8105,-4.7754,-4.7109,-4.6308,-4.6308,-4.6308,-4.6308,-4.6308,-4.6268,-4.6199,-4.5981,-4.5891,-4.575,-4.5055,-4.4816,-4.4682,-4.3855,-4.3816,-4.4028,-4.3682,-4.322,-4.2662,-4.1981,-4.1431,-4.0931,-4.0593,-4.0496,-4.0496,-4.0496,-4.0496,-4.0496,-4.0496,-4.0496,-4.0496,-4.0496,-4.0496,-4.0465,-4.0356,-4.0043,-3.972,-3.9438,-3.9095,-3.8815,-3.8704,-3.8707,-3.8707,-3.8707,-3.8707,-3.8707,-3.8707,-3.8707,-3.8707,-3.8707,-3.8707,-3.8707,-3.8707,-3.8707,-3.8707,-3.8707,-3.8707,-3.8707,-3.8707,-3.8707,-3.8707,-3.8692,-3.8481,-3.82,-5.5652,-5.5997,-5.6227,-5.6371,-5.6408,-5.5977,-5.4374,-5.4004,-5.3516,-5.1758,-5.1406,-5.1406,-5.1406,-5.1406,-5.1833,0.0,0.0,-5.2979,-5.4478,-5.4675,-5.4687,-5.485,-5.5357,-5.5703,-5.5703,-5.5472,-5.5045,-5.4308,-5.3618,-5.3151,-5.3013,-5.2565,-5.2422,-5.2695,-5.1855,-5.1406,-5.1406,-5.1152,-5.1055,-5.1035,-5.0215,-4.9824,-4.9785,-4.8906,-4.8183,-4.7598,-4.7324,-4.6875,-4.6308,-4.6308,-4.6308,-4.6308,-4.6308,-4.6308,-4.6249,-4.5749,-4.5714,-4.5716,-4.4418,-4.4116,-4.4124,-4.3066,-4.272,-4.2662,-4.2412,-4.2085,-4.175,-4.1489,-4.0969,-4.0496,-4.0496,-4.0496,-4.0496,-4.0496,-4.0496,-4.0496,-4.0496,-4.0496,-4.0496,-4.0496,-4.0496,-4.0496,-4.0496,-4.0091,-3.9701,-3.9611,-3.9149,-3.8788,-3.8704,-3.8707,-3.8707,-3.8707,-3.8707,-3.8707,-3.8707,-3.8707,-3.8707,-3.8707,-3.8707,-3.8707,-3.8707,-3.8707,-3.8707,-3.8707,-3.8707,-3.8707,-3.8707,-3.8707,-3.8707,-3.8707,-3.8707,-3.8496,-5.4918,-5.5535,-5.6227,-5.6371,-5.6408,-5.5977,-5.4374,-5.4004,-5.3516,-5.1758,-5.1406,-5.1406,-5.1406,-5.1406,-5.1637,-5.2394,-5.2387,0.0,-5.4479,-5.4593,-5.481,-5.5588,-5.5684,-5.5703,-5.5703,-5.4972,-5.4145,-5.328,-5.2651,-5.1959,-5.1172,-5.1302,-5.1816,-5.2676,-5.1855,-5.1406,-5.1406,-5.0605,-5.0215,-5.0195,-4.9336,-4.8906,-4.8887,-4.8008,-4.7617,-4.7558,-4.6699,-4.6308,-4.6308,-4.6308,-4.6308,-4.6308,-4.6308,-4.6308,-4.6172,-4.5189,-4.5261,-4.5647,-4.385,-4.3692,-4.4028,-4.2354,-4.1808,-4.1662,-4.0785,-4.1123,-4.1623,-4.0766,-4.0516,-4.0496,-4.0496,-4.0496,-4.0496,-4.0496,-4.0496,-4.0496,-4.0496,-4.0496,-4.0496,-4.0496,-4.0496,-4.0496,-4.0496,-4.0267,-3.9982,-3.9645,-3.9302,-3.8999,-3.8735,-3.8707,-3.8707,-3.8707,-3.8707,-3.8707,-3.8707,-3.8707,-3.8707,-3.8707,-3.8707,-3.8707,-3.8707,-3.8707,-3.8707,-3.8707,-3.8707,-3.8707,-3.8707,-3.8707,-3.8707,-3.8707,-3.8707,-3.8692,-5.3582,-5.395,-5.4196,-5.4431,-5.4931,-5.4979,-5.3454,-5.3574,-5.3516,-5.1758,-5.1406,-5.1406,-5.1406,-5.1406,-5.1875,-5.3296,-5.2844,-5.2897,-5.4607,-5.4652,-5.4587,-5.4857,-5.4876,-5.4876,-5.4876,-5.3568,-5.2656,-5.2453,-5.1852,-5.138,-5.1184,-5.079,-5.0957,-5.1797,-5.1016,-5.0586,-5.0586,-4.9746,-4.9316,-4.9297,-4.8437,-4.8008,-4.7988,-4.7109,-4.6719,-4.6699,-4.6426,-4.6308,-4.6308,-4.6308,-4.6308,-4.6308,-4.6308,-4.6308,-4.6172,-4.5169,-4.4943,-4.4884,-4.3017,-4.2538,-4.2528,-4.1305,-4.0912,-4.0854,-4.0573,-4.0689,-4.0854,-4.0573,-4.0496,-4.0496,-4.0496,-4.0496,-4.0496,-4.0496,-4.0496,-4.0496,-4.0496,-4.0496,-4.0496,-4.0496,-4.0496,-4.0496,-4.0496,-4.0286,-3.9992,-3.9645,-3.9314,-3.9013,-3.8735,-3.8707,-3.8707,-3.8707,-3.8707,-3.8707,-3.8707,-3.8707,-3.8707,-3.8707,-3.8707,-3.8707,-3.8707,-3.8707,-3.8707,-3.8707,-3.8707,-3.8707,-3.8707,-3.8707,-3.8707,-3.8707,-3.8707,-3.8707,-5.2491,-5.2984,-5.3323,-5.3544,-5.4051,-5.4164,-5.2965,-5.3125,-5.3105,-5.1699,-5.1406,-5.1406,-5.1406,-5.1406,-5.1758,-5.2832,-5.2356,-5.2466,-5.4234,-5.42,-5.4241,-5.4876,-5.4684,-5.4491,-5.4491,-5.2933,-5.1953,-5.2086,-5.1474,-5.1007,-5.0769,-5.0403,-5.0273,-5.0449,-4.9961,-4.9707,-4.9707,-4.8848,-4.8418,-4.8398,-4.7539,-4.7109,-4.709,-4.6543,-4.6308,-4.6308,-4.6308,-4.6308,0.0,-4.6308,-4.6308,-4.6308,-4.6308,-4.6094,-4.5683,-4.4736,-4.4367,-4.4085,-4.2264,-4.1795,-4.1841,-4.0886,-4.0537,-4.0496,-4.0496,-4.0496,-4.0496,-4.0496,-4.0496,-4.0496,-4.0496,-4.0496,-4.0496,-4.0496,-4.0496,-4.0496,-4.0496,-4.0496,-4.0496,-4.0496,-4.0496,-4.0496,-4.0496,-4.0286,-4.0022,-3.9819,-3.9389,-3.9036,-3.8869,-3.8762,-3.8707,-3.8707,-3.8707,-3.8707,-3.8707,-3.8707,-3.8707,-3.8707,-3.8707,-3.8707,-3.8707,-3.8707,-3.8707,-3.8707,-3.8707,-3.8707,-3.8707,-3.8707,-3.8707,-3.8707,-3.8707,-3.8707,0.0,-5.2498,-5.325,-5.3391,-5.3572,-5.3516,-5.2772,-5.2656,0.0,-5.1582,-5.1406,-5.1406,-5.1406,-5.1406,-5.1426,-5.1484,-5.1327,-5.1806,-5.3546,-5.3526,-5.3896,-5.5511,-5.4934,-5.4414,-5.4414,-5.2837,-5.1876,-5.1993,-5.1371,-5.0711,-5.0018,-4.9992,-4.9648,-4.8828,-4.875,-4.873,-4.8808,-4.7949,-4.7519,-4.75,-4.6699,-4.6308,-4.6308,-4.6308,-4.6308,-4.6308,-4.6308,-4.6308,-4.6308,-4.623,-4.6211,-4.6191,-4.6133,-4.5625,-4.4805,-4.3926,-4.3567,-4.3261,-4.1581,-4.1404,-4.1774,-4.0957,-4.0596,-4.0496,-4.0496,-4.0496,-4.0496,-4.0496,-4.0496,-4.0496,-4.0496,-4.0496,-4.0496,-4.0496,-4.0496,-4.0496,-4.0496,-4.0496,-4.0496,-4.0496,-4.0496,-4.0496,-4.0496,-4.0285,-4.012,-4.0101,-3.9552,-3.9139,-3.9093,-3.8869,-3.8707,-3.8707,-3.8707,-3.8707,-3.8707,-3.8707,-3.8707,-3.8707,-3.8707,-3.8707,-3.8707,-3.8707,-3.8707,-3.8707,-3.8707,-3.8707,-3.8707,-3.8707,-3.8707,-3.8707,-3.8707,-3.8707,-5.0933,0.0,-5.1513,-5.1641,-5.2251,-5.2602,0.0,-5.2226,-5.2441,-5.1582,-5.1406,-5.1406,-5.1406,-5.1406,-5.1621,-5.2285,-5.2278,-5.2558,-5.3652,-5.4122,-5.4678,-5.559,-5.4395,-5.351,-5.351,-5.1972,-5.1001,-5.1019,-5.0468,-5.0028,-4.9861,-4.8807,-4.8125,-4.791,-4.7266,-4.7226,-4.7891,-4.7031,-4.6601,-4.6601,-4.6406,-4.6308,-4.6308,-4.6308,-4.6308,-4.6308,-4.6308,-4.6308,-4.625,-4.5586,-4.5312,-4.5234,-4.457,-4.4199,-4.3906,-4.3027,-4.2695,-4.2515,-4.1399,-4.1039,-4.1019,-4.0655,-4.0534,-4.0496,-4.0496,-4.0496,-4.0496,-4.0496,-4.0496,-4.0496,-4.0496,-4.0496,-4.0496,-4.0496,-4.0496,-4.0496,-4.0496,-4.0496,-4.0496,-4.0496,-4.0496,-4.0496,-4.0496,-4.0457,-4.0339,-4.0129,-3.9754,-3.9389,-3.912,-3.8869,-3.8707,-3.8707,-3.8707,-3.8707,-3.8707,-3.8707,-3.8707,-3.8707,-3.8707,-3.8707,-3.8707,-3.8707,-3.8707,-3.8707,-3.8707,-3.8707,-3.8707,-3.8707,-3.8707,-3.8707,-3.8707,-3.8707,-5.0712,-5.1114,-5.1565,-5.1624,-5.211,-5.2491,-5.2089,-5.2051,-5.1973,-5.1504,-5.1406,-5.1289,-5.0918,-5.1152,-5.1426,-5.1543,-5.174,-5.2302,-5.3453,-5.4284,-5.4874,-5.512,-5.3991,-5.3049,-5.2635,-5.1452,-5.0567,-5.0231,-4.9891,-4.9415,-4.8729,-4.7936,-4.7359,-4.7012,-4.6543,-4.6523,-4.6992,-4.6543,-4.6308,-4.6308,-4.6308,-4.6308,-4.6289,-4.5898,-4.5703,-4.5683,-4.5273,-4.5117,-4.5078,-4.4609,-4.4394,-4.4355,-4.3887,-4.3457,-4.3047,-4.2578,-4.2168,-4.1777,-4.1262,-4.0959,-4.0773,-4.0636,-4.0545,-4.0496,-4.0496,-4.0496,-4.0496,-4.0496,-4.0496,-4.0496,-4.0496,-4.0496,-4.0496,-4.0496,-4.0496,-4.0496,-4.0496,-4.0496,-4.0496,-4.0496,-4.0496,-4.0496,-4.0496,-4.0496,-4.0457,-4.0313,-4.0023,-3.972,-3.9364,-3.9068,-3.8844,-3.8704,-3.8707,-3.8707,-3.8707,-3.8707,-3.8707,-3.8707,-3.8707,-3.8707,-3.8707,-3.8707,-3.8707,-3.8707,-3.8707,-3.8707,-3.8707,-3.8707,-3.8707,-3.8707,-3.8707,-3.8707,-5.0846,-5.166,-5.2416,-5.2183,-5.2406,-5.2636,-5.2539,-5.1933,-5.1406,-5.1406,-5.1406,-5.1191,-5.0508,-5.0937,-5.1211,-5.0664,-5.1063,-5.1947,-5.3456,-5.4152,-5.453,-5.4526,-5.3648,-5.2723,-5.1972,-5.1048,-5.0238,-4.9618,-4.9345,-4.8654,-4.7418,-4.7253,-4.691,-4.6288,-4.6289,-4.6308,-4.6308,-4.6308,-4.6308,-4.6308,-4.6172,-4.6094,-4.6074,-4.5195,-4.4805,-4.4766,-4.4023,0.0,-4.3691,-4.3555,-4.3496,-4.3496,-4.3379,-4.2871,-4.2226,-4.2226,-4.1797,-4.1191,-4.1171,-4.1017,-4.0781,-4.0729,-4.061,-4.0496,-4.0496,-4.0496,-4.0496,-4.0496,-4.0496,-4.0496,-4.0496,-4.0496,-4.0496,-4.0496,-4.0496,-4.0496,-4.0496,-4.0496,-4.0496,-4.0496,-4.0496,-4.0496,-4.0496,-4.0496,-4.0496,-4.0496,-4.0258,-4.0002,-3.9701,-3.9327,-3.9008,-3.8792,-3.8719,-3.8707,-3.8707,-3.8707,-3.8707,-3.8707,-3.8707,-3.8707,-3.8707,-3.8707,-3.8707,-3.8707,-3.8707,-3.8707,-3.8707,-3.8707,-3.8707,-3.8707,-3.8707,-3.8707,-5.1529,-5.2455,-5.2919,-5.1608,-5.1908,-5.2372,-5.1737,-5.1504,-5.1406,-5.1406,-5.1406,-5.1367,-5.123,-5.1328,-5.1601,-5.2226,-5.2402,-5.3018,-5.4629,-5.3706,-5.3325,-5.4537,-5.3243,-5.2174,-5.1924,-5.051,-4.9548,-4.9431,-4.8172,-4.7301,-4.7061,-4.6582,-4.6249,-4.612,-4.6246,-4.6308,-4.6308,-4.6308,-4.6308,-4.6289,-4.5547,-4.5195,-4.5176,-4.4297,-4.3906,-4.3887,0.0,-4.3691,-4.3633,-4.2891,-4.2598,-4.2539,-4.1855,-4.1504,-4.1387,-4.1387,-4.1308,-4.1172,-4.1077,-4.0925,-4.0781,-4.0729,-4.061,-4.0496,-4.0496,-4.0496,-4.0496,-4.0496,-4.0496,-4.0496,-4.0496,-4.0496,-4.0496,-4.0496,-4.0496,-4.0496,-4.0496,-4.0496,-4.0496,-4.0496,-4.0496,-4.0496,-4.0496,-4.0496,-4.0496,-4.0496,-4.0258,-4.0081,-4.0022,-3.9474,-3.9085,-3.9049,-3.8844,-3.8707,-3.8707,-3.8707,-3.8707,-3.8707,-3.8707,-3.8707,-3.8707,-3.8707,-3.8707,-3.8707,-3.8707,-3.8707,-3.8707,-3.8707,-3.8707,-3.8707,-3.8707,-3.8707,-5.1144,-5.1905,-5.2434,-5.18,-5.2732,-5.3603,-5.2862,-5.2326,-5.1883,-5.1484,-5.1406,-5.1269,-5.082,-5.1113,-5.1523,-5.1933,-5.2383,-5.2926,-5.3604,-5.3008,-5.2726,-5.3326,-5.2632,-5.1722,-5.0748,-4.9892,-4.9029,-4.8125,-4.7347,-4.6758,-4.6364,-4.6119,-4.5816,-4.5404,-4.5522,-4.5371,-4.4902,-4.4902,-4.5137,-4.5586,-4.5195,-4.4746,-4.4277,-4.3398,-4.3008,-4.2969,0.0,-4.2344,-4.2324,-4.1914,-4.1758,-4.1719,-4.1348,-4.1191,-4.1191,-4.1191,-4.1191,-4.1191,-4.1128,-4.1023,-4.0899,-4.0799,-4.0682,-4.0589,-4.0527,-4.0496,-4.0496,-4.0496,-4.0496,-4.0496,-4.0496,-4.0496,-4.0496,-4.0496,-4.0496,-4.0496,-4.0496,-4.0496,-4.0496,-4.0496,-4.0496,-4.0496,-4.0496,-4.0496,-4.0496,-4.0496,-4.0389,-4.0258,-4.012,-3.9668,-3.9289,-3.9125,-3.8855,-3.8707,-3.8707,-3.8707,-3.8707,-3.8707,-3.8707,-3.8707,-3.8707,-3.8707,-3.8707,-3.8707,-3.8707,-3.8707,-3.8707,-3.8707,-3.8707,-3.8707,-3.8707,-3.8707,-5.0933,-5.1433,-5.1925,-5.2066,-5.3048,-5.3924,-5.3826,-5.2972,-5.2112,-5.1776,-5.1699,-5.1445,-5.0625,-5.1152,-5.1699,-5.1699,-5.2266,-5.2732,-5.2843,-5.2505,-5.2267,-5.2332,-5.1917,-5.1076,-4.9741,-4.9137,-4.8295,-4.7009,-4.6721,-4.626,-4.5496,-4.5531,-4.523,-4.4501,-4.4595,-4.4354,-4.3711,-4.3691,-4.4043,-4.4687,-4.4492,-4.4043,-4.3379,-4.2519,-4.2129,-4.207,-4.1465,-4.1191,-4.1191,-4.1191,-4.1191,-4.1191,-4.1191,-4.1191,-4.1191,-4.1191,-4.1191,-4.1191,-4.1191,-4.1105,-4.0988,-4.0877,-4.0781,-4.0674,-4.0588,-4.0515,-4.0496,-4.0496,-4.0496,-4.0496,-4.0496,-4.0496,-4.0496,-4.0496,-4.0496,-4.0496,-4.0496,-4.0496,-4.0496,-4.0496,-4.0496,-4.0496,-4.0496,-4.0496,-4.0496,-4.0496,-4.0496,-4.0397,-4.0129,-3.9808,-3.9462,-3.9139,-3.8855,-3.8707,-3.8707,-3.8707,-3.8707,-3.8707,-3.8707,-3.8707,-3.8707,-3.8707,-3.8707,-3.8707,-3.8707,-3.8707,-3.8707,-3.8707,-3.8707,-3.8707,-3.8707,-3.8707,-5.1606,-5.1865,-5.1925,-5.207,-5.1644,-5.1645,-5.3403,-5.255,-5.1615,-5.2441,-5.2617,-5.2344,-5.1465,-5.2012,-5.2617,-5.2617,-5.2656,-5.2988,-5.3789,-5.25,-5.1733,-5.2413,-5.1093,-5.0007,-4.9646,-4.8138,-4.7102,-4.6903,-4.6144,-4.5325,-4.4457,-4.4522,-4.4264,-4.3514,-4.3626,-4.3696,-4.3691,-4.3691,-4.373,-4.3789,-4.2969,-4.2558,-4.2461,-4.166,-4.1289,-4.1289,-4.123,-4.1191,-4.1191,-4.1191,-4.1191,-4.1191,-4.1191,-4.1191,-4.1191,-4.1191,-4.1191,-4.1191,-4.1191,-4.1105,-4.0994,-4.0992,-4.0867,-4.0697,-4.0686,-4.0596,-4.0496,-4.0496,-4.0496,-4.0496,-4.0496,-4.0496,-4.0496,-4.0496,-4.0496,-4.0496,-4.0496,-4.0496,-4.0496,-4.0496,-4.0496,-4.0496,-4.0496,-4.0496,-4.0496,-4.0496,-4.0496,-4.0397,-4.0129,-3.9808,-3.9462,-3.9139,-3.8855,-3.8707,-3.8707,-3.8707,-3.8707,-3.8707,-3.8707,-3.8707,-3.8707,-3.8707,-3.8707,-3.8707,-3.8707,-3.8707,-3.8707,-3.8707,-3.8707,-3.8707,-3.8707,-3.8707,-5.026,-5.0356,-5.0491,-5.1085,-5.0653,-5.0597,-5.2545,-5.2913,-5.2975,-5.3417,-5.3086,-5.2422,-5.1562,-5.2109,-5.2519,-5.1973,-5.2344,-5.2637,-5.2402,-5.1387,-5.0761,-5.1049,-4.9954,-4.8916,-4.8185,-4.7443,-4.6757,-4.6142,-4.5787,-4.5229,-4.4355,-4.4423,-4.3891,-4.2565,-4.2619,-4.2456,-4.2035,-4.2017,-4.2064,-4.2148,-4.2324,-4.2148,-4.1641,-4.1348,-4.1191,-4.1191,-4.1191,-4.1191,-4.1191,-4.1191,-4.1191,-4.1191,-4.1191,-4.1191,-4.1191,-4.1191,-4.1191,-4.1191,-4.1191,-4.1171,-4.1105,-4.1025,-4.0893,-4.0757,-4.0707,-4.0603,-4.0496,-4.0496,-4.0496,-4.0496,-4.0496,-4.0496,-4.0496,-4.0496,-4.0496,-4.0496,-4.0496,-4.0496,-4.0496,-4.0496,-4.0496,-4.0496,-4.0496,-4.0496,-4.0496,-4.0496,-4.0496,-4.0397,-4.0129,-3.9808,-3.9462,-3.9139,-3.8855,-3.8707,-3.8707,-3.8707,-3.8707,-3.8707,-3.8707,-3.8707,-3.8707,-3.8707,-3.8707,-3.8707,-3.8707,-3.8707,-3.8707,-3.8707,-3.8707,-3.8707,-3.8707,-3.8707,-4.9471,-4.9394,-4.9548,-5.0199,-4.9969,-5.0099,-5.1998,-5.2955,-5.3522,-5.3925,-5.3301,-5.2422,-5.1562,-5.1894,-5.209,-5.1504,-5.1894,-5.1992,-5.1133,-5.0547,-5.0098,-4.9824,-4.8937,-4.8064,-4.7329,-4.6664,-4.5996,-4.5306,-4.4974,-4.4432,-4.3566,-4.3593,-4.3015,-4.1621,-4.1635,-4.1428,-4.0947,-4.0988,-4.1051,-4.1148,-4.1738,-4.1738,-4.1191,-4.1191,-4.1191,-4.1191,-4.1191,-4.1191,-4.1191,-4.1191,-4.1191,-4.1191,-4.1191,-4.1191,-4.1191,-4.1191,-4.1191,-4.1191,-4.1191,-4.1191,-4.1172,-4.1083,-4.093,-4.0785,-4.0757,-4.063,-4.0496,-4.0496,-4.0496,-4.0496,-4.0496,-4.0496,-4.0496,-4.0496,-4.0496,-4.0496,-4.0496,-4.0496,-4.0496,-4.0496,-4.0496,-4.0496,-4.0496,-4.0496,-4.0496,-4.0496,-4.0496,-4.0397,-4.0129,-3.9901,-3.9587,-3.9152,-3.8952,-3.8788,-3.8707,-3.8707,-3.8707,-3.8707,-3.8707,-3.8707,-3.8707,-3.8707,-3.8707,-3.8707,-3.8707,-3.8707,-3.8707,-3.8707,-3.8707,-3.8707,-3.8707,-3.8707,-4.9606,-4.9375,-4.9412,-4.9556,-4.9604,-5.0086,-5.1889,-5.2453,-5.2885,-5.3808,-5.3301,-5.2422,-5.1562,-5.1406,-5.1406,-5.1387,-5.1387,-5.1113,-5.0293,-5.0176,-4.9844,-4.8984,-4.8125,-4.7536,-4.7385,-4.5754,-4.4632,-4.4498,-4.3636,-4.272,-4.1846,-4.1788,-4.1458,-4.073,-4.0697,-4.0731,-4.0797,-4.0925,-4.0994,-4.0996,-4.1129,-4.1191,-4.1191,-4.1191,-4.1191,-4.1191,-4.1191,-4.1191,-4.1191,-4.1191,-4.1191,-4.1191,-4.1191,-4.1191,-4.1191,-4.1191,-4.1191,-4.1191,-4.1191,-4.1191,-4.1191,-4.1191,-4.1023,-4.0801,-4.0797,-4.0663,-4.0496,-4.0496,-4.0496,-4.0496,-4.0496,-4.0496,-4.0496,-4.0496,-4.0496,-4.0496,-4.0496,-4.0496,-4.0496,-4.0496,-4.0496,-4.0496,-4.0496,-4.0496,-4.0496,-4.0496,-4.0496,-4.0397,-4.0129,-4.0101,-3.9829,-3.9192,-3.9093,-3.8999,-3.8719,-3.8707,-3.8707,-3.8707,-3.8707,-3.8707,-3.8707,-3.8707,-3.8707,-3.8707,-3.8707,-3.8707,-3.8707,-3.8707,-3.8707,-3.8707,-3.8707,-3.8707,-4.7875,-4.7644,-4.7797,-4.8398,-4.9544,-5.0807,-5.1902,-5.2829,-5.3545,-5.3925,-5.3301,-5.2422,-5.1562,-5.1406,-5.1211,-5.0644,-5.0566,-5.0254,-4.9414,-4.8769,-4.8281,-4.8027,-4.7226,-4.6384,-4.5644,-4.5097,-4.4437,-4.364,-4.3337,-4.277,-4.1854,-4.1788,-4.1416,-4.0598,-4.0559,-4.061,-4.0726,-4.0767,-4.0812,-4.0864,-4.0994,-4.1105,-4.1191,-4.1191,-4.1191,-4.1191,-4.1191,-4.1191,-4.1191,-4.1191,-4.1191,-4.1191,-4.1191,-4.1191,-4.1191,-4.1191,-4.1191,-4.1191,-4.1191,-4.1191,-4.1191,-4.1191,-4.108,-4.092,-4.082,-4.0727,-4.0623,-4.0534,-4.0496,-4.0496,-4.0496,-4.0496,-4.0496,-4.0496,-4.0496,-4.0496,-4.0496,-4.0496,-4.0496,-4.0496,-4.0496,-4.0496,-4.0496,-4.0496,-4.0496,-4.0496,-4.0496,-4.0397,-4.0129,-3.9891,-3.9668,-3.9462,-3.9238,-3.9058,-3.8985,-3.8818,-3.8707,-3.8707,-3.8707,-3.8707,-3.8707,-3.8707,-3.8707,-3.8707,-3.8707,-3.8707,-3.8707,-3.8707,-3.8707,-3.8707,-3.8707,-3.8707,-4.8029,-4.7894,-4.8086,-4.8933,-4.9716,-5.0615,-5.1823,-5.2977,-5.3711,-5.3466,-5.3026,-5.2422,-5.1562,-5.1133,-5.0762,-5.0273,-4.9902,-4.9375,-4.8516,-4.793,-4.7344,-4.6641,-4.6094,-4.5409,-4.4459,-4.4032,-4.3538,-4.2892,-4.2446,-4.1964,-4.1398,-4.1316,-4.1046,-4.0516,-4.0496,-4.053,-4.0623,-4.0667,-4.0724,-4.0752,-4.088,-4.0992,-4.1126,-4.1171,-4.1191,-4.1191,-4.1191,-4.1191,-4.1191,-4.1191,-4.1191,-4.1191,-4.1191,-4.1191,-4.1191,-4.1191,-4.1191,-4.1191,-4.1191,-4.1191,-4.1191,-4.1191,-4.1105,-4.0966,-4.085,-4.0752,-4.0667,-4.053,-4.0496,-4.0496,-4.0496,-4.0496,-4.0496,-4.0496,-4.0496,-4.0496,-4.0496,-4.0496,-4.0496,-4.0496,-4.0496,-4.0496,-4.0496,-4.0496,-4.0496,-4.0496,-4.0496,-4.0449,-4.0286,-4.0082,-3.9924,-3.9808,-3.9622,-3.9438,-3.9302,-3.9031,-3.8855,-3.8855,-3.8762,-3.8707,-3.8707,-3.8707,-3.8707,-3.8707,-3.8707,-3.8707,-3.8707,-3.8707,-3.8707,-3.8707,-3.8707,-3.8707,-4.9183,-4.9279,-4.9586,-5.0385,-5.0106,-5.0056,-5.1707,-5.2883,-5.3426,-5.2665,-5.2548,-5.2324,-5.1445,-5.0683,-5.0156,-4.998,-4.9297,-4.8476,-4.7598,-4.7402,-4.6777,-4.5195,-4.4922,-4.4531,-4.3672,-4.2801,-4.2272,-4.2188,-4.1278,-4.0715,-4.0697,-4.0581,-4.0496,-4.0496,-4.0496,-4.0496,-4.0496,-4.0623,-4.068,-4.068,-4.0767,-4.0857,-4.099,-4.1126,-4.1191,-4.1191,-4.1191,-4.1191,-4.1191,-4.1191,-4.1191,-4.1191,-4.1191,-4.1191,-4.1191,-4.1191,-4.1191,-4.1191,-4.1191,-4.1191,-4.1191,-4.1191,-4.1105,-4.0966,-4.085,-4.0752,-4.0667,-4.053,-4.0496,-4.0496,-4.0496,-4.0496,-4.0496,-4.0496,-4.0496,-4.0496,-4.0496,-4.0496,-4.0496,-4.0496,-4.0496,-4.0496,-4.0496,-4.0496,-4.0496,-4.0496,-4.0496,-4.0496,-4.0496,-4.0496,-4.0417,-4.0158,-4.011,-3.9982,-3.9668,-3.9327,-3.9152,-3.9152,-3.8898,-3.8735,-3.8735,-3.8704,-3.8707,-3.8707,-3.8707,-3.8707,-3.8707,-3.8707,-3.8707,-3.8707,-3.8707,-3.8707,-4.7605,-4.8394,-4.9452,-4.9625,-5.0529,-5.1462,-5.1847,-5.221,-5.2475,-5.2509,-5.206,-5.1426,-5.0605,-5.0312,-4.9746,-4.8379,-4.8008,-4.7578,-4.6699,-4.5996,-4.543,-4.5039,-4.4394,-4.3633,-4.2754,-4.2499,-4.2063,-4.1332,-4.097,-4.0757,-4.0703,-4.0581,-4.0496,-4.0496,-4.0496,-4.0496,-4.0496,-4.0534,-4.0537,-4.0537,-4.0654,-4.0762,-4.0854,-4.0988,-4.1103,-4.1191,-4.1191,-4.1191,-4.1191,-4.1191,-4.1191,-4.1191,-4.1191,-4.1191,-4.1191,-4.1191,-4.1191,-4.1191,-4.1191,-4.1191,-4.1191,-4.1191,-4.1105,-4.0966,-4.085,-4.0752,-4.0667,-4.053,-4.0496,-4.0496,-4.0496,-4.0496,-4.0496,-4.0496,-4.0496,-4.0496,-4.0496,-4.0496,-4.0496,-4.0496,-4.0496,-4.0496,-4.0496,-4.0496,-4.0496,-4.0496,-4.0496,-4.0496,-4.0496,-4.0496,-4.0481,-4.0414,-4.0242,-4.0071,-4.0002,-3.9698,-3.9486,-3.9486,-3.9192,-3.9008,-3.9008,-3.8818,-3.8707,-3.8707,-3.8707,-3.8707,-3.8707,-3.8707,-3.8707,-3.8707,-3.8707,-3.8707,-4.749,-4.8413,-4.949,-4.9913,-5.0683,-5.1337,-5.1337,-5.1097,-5.0945,-5.1084,-5.0912,-5.057,-5.01,-4.9373,-4.8565,-4.7647,-4.7158,-4.6596,-4.5781,-4.5293,-4.4687,-4.3848,-4.3359,-4.2754,-4.1914,-4.1836,-4.1598,-4.1039,-4.0874,-4.077,-4.0703,-4.0581,-4.0496,-4.0496,-4.0496,-4.0496,-4.0496,-4.0496,-4.0496,-4.0496,-4.0574,-4.067,-4.0805,-4.1017,-4.1129,-4.1191,-4.1191,-4.1191,-4.1191,-4.1191,-4.1191,-4.1191,-4.1191,-4.1191,-4.1191,-4.1191,-4.1191,-4.1191,-4.1191,-4.1191,-4.1191,-4.1191,-4.1105,-4.0966,-4.085,-4.0752,-4.0667,-4.053,-4.0496,-4.0496,-4.0496,-4.0496,-4.0496,-4.0496,-4.0496,-4.0496,-4.0496,-4.0496,-4.0496,-4.0496,-4.0496,-4.0496,-4.0496,-4.0496,-4.0496,-4.0496,-4.0496,-4.0496,-4.0496,-4.0496,-4.0496,-4.0496,-4.0372,-4.0276,-4.0276,-4.0013,-3.9829,-3.9829,-3.951,-3.9327,-3.9327,-3.9054,-3.8829,-3.8707,-3.8707,-3.8707,-3.8707,-3.8707,-3.8707,-3.8707,-3.8707,-3.8707,-4.7268,-4.8298,-4.9452,-5.0625,-5.0808,-5.0712,-5.0712,-5.0115,-4.9567,-4.9567,-4.9654,-4.9663,-4.9394,-4.8256,-4.7267,-4.6974,-4.6328,-4.5607,-4.4861,-4.4628,-4.4003,-4.2578,-4.2285,-4.1933,-4.1269,-4.1191,-4.115,-4.103,-4.088,-4.0779,-4.0724,-4.0575,-4.0496,-4.0496,-4.0496,-4.0496,-4.0496,-4.0496,-4.0496,-4.0496,-4.0508,-4.0623,-4.0805,-4.1054,-4.1171,-4.1191,-4.1191,-4.1191,-4.1191,-4.1191,-4.1191,-4.1191,-4.1191,-4.1191,-4.1191,-4.1191,-4.1191,-4.1191,-4.1191,-4.1191,-4.1191,-4.1191,-4.1083,-4.0933,-4.0824,-4.0738,-4.0649,-4.0523,-4.0496,-4.0496,-4.0496,-4.0496,-4.0496,-4.0496,-4.0496,-4.0496,-4.0496,-4.0496,-4.0496,-4.0496,-4.0496,-4.0496,-4.0496,-4.0496,-4.0496,-4.0496,-4.0496,-4.0496,-4.0496,-4.0496,-4.0496,-4.0496,-4.0496,-4.0496,-4.0496,-4.0304,-4.0167,-4.0167,-3.988,-3.9698,-3.9698,-3.9364,-3.9077,-3.8862,-3.875,-3.8707,-3.8707,-3.8707,-3.8707,-3.8707,-3.8707,-3.8707,-4.4809,-4.6509,-4.8836,-5.1154,-5.1221,-5.0712,-5.0712,-5.0038,-4.9431,-4.9431,-4.9039,-4.8463,-4.7683,-4.736,-4.675,-4.5309,-4.4959,-4.464,-4.3892,-4.3136,-4.2601,-4.2422,-4.1777,-4.1328,-4.1211,-4.1191,-4.1191,-4.1171,-4.095,-4.0793,-4.0796,-4.0604,-4.0496,-4.0496,-4.0496,-4.0496,-4.0496,-4.0496,-4.0496,-4.0496,-4.0616,-4.0721,-4.0801,-4.0957,-4.1082,-4.1191,-4.1191,-4.1191,-4.1191,-4.1191,-4.1191,-4.1191,-4.1191,-4.1191,-4.1191,-4.1191,-4.1191,-4.1191,-4.1191,-4.1191,-4.1191,-4.1191,-4.1026,-4.0816,-4.0801,-4.0674,-4.0527,-4.0504,-4.0496,-4.0496,-4.0496,-4.0496,-4.0496,-4.0496,-4.0496,-4.0496,-4.0496,-4.0496,-4.0496,-4.0496,-4.0496,-4.0496,-4.0496,-4.0496,-4.0496,-4.0496,-4.0496,-4.0496,-4.0496,-4.0496,-4.0496,-4.0496,-4.0496,-4.0496,-4.0496,-4.0473,-4.0449,-4.0449,-4.0195,-4.0022,-4.0022,-3.9701,-3.9517,-3.9481,-3.897,-3.8707,-3.8707,-3.8707,-3.8707,-3.8707,-3.8707,-3.8707,-4.4798,-4.6201,-4.7932,-4.999,-5.0221,-4.9971,-4.9971,-4.9298,-4.8548,-4.8086,-4.7391,-4.6906,-4.7008,-4.6299,-4.5451,-4.4708,-4.4189,-4.3593,-4.2864,-4.2481,-4.2137,-4.1665,-4.1365,-4.1191,-4.1191,-4.1191,-4.1171,-4.1083,-4.0911,-4.0773,-4.0742,-4.0584,-4.0496,-4.0496,-4.0496,-4.0496,-4.0496,-4.0496,-4.0496,-4.0496,-4.0559,-4.0629,-4.0742,-4.0839,-4.0996,-4.1191,-4.1191,-4.1191,-4.1191,-4.1191,-4.1191,-4.1191,-4.1191,-4.1191,-4.1191,-4.1191,-4.1191,-4.1191,-4.1191,-4.1191,-4.1191,-4.1191,-4.1077,-4.0905,-4.0816,-4.0717,-4.0589,-4.0527,-4.0496,-4.0496,-4.0496,-4.0496,-4.0496,-4.0496,-4.0496,-4.0496,-4.0496,-4.0496,-4.0496,-4.0496,-4.0496,-4.0496,-4.0496,-4.0496,-4.0496,-4.0496,-4.0496,-4.0496,-4.0496,-4.0496,-4.0496,-4.0496,-4.0496,-4.0496,-4.0496,-4.0496,-4.0496,-4.0496,-4.0389,-4.033,-4.033,-4.0033,-3.988,-3.988,-3.9249,-3.8919,-3.8919,-3.8777,-3.8707,-3.8707,-3.8707,-3.8707,-4.4554,-4.561,-4.6644,-4.8336,-4.9086,-4.9336,-4.9125,-4.8567,-4.7875,-4.7058,-4.6201,-4.5729,-4.6163,-4.5256,-4.4381,-4.4188,-4.3414,-4.2582,-4.1854,-4.1824,-4.1658,-4.103,-4.1076,-4.115,-4.115,-4.1171,-4.1151,-4.1055,-4.0922,-4.0813,-4.0726,-4.061,-4.0549,-4.0496,-4.0496,-4.0496,-4.0496,-4.0496,-4.0496,-4.0496,-4.0496,-4.0574,-4.0703,-4.0766,-4.0922,-4.115,-4.1191,-4.1191,-4.1191,-4.1191,-4.1191,-4.1191,-4.1191,-4.1191,-4.1191,-4.1191,-4.1191,-4.1191,-4.1191,-4.1191,-4.1191,-4.1191,-4.1105,-4.0966,-4.085,-4.0752,-4.0667,-4.053,-4.0496,-4.0496,-4.0496,-4.0496,-4.0496,-4.0496,-4.0496,-4.0496,-4.0496,-4.0496,-4.0496,-4.0496,-4.0496,-4.0496,-4.0496,-4.0496,-4.0496,-4.0496,-4.0496,-4.0496,-4.0496,-4.0496,-4.0496,-4.0496,-4.0496,-4.0496,-4.0496,-4.0496,-4.0496,-4.0496,-4.0496,-4.0496,-4.0496,-4.0313,-4.0167,-4.0101,-3.9529,-3.9192,-3.9112,-3.8894,-3.8777,-3.8707,-3.8707,-3.8707,-4.2866,-4.3863,-4.4855,-4.6605,-4.8221,-4.9183,-4.8355,-4.8125,-4.7875,-4.7058,-4.6201,-4.5364,-4.4586,-4.4363,-4.4064,-4.3294,-4.2447,-4.1631,-4.0885,-4.0779,-4.0795,-4.0813,-4.0922,-4.1019,-4.1019,-4.1127,-4.1191,-4.1191,-4.1076,-4.0925,-4.0797,-4.0731,-4.0636,-4.0504,-4.0496,-4.0496,-4.0496,-4.0496,-4.0496,-4.0496,-4.0496,-4.0574,-4.0703,-4.0766,-4.0874,-4.1021,-4.1149,-4.1191,-4.1191,-4.1191,-4.1191,-4.1191,-4.1191,-4.1191,-4.1191,-4.1191,-4.1191,-4.1191,-4.1191,-4.1191,-4.1191,-4.1191,-4.1105,-4.0966,-4.085,-4.0752,-4.0667,-4.053,-4.0496,-4.0496,-4.0496,-4.0496,-4.0496,-4.0496,-4.0496,-4.0496,-4.0496,-4.0496,-4.0496,-4.0496,-4.0496,-4.0496,-4.0496,-4.0496,-4.0496,-4.0496,-4.0496,-4.0496,-4.0496,-4.0496,-4.0496,-4.0496,-4.0496,-4.0496,-4.0496,-4.0496,-4.0496,-4.0496,-4.0496,-4.0496,-4.0496,-4.0489,-4.0356,-4.0101,-3.9754,-3.9414,-3.9112,-3.9085,-3.8947,-3.8707,-3.8707,-3.8707,-4.2139,-4.2621,-4.3202,-4.4831,-4.6105,-4.6883,-4.6567,-4.6932,-4.7086,-4.624,-4.5374,-4.4662,-4.4355,-4.3874,-4.3258,-4.2412,-4.1527,-4.0866,-4.0605,-4.0655,-4.0721,-4.0731,-4.0887,-4.0996,-4.0996,-4.1126,-4.1191,-4.1191,-4.1078,-4.095,-4.0805,-4.0742,-4.0643,-4.0504,-4.0496,-4.0496,-4.0496,-4.0496,-4.0496,-4.0496,-4.0496,-4.0534,-4.0588,-4.0728,-4.0839,-4.0877,-4.1104,-4.1191,-4.1191,-4.1191,-4.1191,-4.1191,-4.1191,-4.1191,-4.1191,-4.1191,-4.1191,-4.1191,-4.1191,-4.1191,-4.1191,-4.1191,-4.1171,-4.1104,-4.0964,-4.0843,-4.0747,-4.0642,-4.0574,-4.0496,-4.0496,-4.0496,-4.0496,-4.0496,-4.0496,-4.0496,-4.0496,-4.0496,-4.0496,-4.0496,-4.0496,-4.0496,-4.0496,-4.0496,-4.0496,-4.0496,-4.0496,-4.0496,-4.0496,-4.0496,-4.0496,-4.0496,-4.0496,-4.0496,-4.0496,-4.0496,-4.0496,-4.0496,-4.0496,-4.0496,-4.0496,-4.0496,-4.0457,-4.0356,-4.0239,-3.9823,-3.9112,-3.8937,-3.8788,-3.8707,-3.8707,-3.8707,-4.1539,-4.1849,-4.234,-4.3619,-4.4596,-4.5216,-4.5161,-4.5605,-4.5797,-4.4932,-4.4297,-4.3816,-4.3508,-4.3028,-4.247,-4.1885,-4.1066,-4.0496,-4.0496,-4.0588,-4.0636,-4.0636,-4.0816,-4.0925,-4.0925,-4.1083,-4.1191,-4.1191,-4.1126,-4.0992,-4.0805,-4.0762,-4.0666,-4.0504,-4.0496,-4.0496,-4.0496,-4.0496,-4.0496,-4.0496,-4.0496,-4.0496,-4.0504,-4.0679,-4.0784,-4.0809,-4.1048,-4.1151,-4.1191,-4.1191,-4.1191,-4.1191,-4.1191,-4.1191,-4.1191,-4.1191,-4.1191,-4.1191,-4.1191,-4.1191,-4.1191,-4.1191,-4.1191,-4.1171,-4.1049,-4.0911,-4.0796,-4.0724,-4.0603,-4.0496,-4.0496,-4.0496,-4.0496,-4.0496,-4.0496,-4.0496,-4.0496,-4.0496,-4.0496,-4.0496,-4.0496,-4.0496,-4.0496,-4.0496,-4.0496,-4.0496,-4.0496,-4.0496,-4.0496,-4.0496,-4.0496,-4.0496,-4.0496,-4.0496,-4.0496,-4.0496,-4.0496,-4.0496,-4.0496,-4.0496,-4.0496,-4.0496,-4.0465,-4.0364,-4.0364,-4.0004,-3.9264,-3.91,-3.8773,-3.8303,-3.8303,-3.8303,0.0,0.0,0.0,-4.2954,-4.3783,-4.44,-4.427,-4.4239,-4.4047,-4.3258,-4.3085,-4.2797,-4.1962,-4.1769,-4.175,-4.175,-4.1046,-4.0496,-4.0496,-4.0496,-4.0496,-4.0496,-4.0685,-4.0793,-4.0797,-4.1049,-4.1191,-4.1191,-4.1191,-4.1081,-4.0813,-4.0797,-4.0703,-4.0512,-4.0477,-4.0458,-4.0458,-4.0458,-4.0458,-4.0458,-4.0496,-4.0496,-4.0504,-4.063,-4.0727,-4.0766,-4.0933,-4.108,-4.1152,-4.1191,-4.1191,-4.1191,-4.1191,-4.1191,-4.1191,-4.1191,-4.1191,-4.1191,-4.1191,-4.1191,-4.1191,-4.1191,-4.1191,-4.1171,-4.1051,-4.0911,-4.0796,-4.0729,-4.0603,-4.0496,-4.0496,-4.0496,-4.0496,-4.0496,-4.0496,-4.0496,-4.0496,-4.0496,-4.0496,-4.0496,-4.0496,-4.0496,-4.0496,-4.0496,-4.0496,-4.0496,-4.0496,-4.0496,-4.0496,-4.0496,-4.0496,-4.0496,-4.0496,-4.0496,-4.0496,-4.0496,-4.0496,-4.0496,-4.0496,-4.0496,-4.0496,-4.0496,-4.0372,-4.012,-4.011,-3.9943,-3.9611,-3.9592,-3.8871,-3.7559,-3.7559,-3.7559,-4.1025,0.0,0.0,0.0,0.0,0.0,-4.251,-4.2989,-4.3374,-4.3143,-4.2604,-4.2085,-4.1846,-4.1277,-4.0854,-4.0854,-4.0669,-4.0496,-4.0496,-4.0496,-4.0496,-4.0496,-4.0623,-4.0742,-4.0789,-4.0957,-4.1102,-4.1191,-4.1191,-4.1127,-4.0955,-4.0803,-4.0654,-4.0504,-3.9938,-3.9631,-3.9631,-3.9631,-3.9631,-3.965,-4.0227,-4.0496,-4.0504,-4.069,-4.0457,-3.9984,-4.0797,-4.0819,-4.0312,-4.0937,-4.1191,-4.1191,-4.1191,-4.1191,-4.1191,-4.1191,-4.1191,-4.1191,-4.1191,-4.1191,-4.1191,-4.1191,-4.1191,-4.1191,-4.115,-4.0988,-4.0793,-4.0779,-4.0641,-4.0496,-4.0496,-4.0496,-4.0496,-4.0496,-4.0496,-4.0496,-4.0496,-4.0496,-4.0496,-4.0496,-4.0496,-4.0496,-4.0496,-4.0496,-4.0496,-4.0496,-4.0496,-4.0496,-4.0496,-4.0496,-4.0496,-4.0496,-4.0496,-4.0496,-4.0496,-4.0496,-4.0496,-4.0496,-4.0496,-4.0496,-4.0496,-4.0496,-4.0465,-4.0389,-4.0389,-4.025,-3.9953,-3.9085,-3.8778,-3.9027,-3.9027,-3.8887,-4.1104,-4.1081,-4.1124,-4.1319,0.0,0.0,-4.1854,-4.2026,-4.2112,-4.2112,-4.1687,-4.1311,-4.1274,-4.0835,-4.0496,-4.0496,-4.0496,-4.0496,-4.0496,-4.0496,-4.0496,-4.0496,-4.0616,-4.074,-4.0789,-4.092,-4.1054,-4.1191,-4.1191,-4.1126,-4.0922,-4.0437,-4.0108,-4.0004,-3.9188,-3.8757,-3.8757,-3.8757,-3.8757,-3.8757,-3.9611,-3.9804,-3.9465,-3.9985,-3.9794,-3.9089,-3.9754,-3.9782,-3.9394,-3.9902,-4.0547,-4.1191,-4.1191,-4.1191,-4.1191,-4.1191,-4.1191,-4.1191,-4.1191,-4.1191,-4.1191,-4.1191,-4.1191,-4.1191,-4.1191,-4.1,-4.0797,-4.0797,-4.0651,-4.0496,-4.0496,-4.0496,-4.0496,-4.0496,-4.0496,-4.0496,-4.0496,-4.0496,-4.0496,-4.0496,-4.0496,-4.0496,-4.0496,-4.0496,-4.0496,-4.0496,-4.0496,-4.0496,-4.0496,-4.0496,-4.0496,-4.0496,-4.0496,-4.0362,-4.0035,-3.9996,-3.9996,-3.9996,-3.9996,-4.015,-4.0496,-4.0496,-4.0496,-4.0496,-4.0496,-4.026,-3.978,-3.9287,-3.9069,-3.9101,-3.9101,-3.8978,-4.1211,-4.1191,-4.1346,-4.1999,-4.1476,0.0,-4.1773,-4.1295,-4.0692,-4.0674,-4.0674,-4.0649,-4.0527,-4.0496,-4.0496,-4.0496,-4.0496,-4.0496,-4.0496,-4.0496,-4.0496,-4.0496,-4.0603,-4.0704,-4.0785,-4.0911,-4.1049,-4.1191,-4.1191,-4.1042,-4.0696,-3.9874,-3.934,-3.9157,-3.8315,-3.7853,-3.7853,-3.795,-3.795,-3.7873,-3.8834,-3.8834,-3.8034,-3.8871,-3.8859,-3.814,-3.8329,-3.8419,-3.8457,-3.8555,-3.9512,-4.0918,-4.0918,-4.0976,-4.1055,-4.1055,-4.1113,-4.1191,-4.1191,-4.1191,-4.1191,-4.1191,-4.1191,-4.1191,-4.1191,-4.1023,-4.0813,-4.0809,-4.0659,-4.0496,-4.0496,-4.0496,-4.0496,-4.0496,-4.0496,-4.0496,-4.0496,-4.0496,-4.0496,-4.0496,-4.0496,-4.0496,-4.0496,-4.0496,-4.0496,-4.0496,-4.0496,-4.0496,-4.0496,-4.0496,-4.0496,-4.0496,-4.0496,-4.0208,-3.9496,-3.9438,-3.9438,-3.9438,-3.9438,-3.9746,-4.0477,-4.0496,-4.0496,-4.0496,-4.0496,-4.015,-3.9438,-3.9905,-3.9575,-3.8493,-3.8588,-3.8623,-4.1387,-4.1191,-4.121,-4.1241,-4.1105,0.0,-4.097,-4.0837,-4.0661,-4.0566,-4.053,-4.0523,-4.0504,-4.0496,-4.0496,-4.0496,-4.0496,-4.0496,-4.0496,-4.0496,-4.0496,-4.0496,-4.0527,-4.0604,-4.0781,-4.0816,-4.095,-4.1171,-4.1191,-4.0808,-3.9889,-3.9661,-3.916,-3.8291,-3.7411,-3.6942,-3.6942,-3.7642,-3.7642,-3.6962,-3.8546,-3.8834,-3.8015,-3.8297,-3.797,-3.723,-3.8043,-3.8056,-3.7538,-3.8299,-3.8809,-3.9101,-3.9101,-3.9531,-4.0156,-4.0156,-4.0605,-4.1191,-4.1191,-4.1191,-4.1191,-4.1191,-4.1191,-4.1191,-4.1191,-4.1082,-4.0936,-4.0767,-4.061,-4.0496,-4.0496,-4.0496,-4.0496,-4.0496,-4.0496,-4.0496,-4.0496,-4.0496,-4.0496,-4.0496,-4.0496,-4.0496,-4.0496,-4.0496,-4.0496,-4.0496,-4.0496,-4.0496,-4.0496,-4.0496,-4.0496,-4.0496,-4.0496,-4.0439,-4.0285,-4.0265,-4.0265,-4.0265,-4.0265,-4.0342,-4.0496,-4.0496,-4.0496,-4.0496,-4.0496,-4.0419,-4.0265,-4.0372,-3.9967,-3.9139,-3.9799,-3.9964,-4.1426,-4.1191,-4.1172,-4.1126,-4.1052,0.0,0.0,-4.0893,-4.0824,-4.0767,-4.0696,-4.0641,-4.061,-4.0545,-4.0496,-4.0496,-4.0496,-4.0496,-4.0496,-4.0496,-4.0496,-4.0496,-4.0496,-4.0584,-4.0777,-4.0797,-4.0914,-4.1171,-4.1191,-4.073,-3.9659,-3.9181,-3.8452,-3.7387,-3.6538,-3.6288,-3.6692,-3.6731,-3.6731,-3.6712,-3.7584,-3.7565,-3.6757,-3.7305,-3.7082,-3.6279,-3.6885,-3.6918,-3.659,-3.7107,-3.7305,-3.7383,-3.8262,-3.9121,-3.9902,-3.9902,-4.0449,-4.1191,-4.1191,-4.1191,-4.1191,-4.1191,-4.1191,-4.1191,-4.1191,-4.1104,-4.0952,-4.0761,-4.0642,-4.0575,-4.0519,-4.0496,-4.0496,-4.0496,-4.0496,-4.0496,-4.0496,-4.0496,-4.0381,-3.9977,-3.99,-4.0035,-4.0439,-4.0496,-4.0496,-4.0496,-4.0496,-4.0496,-4.0496,-4.0496,-4.0496,-4.0496,-4.0496,-4.0342,-3.9938,-3.99,-3.99,-3.99,-3.99,-4.0073,-4.0477,-4.0496,-4.0496,-4.0496,-4.0496,-4.0496,-4.0496,-4.0496,-4.0285,-3.9919,-4.0304,-4.0441,-4.1465,-4.1191,-4.1191,-4.1191,-4.1126,-4.1055,0.0,0.0,0.0,-4.0962,-4.0874,-4.0784,-4.0707,-4.061,-4.0542,-4.0504,-4.0496,-4.0458,-4.0285,-4.0265,-4.0323,-4.0477,-4.0496,-4.0584,-4.0777,-4.0698,-4.0786,-4.1172,-4.1035,-4.0477,-3.9406,-3.8679,-3.7743,-3.6514,-3.5981,-3.5962,-3.6462,-3.6135,-3.6154,-3.6462,-3.6635,-3.6269,-3.5526,-3.6284,-3.6245,-3.5585,-3.5788,-3.5869,-3.5873,-3.5953,-3.5996,-3.6133,-3.7559,-3.873,-3.9648,-3.9648,-4.0195,-4.0957,-4.0957,-4.084,-4.0723,-4.0898,-4.1055,-4.1191,-4.1191,-4.1104,-4.0955,-4.0777,-4.0701,-4.0661,-4.053,-4.0496,-4.0496,-4.0496,-4.0496,-4.0458,-4.0304,-4.04,-4.0265,-3.9457,-3.9438,-3.9631,-3.9958,-4.0169,-4.0265,-4.0265,-4.04,-4.0496,-4.0496,-4.0496,-4.0496,-4.0496,-4.0496,-4.0246,-3.9592,-3.9534,-3.9534,-3.9534,-3.9534,-3.9823,-4.0477,-4.0496,-4.0496,-4.0496,-4.0496,-4.0496,-4.0496,-4.0496,-4.0496,-4.0496,-4.0496,-4.0496,-4.1621,-4.1191,-4.1191,-4.1191,-4.1191,-4.115,-4.1051,0.0,-4.0962,-4.0854,0.0,-4.0784,-4.0707,0.0,0.0,-4.0527,-4.0496,-4.0246,-3.9534,-3.9438,-3.9708,-4.0419,-4.0496,-4.0584,-4.0777,-4.0317,-4.0331,-4.1133,-4.0488,-3.9579,-3.8494,-3.8351,-3.7471,-3.5687,-3.6231,-3.6269,-3.5635,-3.7026,-3.7026,-3.5635,-3.6365,-3.6269,-3.55,-3.5617,-3.5611,-3.5515,-3.565,-3.572,-3.5732,-3.5928,-3.5996,-3.6016,-3.6211,-3.7305,-3.875,-3.875,-3.9297,-4.0059,-4.0059,-3.9531,-3.9023,-3.9805,-4.0566,-4.1191,-4.1191,-4.1104,-4.0962,-4.0832,-4.0762,-4.0661,-4.053,-4.0496,-4.0496,-4.0496,-4.0496,-4.0304,-3.9592,-3.9996,-4.0265,-3.9457,-3.9881,-3.9919,-3.8527,-3.8911,-3.9438,-3.9438,-4.0035,-4.0496,-4.0496,-4.0496,-4.0496,-4.0496,-4.0496,-4.0458,-4.0362,-4.0362,-4.0362,-4.0362,-4.0362,-4.04,-4.0496,-4.0496,-4.0496,-4.0496,-4.0496,-4.0496,-4.0496,-4.0496,-4.0496,-4.0496,-4.0496,-4.0496,-4.1523,-4.1191,-4.1191,-4.1191,-4.1191,-4.1191,-4.1128,-4.1126,-4.1103,-4.1031,0.0,0.0,0.0,0.0,0.0,0.0,-4.0198,-3.974,-3.9357,-3.8854,-3.8854,-3.9708,-3.9804,-3.9889,-4.0073,-3.9976,-4.0059,-4.043,-4.0117,-3.9663,-3.9141,-3.8591,-3.77,-3.6352,-3.61,-3.6077,-3.6192,-3.6423,-3.6423,-3.6192,-3.6077,-3.5827,-3.55,-3.55,-3.55,-3.5501,-3.5633,-3.5707,-3.572,-3.5927,-3.5996,-3.5996,-3.5996,-3.6758,-3.7851,-3.7851,-3.8398,-3.9141,-3.9141,-3.8906,-3.873,-3.9629,-4.0156,-4.0547,-4.1055,-4.1151,-4.1077,-4.086,-4.0784,-4.0717,-4.054,-4.0496,-4.0381,-3.9919,-3.9804,-3.9573,-3.8719,-3.9207,-3.9554,-3.87,-3.9227,-3.9419,-3.82,-3.9104,-3.9996,-3.9996,-4.0285,-4.0496,-4.0496,-4.0496,-4.0496,-4.0496,-4.0496,-4.0496,-4.0496,-4.0496,-4.0496,-4.0496,-4.0496,-4.0496,-4.0496,-4.0496,-4.0496,-4.0496,-4.0496,-4.0496,-4.0496,-4.0496,-4.0496,-4.0496,-4.0496,-4.0496,-4.1426,-4.1191,-4.1191,-4.1191,-4.1191,-4.1191,-4.1191,-4.1191,-4.1191,-4.1191,-4.1126,0.0,0.0,0.0,-4.0828,-4.0742,0.0,-3.9434,-3.9393,-3.8428,-3.8119,-3.9176,-3.9352,-3.9458,-3.9609,-3.9357,-3.9394,-3.9863,-3.9687,-3.9585,-3.9676,-3.8792,-3.7957,-3.7218,-3.6312,-3.6115,-3.6692,-3.6115,-3.6,-3.6365,-3.5788,-3.55,-3.55,-3.55,-3.55,-3.5501,-3.5633,-3.5707,-3.572,-3.5927,-3.5996,-3.5996,-3.5996,-3.6387,-3.6973,-3.7207,-3.7695,-3.8242,-3.8242,-3.8242,-3.8359,-3.8984,-3.9512,-3.9961,-4.0371,-4.0644,-4.0759,-4.0273,-4.0133,-4.0147,-4.0198,-4.0198,-4.0056,-3.9446,-3.9304,-3.9073,-3.818,-3.8681,-3.9111,-3.8469,-3.9053,-3.9438,-3.8796,-3.9515,-4.0169,-4.0169,-4.0362,-4.0496,-4.0496,-4.0496,-4.0496,-4.0496,-4.0496,-4.0496,-4.0496,-4.0496,-4.0496,-4.0496,-4.0496,-4.0496,-4.0496,-4.0496,-4.0496,-4.0496,-4.0496,-4.0496,-4.0496,-4.0285,-4.0169,-4.0189,-4.04,-4.0381,-4.1426,-4.1191,-4.1191,-4.1191,-4.1191,-4.1191,-4.1191,-4.1191,-4.1191,-4.1191,-4.1191,-4.115,-4.1025,-4.0994,-4.0955,-4.0809,-4.0128,0.0,0.0,-3.8105,-3.7608,-3.9109,-3.9467,-3.9617,-3.9696,-3.8293,-3.8086,-3.9766,-3.9121,-3.8914,-3.9565,-3.8779,-3.8209,-3.7971,-3.7123,-3.6673,-3.6692,-3.6673,-3.6269,-3.5538,-3.5519,-3.55,-3.55,-3.55,-3.55,-3.5501,-3.5633,-3.5707,-3.572,-3.5927,-3.5996,-3.5996,-3.5996,-3.6016,-3.6133,-3.6992,-3.7324,-3.7344,-3.7344,-3.7344,-3.7344,-3.7363,-3.8516,-3.9746,-3.8926,-3.9277,-3.9745,-3.874,-3.8471,-3.8617,-3.9275,-3.9449,-3.9412,-3.9321,-3.9304,-3.9073,-3.818,-3.8681,-3.9284,-3.9265,-3.9919,-4.0458,-4.0419,-3.9823,-3.9342,-3.9342,-3.9996,-4.0496,-4.0496,-4.0496,-4.0496,-4.0496,-4.0496,-4.0496,-4.0496,-4.0496,-4.0496,-4.0496,-4.0496,-4.0496,-4.0496,-4.0496,-4.0496,-4.0496,-4.0496,-4.0496,-4.0496,-3.9727,-3.9342,-3.9361,-4.015,-4.0073,0.0,-4.1191,-4.1191,-4.1191,-4.1191,-4.1191,-4.1191,-4.1191,-4.1191,-4.1191,-4.1191,-4.1191,-4.1149,-4.1128,-4.1082,-4.0957,-4.0226,-3.9644,0.0,-3.8606,-3.8077,-3.8641,-3.8766,-3.8588,-3.8022,-3.7572,-3.7773,-3.8945,-3.8769,-3.9198,-4.0591,-3.9165,-3.8529,-3.9039,-3.752,-3.6692,-3.6692,-3.6692,-3.6308,-3.55,-3.55,-3.55,-3.55,-3.55,-3.55,-3.5501,-3.5633,-3.5707,-3.572,-3.5927,-3.5996,-3.5996,-3.5996,-3.5996,-3.6035,-3.6328,-3.6445,-3.6445,-3.6445,-3.6445,-3.6523,-3.7109,-3.7695,-3.8223,-3.8516,-3.8809,-3.8944,-3.8527,-3.8395,-3.8427,-3.8515,-3.8537,-3.8386,-3.7723,-3.8027,-3.82,-3.7334,-3.8277,-3.9304,-3.9304,-3.9958,-4.0496,-4.0496,-4.0265,-4.0092,-4.0092,-4.0323,-4.0496,-4.0496,-4.0496,-4.0496,-4.0496,-4.0496,-4.0496,-4.0496,-4.0496,-4.0496,-4.0496,-4.0496,-4.0496,-4.0496,-4.0496,-4.0496,-4.0496,-3.9977,-3.9708,-3.9708,-3.8854,-3.843,-3.845,-3.8719,-3.87,-4.1149,-4.1151,0.0,-4.1191,-4.1191,-4.1191,-4.1191,-4.1191,-4.1191,-4.1191,-4.1191,-4.1191,-4.1191,-4.1191,-4.1171,-4.1081,-4.0336,-3.9549,0.0,-3.8826,-3.8666,-3.8089,-3.7978,-3.7973,-3.8086,-3.7321,-3.7461,-3.8945,-3.8789,-3.9335,-4.103,-3.9624,-3.9143,-3.9965,-3.7861,-3.6846,-3.7161,-3.6577,-3.6,-3.55,-3.55,-3.55,-3.55,-3.55,-3.55,-3.5501,-3.5633,-3.5707,-3.572,-3.5927,-3.5996,-3.5996,-3.5996,-3.5996,-3.5996,-3.5996,-3.5996,-3.5996,-3.5996,-3.5996,-3.6094,-3.666,-3.7051,-3.7344,-3.7598,-3.7891,-3.8066,-3.7664,-3.7541,-3.7583,-3.7712,-3.7746,-3.7569,-3.6941,-3.7424,-3.7873,-3.7291,-3.8296,-3.9381,-3.9669,-4.015,-4.0496,-4.0496,-4.0496,-4.0496,-4.0496,-4.0496,-4.04,-4.0112,-4.0073,-4.0073,-4.0073,-3.9804,-3.9611,-3.9611,-3.99,-4.0073,-4.0073,-4.0073,-4.0073,-4.0073,-3.9785,-3.9611,-3.9611,-3.9104,-3.8834,-3.8834,-3.7969,-3.7546,-3.7526,-3.7238,-3.7103]},{"header":{"parameterUnit":"m.s-1","parameterCategory":1,"la1":30.6,"la2":29.2853,"lo1":-89.7004,"lo2":-87.6739,"dy":0.0162,"dx":0.0183,"nx":112,"ny":82,"refTime":"2025-05-14T12:00:00:Z","depth":0,"parameterNumber":3,"parameterNumberName":"V-component_of_WINDS"},"data":[0.0,0.0,0.0,0.0,0.0,0.0,0.0,0.0,0.0,0.0,0.0,0.0,0.0,0.0,0.0,0.0,0.0,0.0,0.0,0.0,0.0,0.0,0.0,0.0,0.0,0.0,0.0,0.0,0.0,0.0,0.0,0.0,0.0,0.0,0.0,0.0,0.0,0.0,0.0,0.0,0.0,0.0,0.0,0.0,0.0,0.0,0.0,0.0,0.0,0.0,0.0,0.0,0.0,0.0,0.0,0.0,0.0,0.0,0.0,0.0,0.0,0.0,0.0,0.0,0.0,0.0,0.0,0.0,0.0,0.0,0.0,0.0,0.0,0.0,0.0,0.0,0.0,0.0,0.0,0.0,0.0,0.0,0.0,0.0,0.0,0.0,0.0,0.0,0.0,0.0,-1.9466,-1.9887,-2.0641,-2.1196,-2.146,-2.0922,-2.0932,-2.1578,0.0,0.0,0.0,0.0,0.0,0.0,0.0,0.0,0.0,0.0,0.0,0.0,0.0,0.0,0.0,0.0,0.0,0.0,0.0,0.0,0.0,0.0,0.0,0.0,0.0,0.0,0.0,0.0,0.0,0.0,0.0,0.0,0.0,0.0,0.0,0.0,0.0,0.0,0.0,0.0,0.0,0.0,0.0,0.0,0.0,0.0,0.0,0.0,0.0,0.0,0.0,0.0,0.0,0.0,0.0,0.0,0.0,0.0,0.0,0.0,0.0,0.0,0.0,0.0,0.0,0.0,0.0,0.0,0.0,0.0,0.0,0.0,0.0,0.0,0.0,0.0,0.0,0.0,0.0,0.0,0.0,0.0,0.0,0.0,0.0,0.0,0.0,0.0,0.0,0.0,0.0,0.0,0.0,0.0,0.0,0.0,0.0,0.0,0.0,0.0,0.0,0.0,0.0,0.0,-1.9386,-2.0434,-2.0882,-2.1029,-2.0828,-2.0494,-2.0963,-2.2624,0.0,0.0,0.0,0.0,0.0,0.0,0.0,0.0,0.0,0.0,0.0,0.0,0.0,0.0,0.0,0.0,0.0,0.0,0.0,0.0,0.0,0.0,0.0,0.0,0.0,0.0,0.0,0.0,0.0,0.0,0.0,0.0,0.0,0.0,0.0,0.0,0.0,0.0,0.0,0.0,0.0,0.0,0.0,0.0,0.0,0.0,0.0,0.0,0.0,0.0,0.0,0.0,0.0,0.0,0.0,0.0,0.0,0.0,0.0,0.0,0.0,0.0,0.0,0.0,0.0,0.0,0.0,0.0,0.0,0.0,0.0,0.0,0.0,0.0,0.0,0.0,0.0,0.0,0.0,0.0,0.0,0.0,0.0,0.0,0.0,0.0,0.0,0.0,0.0,0.0,0.0,0.0,0.0,0.0,0.0,0.0,0.0,0.0,0.0,0.0,0.0,0.0,0.0,-1.9092,-1.9613,-2.0788,-2.0889,-2.0822,-2.0688,-2.0261,-2.0833,-2.2867,-2.2608,0.0,0.0,0.0,0.0,0.0,0.0,0.0,0.0,0.0,0.0,0.0,0.0,0.0,0.0,0.0,0.0,0.0,0.0,0.0,0.0,0.0,0.0,0.0,0.0,0.0,0.0,0.0,0.0,0.0,0.0,0.0,0.0,0.0,0.0,0.0,0.0,0.0,0.0,0.0,0.0,0.0,0.0,0.0,0.0,0.0,0.0,0.0,0.0,0.0,0.0,0.0,0.0,0.0,0.0,0.0,0.0,0.0,0.0,0.0,0.0,0.0,0.0,0.0,0.0,0.0,0.0,0.0,0.0,0.0,0.0,0.0,0.0,0.0,0.0,0.0,0.0,0.0,0.0,0.0,0.0,0.0,0.0,0.0,0.0,0.0,0.0,0.0,0.0,0.0,0.0,0.0,0.0,0.0,0.0,0.0,0.0,0.0,0.0,0.0,0.0,0.0,0.0,-1.9579,-1.9967,-2.1002,-2.0848,-2.0648,-2.0575,-2.0259,-2.0823,-2.2776,-2.2328,0.0,0.0,0.0,0.0,0.0,0.0,0.0,0.0,0.0,0.0,0.0,0.0,0.0,0.0,0.0,0.0,0.0,0.0,0.0,0.0,0.0,0.0,0.0,0.0,0.0,0.0,0.0,0.0,0.0,0.0,0.0,0.0,0.0,0.0,0.0,0.0,0.0,0.0,0.0,0.0,0.0,0.0,0.0,0.0,0.0,0.0,0.0,0.0,0.0,0.0,0.0,0.0,0.0,0.0,0.0,0.0,0.0,0.0,0.0,0.0,0.0,0.0,0.0,0.0,0.0,0.0,0.0,0.0,0.0,0.0,0.0,0.0,0.0,0.0,0.0,0.0,0.0,0.0,0.0,0.0,0.0,0.0,0.0,0.0,0.0,0.0,0.0,0.0,0.0,0.0,0.0,0.0,0.0,0.0,0.0,0.0,0.0,0.0,0.0,0.0,0.0,0.0,-1.962,-2.0414,-2.1042,-2.0848,-2.0568,-2.0287,-2.0484,-2.1176,-2.2432,-2.2328,0.0,0.0,0.0,0.0,0.0,0.0,0.0,0.0,0.0,0.0,0.0,0.0,0.0,0.0,0.0,0.0,0.0,0.0,0.0,0.0,0.0,0.0,0.0,0.0,0.0,0.0,0.0,0.0,0.0,0.0,0.0,0.0,0.0,0.0,0.0,0.0,0.0,0.0,0.0,0.0,0.0,0.0,0.0,0.0,0.0,0.0,0.0,0.0,0.0,0.0,0.0,0.0,0.0,0.0,0.0,0.0,0.0,0.0,0.0,0.0,0.0,0.0,0.0,0.0,0.0,0.0,0.0,0.0,0.0,0.0,0.0,0.0,0.0,0.0,0.0,0.0,0.0,0.0,0.0,0.0,0.0,0.0,0.0,0.0,0.0,0.0,0.0,0.0,0.0,0.0,0.0,0.0,0.0,0.0,0.0,0.0,0.0,0.0,0.0,0.0,0.0,0.0,-1.9098,-1.9706,-2.0481,-2.0301,-2.0087,-1.9973,-2.078,-2.1521,-2.2075,0.0,0.0,0.0,0.0,0.0,0.0,0.0,0.0,0.0,0.0,0.0,0.0,0.0,0.0,0.0,0.0,0.0,0.0,0.0,0.0,0.0,0.0,0.0,0.0,0.0,0.0,0.0,0.0,0.0,0.0,0.0,0.0,0.0,0.0,0.0,0.0,0.0,0.0,0.0,0.0,0.0,0.0,0.0,0.0,0.0,0.0,0.0,0.0,0.0,0.0,0.0,0.0,0.0,0.0,0.0,0.0,0.0,0.0,0.0,0.0,0.0,0.0,0.0,0.0,0.0,0.0,0.0,0.0,0.0,0.0,0.0,0.0,0.0,0.0,0.0,0.0,0.0,0.0,0.0,0.0,0.0,0.0,0.0,0.0,0.0,0.0,0.0,0.0,0.0,0.0,0.0,0.0,0.0,0.0,0.0,0.0,0.0,0.0,0.0,0.0,0.0,0.0,-1.821,-1.8844,-1.9466,-2.016,-1.9973,-1.98,-1.98,-2.0936,-2.1689,-2.171,0.0,0.0,0.0,0.0,0.0,0.0,0.0,0.0,0.0,0.0,0.0,0.0,0.0,0.0,0.0,0.0,0.0,0.0,0.0,0.0,0.0,0.0,0.0,0.0,0.0,0.0,0.0,0.0,0.0,0.0,0.0,0.0,0.0,0.0,0.0,0.0,0.0,0.0,0.0,0.0,0.0,0.0,0.0,0.0,0.0,0.0,0.0,0.0,0.0,0.0,0.0,0.0,0.0,0.0,0.0,0.0,0.0,0.0,0.0,0.0,0.0,0.0,0.0,0.0,0.0,0.0,0.0,0.0,0.0,0.0,0.0,0.0,0.0,0.0,0.0,0.0,0.0,0.0,0.0,0.0,0.0,0.0,0.0,0.0,0.0,0.0,0.0,0.0,0.0,0.0,0.0,0.0,0.0,0.0,0.0,0.0,0.0,0.0,0.0,0.0,0.0,0.0,-1.7936,-1.9052,-1.9907,-2.0133,-1.9967,-1.98,-1.98,-2.1088,-2.1729,0.0,0.0,0.0,0.0,0.0,0.0,0.0,0.0,0.0,0.0,0.0,0.0,0.0,0.0,0.0,0.0,0.0,0.0,0.0,0.0,0.0,0.0,0.0,0.0,0.0,0.0,0.0,0.0,0.0,0.0,0.0,0.0,0.0,0.0,0.0,0.0,0.0,0.0,0.0,0.0,0.0,0.0,0.0,0.0,0.0,0.0,0.0,0.0,0.0,0.0,0.0,0.0,0.0,0.0,0.0,0.0,0.0,0.0,0.0,0.0,0.0,0.0,0.0,0.0,0.0,0.0,0.0,0.0,0.0,0.0,0.0,0.0,0.0,0.0,0.0,0.0,0.0,0.0,0.0,0.0,0.0,0.0,0.0,0.0,0.0,0.0,0.0,0.0,0.0,0.0,0.0,0.0,0.0,0.0,0.0,0.0,0.0,0.0,0.0,0.0,0.0,0.0,0.0,-1.7662,-1.8751,-1.9526,-1.9613,-1.9546,-1.9492,-1.9492,-2.0616,-2.1199,-2.0837,0.0,0.0,0.0,0.0,0.0,0.0,0.0,0.0,0.0,0.0,0.0,0.0,0.0,0.0,0.0,0.0,0.0,0.0,0.0,0.0,0.0,0.0,0.0,0.0,0.0,0.0,0.0,0.0,0.0,0.0,0.0,0.0,0.0,0.0,0.0,0.0,0.0,0.0,0.0,0.0,0.0,0.0,0.0,0.0,0.0,0.0,0.0,0.0,0.0,0.0,0.0,0.0,0.0,0.0,0.0,0.0,0.0,0.0,0.0,0.0,0.0,0.0,0.0,0.0,0.0,0.0,0.0,0.0,0.0,0.0,0.0,0.0,0.0,0.0,0.0,0.0,0.0,0.0,0.0,0.0,0.0,0.0,0.0,0.0,0.0,0.0,0.0,0.0,0.0,0.0,0.0,0.0,0.0,0.0,0.0,0.0,0.0,0.0,0.0,0.0,0.0,0.0,-1.7414,-1.845,-1.9232,-1.9417,-1.9424,-1.9377,-1.9199,-2.0222,-2.0758,-2.0449,0.0,0.0,0.0,0.0,0.0,0.0,0.0,0.0,0.0,0.0,0.0,0.0,0.0,0.0,0.0,0.0,0.0,0.0,0.0,0.0,0.0,0.0,0.0,0.0,0.0,0.0,0.0,0.0,0.0,0.0,0.0,0.0,0.0,0.0,0.0,0.0,0.0,0.0,0.0,0.0,0.0,0.0,0.0,0.0,0.0,0.0,0.0,0.0,0.0,0.0,0.0,0.0,0.0,0.0,0.0,0.0,0.0,0.0,0.0,0.0,0.0,0.0,0.0,0.0,0.0,0.0,0.0,0.0,0.0,0.0,0.0,0.0,0.0,0.0,0.0,0.0,0.0,0.0,0.0,0.0,0.0,0.0,0.0,0.0,0.0,0.0,0.0,0.0,0.0,0.0,0.0,0.0,0.0,0.0,0.0,0.0,0.0,0.0,0.0,0.0,0.0,0.0,-1.7085,-1.815,-1.8985,-1.9259,-1.9343,-1.9178,-1.8905,-1.9734,-2.0272,-2.0184,0.0,0.0,0.0,0.0,0.0,0.0,0.0,0.0,0.0,0.0,0.0,0.0,0.0,0.0,0.0,0.0,0.0,0.0,0.0,0.0,0.0,0.0,0.0,0.0,0.0,0.0,0.0,0.0,0.0,0.0,0.0,0.0,0.0,0.0,0.0,0.0,0.0,0.0,0.0,0.0,0.0,0.0,0.0,0.0,0.0,0.0,0.0,0.0,0.0,0.0,0.0,0.0,0.0,0.0,0.0,0.0,0.0,0.0,0.0,0.0,-0.9225,-0.918,0.0,0.0,0.0,0.0,0.0,0.0,0.0,0.0,0.0,0.0,0.0,0.0,0.0,0.0,0.0,0.0,0.0,0.0,0.0,0.0,0.0,0.0,0.0,0.0,0.0,0.0,0.0,0.0,0.0,0.0,0.0,0.0,0.0,0.0,0.0,0.0,0.0,0.0,0.0,0.0,-1.6754,-1.7842,-1.8604,-1.8671,-1.8677,-1.8651,-1.8591,-1.8577,-1.9015,-2.0119,-1.9882,0.0,0.0,0.0,0.0,0.0,0.0,0.0,0.0,0.0,0.0,0.0,0.0,0.0,0.0,0.0,0.0,0.0,0.0,0.0,0.0,0.0,0.0,0.0,0.0,0.0,0.0,0.0,0.0,0.0,0.0,0.0,0.0,0.0,0.0,0.0,0.0,0.0,0.0,0.0,0.0,0.0,0.0,0.0,0.0,0.0,0.0,0.0,0.0,0.0,0.0,0.0,0.0,0.0,0.0,0.0,0.0,0.0,0.0,0.0,-0.9364,-0.9361,0.0,0.0,0.0,0.0,0.0,0.0,0.0,0.0,0.0,0.0,0.0,0.0,0.0,0.0,0.0,0.0,0.0,0.0,0.0,0.0,0.0,0.0,0.0,0.0,0.0,0.0,0.0,0.0,0.0,0.0,0.0,0.0,0.0,0.0,0.0,0.0,0.0,0.0,0.0,0.0,-1.6653,-1.7622,-1.833,-1.8477,-1.849,-1.843,-1.8277,-1.8075,-1.838,-1.9339,-1.9399,0.0,0.0,0.0,0.0,0.0,0.0,0.0,0.0,0.0,0.0,0.0,0.0,0.0,0.0,0.0,0.0,0.0,0.0,0.0,0.0,0.0,0.0,0.0,0.0,0.0,0.0,0.0,0.0,0.0,0.0,0.0,0.0,0.0,0.0,0.0,0.0,0.0,0.0,0.0,0.0,0.0,0.0,0.0,0.0,0.0,0.0,0.0,0.0,0.0,0.0,0.0,0.0,0.0,-0.5741,-0.6522,-0.7031,-0.8506,-0.9344,-0.9639,-0.9513,-0.9513,-0.9591,-0.9337,0.0,0.0,0.0,0.0,0.0,0.0,0.0,0.0,0.0,0.0,0.0,0.0,0.0,0.0,0.0,0.0,0.0,0.0,0.0,0.0,0.0,0.0,-1.7669,-1.7427,-1.7488,-1.7382,-1.6353,0.0,0.0,0.0,0.0,0.0,0.0,0.0,0.0,0.0,0.0,0.0,-1.656,-1.7415,-1.8063,-1.8303,-1.833,-1.8203,-1.7889,-1.7883,-1.8039,-1.8437,-1.9193,-1.9778,0.0,0.0,0.0,0.0,0.0,0.0,0.0,0.0,0.0,0.0,0.0,0.0,0.0,0.0,0.0,0.0,0.0,0.0,0.0,0.0,0.0,0.0,0.0,0.0,0.0,0.0,0.0,0.0,0.0,0.0,0.0,0.0,0.0,0.0,0.0,0.0,0.0,0.0,0.0,0.0,0.0,0.0,0.0,0.0,0.0,0.0,0.0,-0.2524,-0.2524,-0.2499,-0.3234,-0.4669,-0.359,-0.4589,-0.7317,-0.7577,-0.8441,-0.9791,-0.9771,0.0,-0.9605,-0.9564,0.0,0.0,0.0,0.0,0.0,0.0,0.0,0.0,0.0,0.0,0.0,0.0,0.0,0.0,0.0,0.0,0.0,0.0,0.0,0.0,0.0,0.0,-1.8297,-1.7942,-1.7902,-1.7816,-1.7442,-1.6754,-1.6046,-1.5451,-1.5337,-1.515,0.0,0.0,0.0,0.0,0.0,0.0,-1.6286,-1.7094,-1.7655,-1.7695,-1.7702,-1.7635,-1.734,-1.732,-1.7546,-1.8138,-1.8894,-1.9718,-2.0566,-2.0974,0.0,0.0,0.0,0.0,0.0,0.0,0.0,0.0,0.0,0.0,0.0,0.0,0.0,0.0,0.0,0.0,0.0,0.0,0.0,0.0,0.0,0.0,0.0,0.0,0.0,0.0,0.0,0.0,0.0,0.0,0.0,0.0,0.0,0.0,0.0,0.0,0.0,0.0,0.0,0.0,0.0,0.0,0.0,0.0,-0.0656,-0.0958,-0.0966,-0.0973,-0.1342,-0.2073,-0.2333,-0.3259,-0.4729,-0.6564,-0.7789,-0.8526,-0.939,-0.9785,-0.9724,-0.9642,-0.953,-0.9401,0.0,0.0,0.0,0.0,-1.0179,-1.0299,-1.089,-1.1069,-1.1147,-1.1655,0.0,0.0,0.0,0.0,0.0,0.0,0.0,-1.6357,-1.7377,-1.7903,-1.819,-1.8015,-1.7995,-1.7955,-1.7869,-1.7408,-1.6834,-1.6246,-1.6132,-1.5838,-1.493,-1.4903,0.0,0.0,0.0,-1.6186,-1.648,-1.7141,-1.7522,-1.7407,-1.7393,-1.7273,-1.6921,-1.6901,-1.6964,-1.7064,-1.8075,-1.8627,-1.8604,-2.0082,-2.0689,0.0,0.0,0.0,0.0,0.0,0.0,0.0,0.0,0.0,0.0,0.0,0.0,0.0,0.0,0.0,0.0,0.0,0.0,0.0,0.0,0.0,0.0,0.0,0.0,0.0,0.0,0.0,0.0,0.0,0.0183,0.0616,0.0247,0.0184,0.0,0.0,0.0,0.0,0.0,0.0,0.0,0.0,0.0,0.0,0.0,0.0,0.0,0.0,0.0,0.0,-0.1295,-0.2094,-0.2585,-0.5035,-0.6625,-0.7482,-0.865,-0.9451,-0.9812,-0.9707,-0.9642,-0.9598,-0.9486,-0.9415,-0.9381,-0.9381,-0.9405,-0.9456,-0.9571,-0.9608,-0.9752,-1.0528,-1.0791,-1.0954,-1.1785,0.0,0.0,0.0,0.0,-1.4983,-1.6696,-1.73,-1.7577,-1.7928,-1.7995,-1.7969,-1.7896,-1.7749,-1.7428,-1.6921,-1.682,-1.6473,-1.5371,-1.5364,0.0,-1.5217,-1.5805,-1.638,-1.6667,-1.7154,-1.7414,-1.7119,-1.7085,-1.6914,-1.662,-1.6593,-1.6473,-1.6179,-1.7342,-1.7732,-1.7181,-1.9436,-2.0348,-1.9572,0.0,0.0,0.0,0.0,0.0,0.0,0.0,0.0,0.0,0.0,0.0,0.0,0.0,0.0,0.0,0.0,0.0,0.0,0.0,0.0,0.0,0.0,0.0,0.0,0.0,0.0,0.0,0.0,0.0,0.2155,0.0986,0.0,0.0,0.0,0.0,0.0,0.0,0.0,0.0,0.0,0.0,0.0,0.0,0.0,0.0,0.0,0.0,0.0,-0.0062,-0.0986,-0.2524,-0.2647,-0.4423,-0.7421,-0.7482,-0.8404,-0.9822,-0.9815,-0.973,-0.9608,-0.9602,-0.951,-0.9381,-0.9381,-0.9473,-0.9598,-0.9605,-0.9608,-0.9629,-0.9808,-1.042,-1.1054,-1.1021,-1.18,0.0,0.0,-1.3141,-1.3786,-1.5553,-1.6017,-1.6363,-1.7651,-1.7995,-1.7909,-1.7669,-1.7595,-1.7548,-1.7239,-1.7179,-1.6891,-1.5939,0.0,-1.5758,-1.5744,-1.6066,-1.638,-1.6667,-1.6981,-1.7105,-1.676,-1.6727,-1.6607,-1.6319,-1.6342,-1.6166,-1.5872,-1.7019,-1.7699,-1.7662,-1.9624,-2.0474,-1.9967,-2.0797,0.0,0.0,0.0,0.0,0.0,0.0,0.0,0.0,0.0,0.0,0.0,0.0,0.0,0.0,0.0,0.0,0.0,0.0,0.0,0.0,0.0,0.0,0.0,0.0,0.0,0.0,0.0,0.0,0.2436,0.101,0.0,0.0819,0.038,0.0,0.0,0.0,0.0,0.0,0.0,0.0,0.0,0.0,0.0,0.0,0.0,0.0,0.0,0.0,-0.0308,-0.0925,-0.2033,-0.3137,-0.4363,-0.6503,-0.7728,-0.8343,-0.939,-0.9791,-0.9744,-0.9744,-0.971,-0.9663,-0.9663,-0.97,-0.9744,-0.9744,-0.9744,-0.9724,-0.9585,-0.9584,-0.9661,-0.9603,-0.9928,-1.047,-1.1436,-1.1806,-1.2259,-1.3795,-1.425,-1.4581,-1.6,-1.6328,-1.6571,-1.7444,-1.7582,-1.7555,-1.7501,-1.7481,-1.7148,-1.6266,-1.6266,-1.6199,-1.5638,-1.5959,-1.6306,-1.6413,-1.668,-1.6754,-1.646,-1.6426,-1.6306,-1.6012,-1.5985,-1.5858,-1.5571,-1.5963,-1.615,-1.5955,-1.7403,-1.7991,-1.7501,-1.9268,-1.9969,0.0,0.0,0.0,0.0,0.0,0.0,0.0,0.0,0.0,0.0,0.0,0.0,0.0,0.0,0.0,0.0,0.0,0.0,0.0,0.0,0.0,0.0,0.0,0.0,0.0,0.3984,0.3585,0.415,0.2233,0.1096,0.1675,0.0645,0.0,0.0,0.0,0.0,0.0,0.0,0.0,0.0,0.0,0.0,0.0,0.0,0.0,0.0,0.0,0.0,-0.0062,-0.1171,-0.1971,-0.2647,-0.479,-0.6381,-0.7482,-0.8526,-0.9326,-0.9822,-0.9822,-0.9822,-0.9822,-0.9822,-0.9822,-0.9815,-0.9768,-0.9751,-0.97,-0.9401,-0.9171,-0.9001,-0.8898,-0.8885,-0.9099,-1.008,-1.0347,-1.0672,-1.2186,-1.2566,-1.3048,-1.4931,-1.5417,-1.5772,-1.7187,-1.7494,-1.7402,-1.7308,-1.7368,-1.7273,-1.654,-1.65,-1.6359,-1.5778,-1.6025,-1.6321,-1.6321,-1.644,-1.6446,-1.6152,-1.6126,-1.6046,-1.5798,-1.5738,-1.5605,-1.5404,-1.5304,-1.5209,-1.5015,-1.6168,-1.6562,-1.6104,-1.8285,-1.9356,-1.9316,0.0,0.0,0.0,0.0,0.0,0.0,0.0,0.0,0.0,0.0,0.0,0.0,0.0,0.0,0.0,0.0,0.0,0.0,0.0,0.0,0.0,0.0,0.0,0.5462,0.5118,0.5778,0.7411,0.4777,0.341,0.495,0.2127,0.0129,0.0065,0.0065,0.0065,0.0,0.0,0.0,0.0,0.0,0.0,0.0,0.0,0.0,0.0,0.0,0.0,0.0,0.0,-0.0863,-0.2401,-0.2462,-0.4361,-0.7299,-0.736,-0.8343,-0.9822,-0.9822,-0.9822,-0.9822,-0.9822,-0.9819,-0.9795,-0.9652,-0.9598,-0.9547,-0.9306,-0.9207,-0.9176,-0.8981,-0.8885,-0.8885,-0.8885,-0.8885,-0.921,-1.0676,-1.1055,-1.1755,-1.4609,-1.5304,-1.5659,-1.6891,-1.7141,-1.7099,-1.676,-1.6985,-1.7085,-1.674,-1.646,-1.6321,-1.6308,-1.6259,0.0,-1.6259,-1.6259,-1.6146,-1.5811,-1.5771,-1.5764,-1.5764,-1.5551,-1.5378,-1.5371,-1.5149,-1.4988,-1.4981,-1.6088,-1.6539,-1.6132,-1.8038,-1.9316,-1.9912,0.0,0.0,0.0,0.0,0.0,0.0,0.0,0.0,0.0,0.0,0.0,0.0,0.0,0.0,0.0,0.0,0.0,0.0,0.0,0.0,0.0,0.9255,0.9308,0.8405,0.7524,0.708,0.7526,0.5871,0.4838,0.5301,0.4443,0.3384,0.2059,0.1926,0.1391,0.0066,0.0,0.0,0.0,0.0,0.0,0.0,0.0,0.0,0.0,0.0,0.0,0.0,0.0,-0.0247,-0.074,-0.1971,-0.3689,-0.5712,-0.6872,-0.8343,-0.9822,-0.9822,-0.9822,-0.9822,-0.9822,-0.9754,-0.9646,-0.9496,-0.9371,-0.9323,-0.9238,-0.9083,-0.8991,-0.8895,-0.8885,-0.8885,-0.8885,-0.8885,-0.8992,-0.9427,-0.9482,-0.997,-1.186,-1.2924,-1.3905,-1.5313,-1.6247,-1.68,-1.672,-1.66,-1.6536,-1.6406,-1.6326,-1.6199,-1.5985,-1.5952,-1.5952,-1.5952,-1.5952,-1.5919,-1.5791,-1.5645,-1.5518,-1.5518,-1.5251,-1.499,-1.4776,-1.4683,-1.4549,-1.4378,-1.4658,-1.5522,-1.6949,-1.8322,-1.9316,0.0,0.0,0.0,0.0,0.0,0.0,0.0,0.0,0.0,0.0,0.0,0.0,0.0,0.0,0.0,0.0,0.0,0.0,0.0,0.0,0.0,0.0,0.9659,0.9696,0.9696,0.9038,0.8606,0.8724,0.7336,0.6456,0.6494,0.5162,0.3824,0.2752,0.2004,0.1129,0.0066,0.0,0.0,0.0,0.0,0.0,0.0,0.0,0.0,0.0,0.0,0.0,0.0,0.0,0.0,-0.0062,-0.1048,-0.2401,-0.3996,-0.5649,-0.7301,-0.8836,0.0,0.0,0.0,0.0,-0.9639,-0.9493,-0.934,-0.9282,-0.92,-0.9083,-0.9008,-0.8885,-0.8885,-0.8885,-0.8885,-0.8885,-0.8885,-0.8885,-0.8885,-0.8885,-0.9247,-1.0687,-1.1914,-1.3142,-1.4447,-1.567,-1.6486,-1.6359,-1.6206,0.0,-1.6086,-1.6086,-1.6025,-1.5804,-1.5784,-1.5784,-1.5784,-1.5678,-1.5651,-1.5651,-1.5391,-1.5217,-1.5217,-1.4943,0.0,0.0,0.0,-1.4262,-1.4095,-1.4088,0.0,0.0,0.0,0.0,0.0,0.0,0.0,0.0,-2.0303,-2.0557,0.0,0.0,0.0,0.0,0.0,0.0,0.0,0.0,0.0,0.0,0.0,0.0,0.0,0.0,0.0,0.0,0.9764,0.9846,0.9846,0.9903,1.01,1.0239,0.8966,0.8173,0.827,0.5413,0.3413,0.3013,0.1521,0.0394,0.0,0.0,0.0,0.0,0.0,0.0,0.0,0.0,0.0,0.0,0.0,0.0,0.0,0.0,0.0,0.0,0.0,-0.0925,-0.2647,-0.4243,-0.6012,-0.777,-0.9243,-0.9795,-0.9778,-0.9615,-0.9473,-0.9334,-0.9238,0.0,0.0,-0.8981,-0.8885,-0.8885,-0.8885,-0.8885,-0.8885,-0.8885,-0.8885,-0.8878,-0.8861,-0.8858,-0.9198,-1.0362,-1.1618,-1.2749,-1.3651,-1.4986,-1.5932,-1.5594,-1.5636,-1.5772,-1.5738,-1.5738,-1.5771,-1.5738,-1.5731,-1.5718,-1.5684,-1.5504,-1.5344,-1.5344,0.0,0.0,-1.4955,-1.4643,-1.4469,-1.4469,-1.4229,-1.4088,-1.4088,-1.4208,-1.5186,-1.709,-1.7261,-1.8341,-2.0401,-2.0401,-2.0479,-2.0605,-2.0605,-2.081,0.0,0.0,0.0,0.0,0.0,0.0,0.0,0.0,0.0,0.0,0.0,0.0,0.0,0.0,0.0,0.9866,0.9926,0.9943,0.9943,0.9967,0.9997,1.0027,1.0008,0.9977,1.0003,0.9412,0.7832,0.5075,0.4422,0.289,0.0127,0.0,0.0,0.0,0.0,0.0,0.0,0.0,0.0,0.0,0.0,0.0,0.0,0.0,0.0,0.0,0.0,-0.0925,-0.2647,-0.4243,-0.6586,-0.9228,-0.953,-0.9649,-0.9615,-0.9344,-0.9279,-0.9231,-0.9032,-0.8981,-0.8977,-0.8892,-0.8885,-0.8885,-0.8885,-0.8885,0.0,-0.8885,-0.8885,-0.8854,-0.8784,-0.8754,-0.8767,-0.8927,-0.9868,-1.0755,-1.0924,-1.2762,-1.4262,-1.3949,-1.4761,-1.5404,-1.517,-1.5518,-1.5752,-1.5518,-1.5478,-1.5398,-1.5164,-1.5129,-1.5095,-1.5095,-1.4783,-1.4603,-1.4603,-1.4335,-1.4168,-1.4168,-1.4122,-1.4088,-1.4088,-1.4936,-1.5579,-1.5985,-1.6846,-1.794,-1.9323,-1.9323,-1.9756,-2.0605,-2.0605,-2.081,0.0,0.0,0.0,0.0,0.0,0.0,0.0,0.0,0.0,0.0,0.0,0.9649,0.9802,0.0,0.9995,1.0141,1.0164,1.0164,1.0164,1.0164,1.0137,0.9997,1.0181,1.03,1.0378,0.9601,0.8366,0.6619,0.4804,0.3044,0.1325,0.0439,0.0,0.0,0.0,0.0,0.0,0.0,0.0,0.0,0.0,0.0,0.0,0.0,0.0,0.0,0.0,-0.0494,-0.1417,-0.3841,-0.6676,-0.949,-0.9412,-0.9381,-0.9361,-0.9265,-0.911,-0.9035,-0.8908,-0.8885,-0.8885,-0.8885,-0.8885,-0.8885,-0.8885,-0.8885,-0.8868,-0.8845,-0.8825,-0.8791,-0.8635,-0.8598,-0.856,-0.8411,-0.9328,-1.0188,-1.01,-1.1973,-1.3596,-1.3421,-1.4373,-1.5182,-1.5035,-1.5204,-1.5344,-1.5204,-1.5177,-1.5169,-1.5028,-1.4836,-1.4743,-1.4743,-1.4476,-1.4302,-1.4302,-1.4168,-1.4088,-1.4088,-1.4088,-1.4088,-1.4088,-1.4608,-1.5137,-1.5703,-1.6232,-1.705,-1.8149,-1.8718,-1.9283,-1.9795,-2.0362,-2.081,0.0,0.0,0.0,0.0,0.0,0.0,0.0,0.9357,0.9476,0.9656,0.9785,0.9914,1.0004,1.0198,1.029,1.0317,1.0321,1.0321,1.0321,1.0321,1.0253,1.0007,1.0014,1.0131,1.0226,0.8949,0.7922,0.7605,0.4734,0.282,0.2508,0.0931,0.0,0.0,0.0,0.0,0.0,0.0,0.0,0.0,0.0,0.0,0.0,0.0,0.0,0.0,0.0,-0.0369,-0.1103,-0.36,-0.649,-0.932,-0.9228,-0.9169,-0.9169,-0.9169,-0.9039,-0.8885,-0.8885,-0.8885,-0.8885,-0.8885,-0.8885,-0.8878,-0.8848,-0.8841,-0.8807,-0.871,-0.8665,-0.8632,-0.8479,-0.8442,-0.8404,-0.8258,-0.9019,-0.9712,-0.9592,-1.1207,-1.275,-1.2893,-1.3783,-1.4627,-1.4803,-1.4834,-1.4861,-1.4914,-1.4877,-1.4901,-1.4841,-1.4583,-1.4436,-1.4436,-1.4229,-1.4088,-1.4088,-1.4088,-1.4088,-1.4088,-1.4088,-1.4088,-1.4088,-1.4088,-1.4496,-1.5379,-1.5379,-1.591,-1.6968,-1.79,-1.859,-1.9036,-1.9883,-2.0604,0.2427,0.453,0.6819,0.718,0.8268,0.9337,0.0,0.9663,0.9663,0.9879,0.995,1.007,1.0226,1.0266,1.0321,1.0449,1.047,1.047,1.047,1.047,1.0365,1.0021,1.0171,1.0209,1.0024,0.9824,0.9128,0.7676,0.5776,0.4007,0.2592,0.0926,0.0,0.0,0.0,0.0,0.0,0.0,0.0,0.0,0.0,0.0,0.0,0.0,0.0,0.0,0.0,-0.1569,-0.4205,-0.4427,-0.6374,-0.9221,-0.9018,-0.8905,-0.8905,-0.8905,-0.8898,-0.8885,-0.8885,-0.8885,-0.8885,-0.8885,-0.8885,-0.8858,-0.8777,-0.8737,-0.8703,-0.855,-0.8509,-0.8476,-0.8333,-0.8344,-0.8255,-0.8102,-0.8161,-0.8216,-0.8063,-0.9204,-1.0368,-1.096,-1.2159,-1.3268,-1.4051,-1.4188,-1.4275,-1.4529,-1.4569,-1.4476,-1.4215,-1.4155,-1.4135,-1.4135,-1.4108,-1.4088,-1.4088,-1.4088,-1.4088,-1.4088,-1.4088,-1.4088,-1.4088,-1.4088,-1.4166,-1.4292,-1.4292,-1.4817,-1.5861,-1.6026,-1.7082,-1.8997,-1.9116,-1.9912,0.1979,0.3202,0.4493,0.5385,0.6855,0.8186,0.8216,0.8985,0.9768,0.9829,1.0059,1.0205,1.0266,1.0422,1.0558,1.0616,1.0626,1.0626,1.0626,1.0548,1.0415,1.0209,1.0161,1.0086,0.9869,0.9856,0.9607,0.8922,0.641,0.461,0.3936,0.1417,0.0,0.0,0.0,0.0,0.0,0.0,0.0,0.0,0.0,0.0,0.0,0.0,0.0,0.0,0.0,-0.1251,-0.3327,-0.4142,-0.5799,-0.7835,-0.8624,-0.8885,-0.8885,-0.8885,-0.8885,-0.8885,-0.8885,-0.8885,-0.8868,-0.8835,-0.8804,-0.8777,-0.8625,-0.8577,-0.8547,-0.8401,-0.836,-0.8326,-0.8174,-0.8136,-0.8119,-0.8005,-0.7921,-0.7889,-0.7824,-0.8655,-0.9664,-1.0626,-1.1718,-1.285,-1.3932,-1.4088,-1.4128,-1.4249,-1.4269,-1.4222,-1.4102,-1.4088,-1.4088,-1.4088,-1.4088,-1.4088,-1.4088,-1.4088,-1.4088,-1.4088,-1.4088,-1.4088,-1.4088,-1.4088,-1.4088,-1.4088,-1.4088,-1.4328,-1.4776,-1.6034,-1.709,-1.8029,-1.9313,-2.0263,0.1289,0.2008,0.2669,0.3663,0.5339,0.6633,0.6531,0.7491,0.848,0.8512,0.905,0.9599,0.9675,1.0182,1.067,1.0714,1.0721,1.0721,1.0721,1.0588,1.0439,1.0297,1.0144,0.9926,0.9836,0.9822,0.9822,0.9822,0.6754,0.4916,0.4916,0.1787,0.0,0.0,0.0,0.0,0.0,0.0,0.0,0.0,0.0,0.0,0.0,0.0,0.0,0.0,0.0,-0.0821,-0.2291,-0.3417,-0.4964,-0.6813,-0.7875,-0.8546,-0.8885,-0.8885,-0.8885,-0.8885,-0.8885,-0.8854,-0.8804,-0.8747,-0.8682,-0.8618,-0.8469,-0.8425,-0.8394,-0.8248,-0.8208,-0.818,-0.8019,-0.7988,-0.7978,-0.7938,-0.7892,-0.7787,-0.7706,-0.8205,-0.9054,-1.047,-1.1332,-1.2291,-1.3822,-1.4088,-1.4088,-1.4088,-1.4088,-1.4088,-1.4088,-1.4088,-1.4088,-1.4088,-1.4088,-1.4088,-1.4088,-1.4088,-1.4088,-1.4088,-1.4088,-1.4088,-1.4088,-1.4088,-1.4088,-1.4088,-1.4088,-1.4088,-1.4088,-1.5959,-1.7009,-1.7342,-1.9274,-2.0323,0.0059,0.1105,0.2255,0.2505,0.3665,0.4824,0.4958,0.5037,0.506,0.5192,0.6527,0.7791,0.8013,0.9438,1.0548,1.0697,1.0721,1.0721,1.0721,1.0588,1.0439,1.0297,1.0144,0.9926,0.9836,0.9822,0.9822,0.9822,0.6754,0.4916,0.4916,0.1787,0.0,0.0,0.0,0.0,0.0,0.0,0.0,0.0,0.0,0.0,0.0,0.0,0.0,0.0,0.0,-0.0862,-0.2232,-0.2252,-0.4021,-0.6702,-0.6758,-0.7651,-0.8885,-0.8885,-0.8885,-0.8885,-0.8885,-0.8842,-0.8716,-0.8713,-0.8611,-0.8462,-0.8371,-0.833,-0.8245,-0.8089,-0.7995,-0.7995,-0.7992,-0.7988,-0.7951,-0.7851,-0.7814,-0.7733,-0.7448,-0.7422,-0.8087,-1.0188,-1.0616,-1.1391,-1.3695,-1.4088,-1.4088,-1.4088,-1.4088,-1.4088,-1.4088,-1.4088,-1.4088,-1.4088,-1.4088,-1.4088,-1.4088,-1.4088,-1.4088,-1.4088,-1.4088,-1.4088,-1.4088,-1.4088,-1.4088,-1.4088,-1.4088,-1.4088,-1.4088,-1.522,-1.6273,-1.7342,-1.851,-1.9599,0.0,0.0355,0.0775,0.0852,0.2078,0.3239,0.3318,0.4119,0.4923,0.4947,0.5487,0.6296,0.7501,0.8284,0.9095,1.0345,1.0568,1.0605,1.0707,1.0588,1.0439,1.0297,1.0144,0.9926,0.9836,0.9822,0.9822,0.9822,0.6754,0.4916,0.4916,0.1787,0.0,0.0,0.0,0.0,0.0,0.0,0.0,0.0,0.0,0.0,0.0,0.0,0.0,0.0,0.0,-0.0285,-0.079,-0.1793,-0.3408,-0.5361,-0.6311,-0.7595,-0.8871,-0.8825,-0.8788,-0.8788,-0.8788,-0.8754,-0.8679,-0.8482,-0.8384,-0.8316,-0.8163,-0.8116,-0.8106,-0.8005,-0.7988,-0.7988,-0.7988,-0.7914,-0.7875,-0.7824,-0.7662,-0.7492,-0.7439,-0.7292,-0.786,-1.0149,-1.0611,-1.1348,-1.3695,-1.4088,-1.4088,-1.4088,-1.4088,-1.4088,-1.4088,-1.4088,-1.4088,-1.4088,-1.4088,-1.4088,-1.4088,-1.4088,-1.4088,-1.4088,-1.4088,-1.4088,-1.4088,-1.4088,-1.4088,-1.4088,-1.4088,-1.4088,-1.4088,-1.5179,-1.6232,-1.7342,-1.847,-1.9559,0.0,0.0,0.0,0.0,0.0802,0.1602,0.1602,0.2401,0.3137,0.3137,0.3717,0.4681,0.6395,0.6769,0.7625,1.0129,1.0029,0.9882,1.0631,1.0588,1.046,1.0368,1.0175,0.995,0.9852,0.9852,0.9822,0.9822,0.6754,0.4916,0.4916,0.1787,0.0,0.0,0.0,0.0,0.0,0.0,0.0,0.0,0.0,0.0,0.0,0.0,0.0,0.0,0.0,0.0,-0.0056,-0.1008,-0.2627,-0.458,-0.5492,-0.7029,-0.8838,-0.8686,-0.8628,-0.8628,-0.8628,-0.8598,-0.8523,-0.8333,-0.8235,-0.817,-0.8019,-0.7988,-0.7988,-0.7988,-0.7988,-0.7988,-0.7988,-0.7926,-0.7797,-0.7746,-0.755,-0.7402,-0.7299,-0.721,-0.7661,-0.9618,-1.0308,-1.1214,-1.3124,-1.3822,-1.4088,-1.4088,-1.4088,-1.4088,-1.4088,-1.4088,-1.4088,-1.4088,-1.4088,-1.4088,-1.4088,-1.4088,-1.4088,-1.4088,-1.4088,-1.4088,-1.4088,-1.4088,-1.4088,-1.4088,-1.4088,-1.4088,-1.4088,-1.5179,-1.6067,-1.6764,-1.831,-1.9362,0.0,0.0,0.0,0.0,0.0,0.0,0.0,0.0,0.0,0.0,0.1294,0.2904,0.4625,0.4952,0.6141,0.9777,0.9033,0.862,1.0429,1.0595,1.05,1.0493,1.0236,0.9997,0.9987,0.9849,0.9822,0.9822,0.6754,0.4916,0.4916,0.1787,0.0,0.0,0.0,0.0,0.0,0.0,0.0,0.0,0.0,0.0,0.0,0.0,0.0,0.0,0.0,0.0,0.0,0.0,-0.1789,-0.4458,-0.4271,-0.6032,-0.8679,-0.8526,-0.8472,-0.8469,-0.8462,-0.8377,-0.832,-0.8313,-0.816,-0.7988,-0.7988,-0.7988,-0.7988,-0.7988,-0.7988,-0.7988,-0.7982,-0.7867,-0.7763,-0.7624,-0.7472,-0.7319,-0.7129,-0.7095,-0.7445,-0.8671,-0.9879,-1.1037,-1.2109,-1.3294,-1.4088,-1.4088,-1.4088,-1.4088,-1.4088,-1.4088,-1.4088,-1.4088,-1.4088,-1.4088,-1.4088,-1.4088,-1.4088,-1.4088,-1.4088,-1.4088,-1.4088,-1.4088,-1.4088,-1.4088,-1.4088,-1.4088,-1.4088,-1.5137,-1.5662,-1.5737,-1.7859,-1.8877,0.0,0.0,0.0,0.0,0.0,0.0,0.0,0.0,0.0,0.0,0.0367,0.1169,0.2863,0.3192,0.4308,0.7901,0.813,0.8528,1.0416,1.0687,1.0619,1.0507,1.0331,1.0175,0.9997,0.9849,0.9822,0.9822,0.6754,0.4916,0.4916,0.1787,0.0,0.0,0.0,0.0,0.0,0.0,0.0,0.0,0.0,0.0,0.0,0.0,0.0,0.0,0.0,0.0,0.0,0.0,-0.1704,-0.4267,-0.4194,-0.5977,-0.8523,-0.8377,-0.8378,-0.8306,-0.8191,-0.8204,-0.8252,-0.8136,-0.8022,-0.7988,-0.7988,-0.7988,-0.7988,-0.7988,-0.7988,-0.7965,-0.7899,-0.776,-0.7614,-0.7465,-0.7312,-0.7142,-0.7105,-0.7095,-0.7445,-0.8671,-1.0524,-1.1938,-1.2237,-1.3294,-1.4088,-1.4088,-1.4088,-1.4088,-1.4088,-1.4088,-1.4088,-1.4088,-1.4088,-1.4088,-1.4088,-1.4088,-1.4088,-1.4088,-1.4088,-1.4088,-1.4088,-1.4088,-1.4088,-1.4088,-1.4088,-1.4088,-1.4088,-1.437,-1.4936,-1.5696,-1.6273,-1.7407,0.0,0.0,0.0,0.0,0.0,0.0,0.0,0.0,0.0,0.0,0.0,0.049,0.2212,0.1881,0.2538,0.6027,0.6683,0.7374,0.9258,1.0207,1.0663,1.051,1.0368,1.0219,1.0,0.9849,0.9822,0.9822,0.6754,0.4916,0.4916,0.1787,0.0,0.0,0.0,0.0,0.0,0.0,0.0,0.0,0.0,0.0,0.0,0.0,0.0,0.0,0.0,0.0,0.0,0.0,-0.1305,-0.3388,-0.3907,-0.55,-0.7577,-0.8014,-0.817,-0.8157,-0.8019,-0.8096,-0.8153,-0.8019,-0.7988,-0.7988,-0.7988,-0.7988,-0.7988,-0.7988,-0.7941,-0.787,-0.7834,-0.7655,-0.7478,-0.7439,-0.7251,-0.7095,-0.7095,-0.7095,-0.7445,-0.8671,-1.0351,-1.1724,-1.22,-1.3294,-1.4088,-1.4088,-1.4088,-1.4088,-1.4088,-1.4088,-1.4088,-1.4088,-1.4088,-1.4088,-1.4088,-1.4088,-1.4088,-1.4088,-1.4088,-1.4088,-1.4088,-1.4088,-1.4088,-1.4088,-1.4088,-1.4088,-1.4088,-1.4088,-1.465,-1.5703,-1.6191,-1.7334,0.0,0.0,0.0,0.0,0.0,0.0,0.0,0.0,0.0,0.0,0.0,0.0425,0.1885,0.1143,0.1291,0.4297,0.5093,0.5981,0.7694,0.9315,1.0346,1.048,1.0337,1.0198,1.0,0.9849,0.9697,0.9515,0.663,0.4916,0.4916,0.1787,0.0,0.0,0.0,0.0,0.0,0.0,0.0,0.0,0.0,0.0,0.0,0.0,0.0,0.0,0.0,0.0,0.0,0.0,-0.0861,-0.2273,-0.3318,-0.4781,-0.6361,-0.7378,-0.7839,-0.7988,-0.7988,-0.7988,-0.7988,-0.7988,-0.7988,-0.7988,-0.7988,-0.7988,-0.7985,-0.7965,-0.7913,-0.7801,-0.7763,-0.7563,-0.7412,-0.7346,-0.7238,-0.7095,-0.7095,-0.7095,-0.7401,-0.8452,-0.9579,-1.074,-1.1895,-1.3075,-1.3913,-1.4088,-1.4088,-1.4088,-1.4088,-1.4088,-1.4088,-1.4088,-1.4088,-1.4088,-1.4088,-1.4088,-1.4088,-1.4088,-1.4088,-1.4088,-1.4088,-1.4088,-1.4088,-1.4088,-1.4088,-1.4088,-1.4088,-1.4088,-1.4573,-1.5496,-1.6601,-1.7698,0.0,0.0,0.0,0.0,0.0,0.0,0.0,0.0,0.0,0.0,0.0,0.0118,0.0405,0.1302,0.2305,0.3009,0.4241,0.5764,0.7586,0.8135,0.8788,1.0189,1.0181,1.0017,0.9987,0.9849,0.9265,0.7914,0.6016,0.4916,0.4916,0.1787,0.0,0.0,0.0,0.0,0.0,0.0,0.0,0.0,0.0,0.0,0.0,0.0,0.0,0.0,0.0,0.0,0.0,0.0,-0.0784,-0.2075,-0.2241,-0.3887,-0.6055,-0.6287,-0.7036,-0.7988,-0.7988,-0.7988,-0.7988,-0.7988,-0.7988,-0.7988,-0.7988,-0.7988,-0.7965,-0.7885,-0.7831,-0.7753,-0.7509,-0.7456,-0.7339,-0.721,-0.7115,-0.7095,-0.7095,-0.7095,-0.7139,-0.736,-0.836,-0.9536,-1.0697,-1.1858,-1.2942,-1.3955,-1.4088,-1.4088,-1.4088,-1.4088,-1.4088,-1.4088,-1.4088,-1.4088,-1.4088,-1.4088,-1.4088,-1.4088,-1.4088,-1.4088,-1.4088,-1.4088,-1.4088,-1.4088,-1.4088,-1.4088,-1.4088,-1.4088,-1.4208,-1.4412,-1.5462,-1.656,0.0,0.0,0.0,0.0,0.0,0.0,0.0,0.0,0.0,0.0,0.0,0.0,0.0,0.0641,0.1491,0.2461,0.3307,0.4745,0.7345,0.7729,0.8386,0.9976,1.0031,0.9957,0.9876,0.9866,0.9451,0.8711,0.7118,0.5466,0.3751,0.1346,0.0,0.0,0.0,0.0,0.0,0.0,0.0,0.0,0.0,0.0,0.0,0.0,0.0,0.0,0.0,0.0,0.0,0.0,-0.0361,-0.1021,-0.1718,-0.2766,-0.4069,-0.5477,-0.6431,-0.7083,-0.7736,-0.7988,-0.7988,-0.7988,-0.7988,-0.7988,-0.7988,-0.7934,-0.7906,-0.7831,-0.7699,-0.755,-0.7453,-0.7312,-0.7234,-0.7112,-0.7095,-0.7095,-0.7095,-0.7095,-0.7095,-0.7095,-0.8057,-0.9065,-0.9623,-1.1166,-1.2504,-1.3075,-1.3688,-1.4088,-1.4088,-1.4088,-1.4088,-1.4088,-1.4088,-1.4088,-1.4088,-1.4088,-1.4088,-1.4088,-1.4088,-1.4088,-1.4088,-1.4088,-1.4088,-1.4088,-1.4088,-1.4088,-1.4088,-1.4088,-1.437,-1.4936,-1.5455,-1.6593,0.0,0.0,0.0,0.0,0.0,0.0,0.0,0.0,0.0,0.0,0.0,0.0,0.0,0.0287,0.0937,0.229,0.2887,0.4183,0.7167,0.7634,0.8292,0.9764,0.9936,0.9889,0.9832,0.9822,0.9636,0.9326,0.7461,0.5201,0.2647,0.0911,0.0,0.0,0.0,0.0,0.0,0.0,0.0,0.0,0.0,0.0,0.0,0.0,0.0,0.0,0.0,0.0,0.0,0.0,0.0,-0.0101,-0.1159,-0.1762,-0.2314,-0.4672,-0.5777,-0.6179,-0.7537,-0.7988,-0.7985,-0.7951,-0.7965,-0.7985,-0.7951,-0.7906,-0.7797,-0.7736,-0.755,-0.7409,-0.7329,-0.7231,-0.7095,-0.7095,-0.7095,-0.7095,-0.7095,-0.7095,-0.7095,-0.7095,-0.7885,-0.8584,-0.8846,-1.0394,-1.1729,-1.2242,-1.3118,-1.3822,-1.4088,-1.4088,-1.4088,-1.4088,-1.4088,-1.4088,-1.4088,-1.4088,-1.4088,-1.4088,-1.4088,-1.4088,-1.4088,-1.4088,-1.4088,-1.4088,-1.4088,-1.4088,-1.4088,-1.4088,-1.4531,-1.5379,-1.5579,-1.6634,0.0,0.0,0.0,0.0,0.0,0.0,0.0,0.0,0.0,0.0,0.0,0.0,0.0,0.125,0.231,0.2461,0.3751,0.5322,0.7177,0.7447,0.8005,0.9656,0.9842,0.9836,0.9822,0.9822,0.9204,0.7728,0.4729,0.2789,0.2523,0.0911,0.0,0.0,0.0,0.0,0.0,0.0,0.0,0.0,0.0,0.0,0.0,0.0,0.0,0.0,0.0,0.0,0.0,0.0,0.0,0.0,-0.0151,-0.0907,-0.2163,-0.3667,-0.497,-0.6179,-0.7537,-0.7988,-0.7968,-0.7879,-0.7926,-0.7965,-0.7875,-0.7821,-0.7753,-0.7489,-0.7439,-0.7339,-0.7197,-0.7105,-0.7095,-0.7095,-0.7095,-0.7095,-0.7095,-0.7095,-0.7095,-0.7095,-0.7183,-0.7621,-0.8715,-0.9065,-0.9923,-1.198,-1.237,-1.2857,-1.3955,-1.4088,-1.4088,-1.4088,-1.4088,-1.4088,-1.4088,-1.4088,-1.4088,-1.4088,-1.4088,-1.4088,-1.4088,-1.4088,-1.4088,-1.4088,-1.4088,-1.4088,-1.4088,-1.4088,-1.4166,-1.4292,-1.5262,-1.582,-0.2946,-0.2954,-0.2708,-0.1725,-0.1479,-0.1223,-0.0237,0.0,0.0,0.0,0.0,0.0,0.0,0.0563,0.1312,0.2339,0.2927,0.418,0.6818,0.7203,0.781,0.951,0.9771,0.9822,0.9822,0.9822,0.9109,0.7512,0.5195,0.3445,0.2572,0.0886,0.0,0.0,0.0,0.0,0.0,0.0,0.0,0.0,0.0,0.0,0.0,0.0,0.0,0.0,0.0,0.0,0.0,0.0,0.0,0.0,0.0,-0.0303,-0.1058,-0.3215,-0.4318,-0.5112,-0.7186,-0.7902,-0.7879,-0.7733,-0.7726,-0.7763,-0.7702,-0.7621,-0.7522,-0.745,-0.7305,-0.7217,-0.7112,-0.7095,-0.7095,-0.7095,-0.7095,-0.7095,-0.7095,-0.7095,-0.7095,-0.7095,-0.7095,-0.7272,-0.7753,-0.8969,-1.0226,-1.1123,-1.2467,-1.3555,-1.4039,-1.4088,-1.4088,-1.4088,-1.4088,-1.4088,-1.4088,-1.4088,-1.4088,-1.4088,-1.4088,-1.4088,-1.4088,-1.4088,-1.4088,-1.4088,-1.4088,-1.4088,-1.4088,-1.4088,-1.4088,-1.413,-1.4531,-1.5095,-0.4808,-0.4899,-0.4487,-0.2893,-0.2524,-0.2077,-0.0356,0.0,0.0,0.0,0.0,0.0,0.0,0.0,0.0565,0.0,0.0,0.3937,0.681,0.7562,0.8295,0.9486,0.9761,0.9822,0.9822,0.9781,0.9273,0.8056,0.5931,0.4241,0.3126,0.1147,0.0,0.0,0.0,0.0,0.0,0.0,0.0,0.0,0.0,0.0,0.0,0.0,0.0,0.0,0.0,0.0,0.0,0.0,0.0,0.0,0.0,0.0,-0.0252,-0.2548,-0.3648,-0.4301,-0.644,-0.7481,-0.778,-0.7594,-0.7533,-0.7522,-0.7478,-0.7421,-0.7409,-0.7316,-0.7224,-0.7095,-0.7095,-0.7095,-0.7095,-0.7095,-0.7095,-0.7095,-0.7095,-0.7095,-0.7095,-0.7095,-0.7095,-0.7095,-0.7095,-0.875,-1.0221,-1.0567,-1.2297,-1.3688,-1.4039,-1.4088,-1.4088,-1.4088,-1.4088,-1.4088,-1.4088,-1.4088,-1.4088,-1.4088,-1.4088,-1.4088,-1.4088,-1.4088,-1.4088,-1.4088,-1.4088,-1.4088,-1.4088,-1.4088,-1.4088,-1.4088,-1.4088,-1.4489,-0.4684,-0.4798,-0.4487,-0.2893,-0.2524,-0.2077,-0.0356,0.0,0.0,0.0,0.0,0.0,0.0,0.0,0.0563,0.223,0.3721,0.0,0.7112,0.8647,0.9603,0.9802,0.9819,0.9822,0.9822,0.9693,0.9547,0.9395,0.6465,0.466,0.4477,0.1623,0.0,0.0,0.0,0.0,0.0,0.0,0.0,0.0,0.0,0.0,0.0,0.0,0.0,0.0,0.0,0.0,0.0,0.0,0.0,0.0,0.0,0.0,-0.0151,-0.1529,-0.2867,-0.4194,-0.5384,-0.6676,-0.7763,-0.7468,-0.7419,-0.7346,-0.7146,-0.7251,-0.7339,-0.7142,-0.7098,-0.7095,-0.7095,-0.7095,-0.7095,-0.7095,-0.7095,-0.7095,-0.7095,-0.7095,-0.7095,-0.7095,-0.7095,-0.7095,-0.7095,-0.8101,-0.9323,-1.0438,-1.1595,-1.2766,-1.3955,-1.4088,-1.4088,-1.4088,-1.4088,-1.4088,-1.4088,-1.4088,-1.4088,-1.4088,-1.4088,-1.4088,-1.4088,-1.4088,-1.4088,-1.4088,-1.4088,-1.4088,-1.4088,-1.4088,-1.4088,-1.4088,-1.4088,-1.413,-0.7888,-0.7943,-0.7316,-0.4642,-0.4022,-0.3302,-0.0583,0.0,0.0,0.0,0.0,0.0,0.0,0.0,0.017,0.0698,0.3001,0.4919,0.5499,0.7863,0.9625,0.9673,0.9676,0.9676,0.9676,0.9445,0.8871,0.7781,0.5736,0.41,0.2962,0.1053,0.0,0.0,0.0,0.0,0.0,0.0,0.0,0.0,0.0,0.0,0.0,0.0,0.0,0.0,0.0,0.0,0.0,0.0,0.0,0.0,0.0,0.0,-0.0151,-0.1528,-0.2257,-0.2942,-0.4949,-0.5931,-0.6403,-0.7005,-0.7214,-0.7204,-0.7109,-0.7129,-0.7204,-0.7109,-0.7095,-0.7095,-0.7095,-0.7095,-0.7095,-0.7095,-0.7095,-0.7095,-0.7095,-0.7095,-0.7095,-0.7095,-0.7095,-0.7095,-0.7095,-0.8105,-0.9279,-1.0438,-1.1552,-1.2723,-1.3955,-1.4088,-1.4088,-1.4088,-1.4088,-1.4088,-1.4088,-1.4088,-1.4088,-1.4088,-1.4088,-1.4088,-1.4088,-1.4088,-1.4088,-1.4088,-1.4088,-1.4088,-1.4088,-1.4088,-1.4088,-1.4088,-1.4088,-1.4088,-0.9256,-0.8926,-0.791,-0.5333,-0.4254,-0.3194,-0.0578,0.0,0.0,0.0,0.0,0.0,0.0,0.0,0.0,0.0,0.2629,0.4475,0.3911,0.7136,0.9564,0.9676,0.9642,0.9608,0.9608,0.9334,0.8577,0.7031,0.541,0.3846,0.2272,0.0825,0.0,0.0,0.0,0.0,0.0,0.0,0.0,0.0,0.0,0.0,0.0,0.0,0.0,0.0,0.0,0.0,0.0,0.0,0.0,0.0,0.0,0.0,-0.01,-0.0927,-0.1549,-0.2214,-0.3651,-0.4808,-0.5694,-0.6293,-0.6738,-0.7095,-0.7095,-0.7095,-0.7095,-0.7095,-0.7095,-0.7095,-0.7095,-0.7095,-0.7095,-0.7095,-0.7095,-0.7095,-0.7095,-0.7095,-0.7095,-0.7095,-0.7095,-0.7095,-0.7095,-0.8105,-0.9148,-0.9836,-1.1295,-1.2589,-1.3336,-1.3822,-1.4088,-1.4088,-1.4088,-1.4088,-1.4088,-1.4088,-1.4088,-1.4088,-1.4088,-1.4088,-1.4088,-1.4088,-1.4088,-1.4088,-1.4088,-1.4088,-1.4088,-1.4088,-1.4088,-1.4088,-1.4088,-1.4088,0.0,-0.8139,-0.6715,-0.5082,-0.357,-0.2044,-0.0403,0.0,0.0,0.0,0.0,0.0,0.0,0.0,0.0,0.0,0.2465,0.3907,0.2689,0.6394,0.9382,0.9788,0.9686,0.9595,0.9595,0.9317,0.8565,0.7134,0.5456,0.388,0.2457,0.0873,0.0,0.0,0.0,0.0,0.0,0.0,0.0,0.0,0.0,0.0,0.0,0.0,0.0,0.0,0.0,0.0,0.0,0.0,0.0,0.0,0.0,0.0,0.0,0.0,-0.0808,-0.1842,-0.1815,-0.3395,-0.5453,-0.5528,-0.6248,-0.7095,-0.7095,-0.7095,-0.7095,-0.7095,-0.7095,-0.7095,-0.7095,-0.7095,-0.7095,-0.7095,-0.7095,-0.7095,-0.7095,-0.7095,-0.7095,-0.7095,-0.7095,-0.7095,-0.7095,-0.8013,-0.8803,-0.889,-1.0783,-1.22,-1.2279,-1.3336,-1.4088,-1.4088,-1.4088,-1.4088,-1.4088,-1.4088,-1.4088,-1.4088,-1.4088,-1.4088,-1.4088,-1.4088,-1.4088,-1.4088,-1.4088,-1.4088,-1.4088,-1.4088,-1.4088,-1.4088,-1.4088,-1.4088,-0.8981,0.0,-0.6439,-0.4916,-0.3425,-0.1894,0.0,0.0,0.0,0.0,0.0,0.0,0.0,0.0,0.0,0.0,0.1654,0.2869,0.2518,0.5629,0.8355,0.9677,0.9591,0.9435,0.9435,0.9164,0.8821,0.848,0.5973,0.4322,0.3979,0.1438,0.0,0.0,0.0,0.0,0.0,0.0,0.0,0.0,0.0,0.0,0.0,0.0,0.0,0.0,0.0,0.0,0.0,0.0,0.0,0.0,0.0,0.0,0.0,0.0,-0.0186,-0.0603,-0.1491,-0.278,-0.4357,-0.6121,-0.6874,-0.7095,-0.7095,-0.7095,-0.7095,-0.7095,-0.7095,-0.7095,-0.7095,-0.7095,-0.7095,-0.7095,-0.7095,-0.7095,-0.7095,-0.7095,-0.7095,-0.7095,-0.7095,-0.7095,-0.7095,-0.7316,-0.7841,-0.8759,-1.0096,-1.1295,-1.2194,-1.3336,-1.4088,-1.4088,-1.4088,-1.4088,-1.4088,-1.4088,-1.4088,-1.4088,-1.4088,-1.4088,-1.4088,-1.4088,-1.4088,-1.4088,-1.4088,-1.4088,-1.4088,-1.4088,-1.4088,-1.4088,-1.4088,-1.4088,-0.8885,-0.7354,-0.5477,-0.4687,-0.2845,-0.0974,-0.017,0.0,0.0,0.0,0.0,0.0,0.0,0.0,0.0,0.0,0.1355,0.2913,0.4383,0.5586,0.7103,0.941,0.952,0.9354,0.934,0.9072,0.8575,0.7844,0.6347,0.4812,0.3407,0.1779,0.062,0.0,0.0,0.0,0.0,0.0,0.0,0.0,0.0,0.0,0.0,0.0,0.0,0.0,0.0,0.0,0.0,0.0,0.0,0.0,0.0,0.0,0.0,0.0,0.0,-0.0091,-0.0765,-0.2147,-0.3881,-0.5711,-0.6694,-0.7095,-0.7095,-0.7095,-0.7095,-0.7095,-0.7095,-0.7095,-0.7095,-0.7095,-0.7095,-0.7095,-0.7095,-0.7095,-0.7095,-0.7095,-0.7095,-0.7095,-0.7095,-0.7095,-0.7095,-0.7095,-0.7316,-0.7973,-0.9056,-1.0226,-1.1381,-1.2553,-1.347,-1.4039,-1.4088,-1.4088,-1.4088,-1.4088,-1.4088,-1.4088,-1.4088,-1.4088,-1.4088,-1.4088,-1.4088,-1.4088,-1.4088,-1.4088,-1.4088,-1.4088,-1.4088,-1.4088,-1.4088,-1.4088,-0.8908,-0.6973,-0.4816,-0.4565,-0.2403,-0.0287,-0.0057,0.0,0.0,0.0,0.0,0.0,0.0,0.0,0.0,0.0,0.1058,0.295,0.5972,0.5333,0.5671,0.8819,0.9098,0.906,0.9164,0.9001,0.8294,0.6918,0.6606,0.5329,0.2796,0.2218,0.1484,0.0353,0.0101,0.0,0.0,0.0,0.0,0.0,0.0,0.0,0.0,0.0,0.0,0.0,0.0,0.0,0.0,0.0,0.0,0.0,0.0,0.0,0.0,0.0,0.0,-0.0045,-0.0225,-0.1746,-0.3792,-0.5001,-0.616,-0.7095,-0.7095,-0.7095,-0.7095,-0.7095,-0.7095,-0.7095,-0.7095,-0.7095,-0.7095,-0.7095,-0.7095,-0.7095,-0.7095,-0.7095,-0.7095,-0.7095,-0.7095,-0.7095,-0.7095,-0.7095,-0.7095,-0.7095,-0.8145,-0.9235,-1.0221,-1.1509,-1.2674,-1.3737,-1.3997,-1.4088,-1.4088,-1.4088,-1.4088,-1.4088,-1.4088,-1.4088,-1.4088,-1.4088,-1.4088,-1.4088,-1.4088,-1.4088,-1.4088,-1.4088,-1.4088,-1.4088,-1.4088,-1.4088,-0.9086,-0.7898,-0.6205,-0.4856,-0.3288,-0.1772,-0.0339,0.0,0.0,0.0,0.0,0.0,0.0,0.0,0.0,0.0,0.0171,0.0983,0.2923,0.2991,0.4021,0.7119,0.7364,0.7798,0.9097,0.8906,0.8625,0.8383,0.7092,0.6122,0.5674,0.3308,0.1918,0.1711,0.0605,0.0,0.0,0.0,0.0,0.0,0.0,0.0,0.0,0.0,0.0,0.0,0.0,0.0,0.0,0.0,0.0,0.0,0.0,0.0,0.0,0.0,0.0,-0.0135,-0.1165,-0.2413,-0.3792,-0.5001,-0.616,-0.7095,-0.7095,-0.7095,-0.7095,-0.7095,-0.7095,-0.7095,-0.7095,-0.7095,-0.7095,-0.7095,-0.7095,-0.7095,-0.7095,-0.7095,-0.7095,-0.7095,-0.7095,-0.7095,-0.7095,-0.7095,-0.7095,-0.7095,-0.8145,-0.8978,-0.9148,-1.0994,-1.237,-1.2547,-1.347,-1.4088,-1.4088,-1.4088,-1.4088,-1.4088,-1.4088,-1.4088,-1.4088,-1.4088,-1.4088,-1.4088,-1.4088,-1.4088,-1.4088,-1.4088,-1.4088,-1.4088,-1.4088,-1.4088,-0.9018,-0.8628,-0.7778,-0.6188,-0.4787,-0.3396,-0.1731,-0.137,-0.1075,-0.0168,0.0,0.0,0.0,0.0,0.0,0.0,0.0,0.0577,0.2282,0.2488,0.334,0.5546,0.6462,0.7097,0.7697,0.8349,0.8645,0.8486,0.7817,0.704,0.6207,0.4187,0.2752,0.2032,0.0695,0.0,0.0,0.0,0.0,0.0,0.0,0.0,0.0,0.0,0.0,0.0,0.0,0.0,0.0,0.0,0.0,0.0,0.0,0.0,0.0,0.0,0.0,-0.009,-0.0628,-0.1612,-0.2815,-0.4018,-0.522,-0.6293,-0.6918,-0.7095,-0.7095,-0.7095,-0.7095,-0.7095,-0.7095,-0.7095,-0.7095,-0.7095,-0.7095,-0.7095,-0.7095,-0.7095,-0.7095,-0.7095,-0.7095,-0.7095,-0.7095,-0.7095,-0.7095,-0.7095,-0.7577,-0.8145,-0.8803,-1.0351,-1.1638,-1.2242,-1.3379,-1.4088,-1.4088,-1.4088,-1.4088,-1.4088,-1.4088,-1.4088,-1.4088,-1.4088,-1.4088,-1.4088,-1.4088,-1.4088,-1.4088,-1.4088,-1.4088,-1.4088,-1.4088,-1.4088,-0.8981,-0.9069,-0.8864,-0.7317,-0.6103,-0.4836,-0.2939,-0.2429,-0.1934,-0.0339,0.0,0.0,0.0,0.0,0.0,0.0,0.0,0.046,0.173,0.1891,0.2453,0.3946,0.5113,0.5989,0.6438,0.7508,0.819,0.8289,0.8238,0.7689,0.6495,0.5137,0.3808,0.2478,0.1119,0.029,0.0,0.0,0.0,0.0,0.0,0.0,0.0,0.0,0.0,0.0,0.0,0.0,0.0,0.0,0.0,0.0,0.0,0.0,0.0,0.0,0.0,0.0,0.0,-0.0807,-0.1969,-0.2858,-0.4196,-0.5581,-0.6428,-0.6871,-0.7095,-0.7095,-0.7095,-0.7095,-0.7095,-0.7095,-0.7095,-0.7095,-0.7095,-0.7095,-0.7095,-0.7095,-0.7095,-0.7095,-0.7095,-0.7095,-0.7095,-0.7095,-0.7095,-0.7095,-0.7095,-0.7533,-0.8759,-0.9879,-1.1037,-1.22,-1.3379,-1.4088,-1.4088,-1.4088,-1.4088,-1.4088,-1.4088,-1.4088,-1.4088,-1.4088,-1.4088,-1.4088,-1.4088,-1.4088,-1.4088,-1.4088,-1.4088,-1.4088,-1.4088,-1.4088,-0.91,-0.9204,-0.8864,-0.7434,-0.6799,-0.5827,-0.3149,-0.2237,-0.1633,-0.0286,0.0,0.0,0.0,0.0,0.0,0.0,0.0,0.0058,0.0176,0.0172,0.0734,0.2231,0.2454,0.3606,0.6261,0.6498,0.6987,0.8217,0.8136,0.7941,0.7689,0.6406,0.5043,0.3711,0.2382,0.1144,0.0,0.0,0.0,0.0,0.0,0.0,0.0,0.0,0.0,0.0,0.0,0.0,0.0,0.0,0.0,0.0,0.0,0.0,0.0,0.0,0.0,0.0,0.0,-0.0807,-0.1835,-0.1879,-0.3486,-0.5403,-0.5492,-0.6248,-0.7095,-0.7095,-0.7095,-0.7095,-0.7095,-0.7095,-0.7095,-0.7095,-0.7095,-0.7095,-0.7095,-0.7095,-0.7095,-0.7095,-0.7095,-0.7095,-0.7095,-0.7095,-0.7095,-0.7095,-0.7095,-0.7533,-0.8759,-0.9879,-1.1037,-1.22,-1.3379,-1.4088,-1.4088,-1.4088,-1.4088,-1.4088,-1.4088,-1.4088,-1.4088,-1.4088,-1.4088,-1.4088,-1.4088,-1.4088,-1.4088,-1.4088,-1.4088,-1.4088,-1.4088,-1.4088,-0.8862,-0.8879,-0.8789,-0.832,-0.7401,-0.5877,-0.3099,-0.2426,-0.185,-0.0291,0.0,0.0,0.0,0.0,0.0,0.0,0.0,0.0,0.0,0.0,0.0221,0.078,0.1635,0.2938,0.4746,0.5773,0.6779,0.8032,0.8022,0.7924,0.7821,0.654,0.5535,0.4944,0.3635,0.2318,0.1147,0.11,0.0734,0.0,0.0,0.0,0.0,0.0,0.0,0.0,0.0,0.0,0.0,0.0,0.0,0.0,0.0,0.0,0.0,0.0,0.0,0.0,0.0,-0.0314,-0.0807,-0.1567,-0.2904,-0.4419,-0.5179,-0.6204,-0.7095,-0.7095,-0.7095,-0.7095,-0.7095,-0.7095,-0.7095,-0.7095,-0.7095,-0.7095,-0.7095,-0.7095,-0.7095,-0.7095,-0.7095,-0.7095,-0.7095,-0.7095,-0.7095,-0.7095,-0.7095,-0.7533,-0.8759,-0.9879,-1.1037,-1.22,-1.3379,-1.4088,-1.4088,-1.4088,-1.4088,-1.4088,-1.4088,-1.4088,-1.4088,-1.4088,-1.4088,-1.4088,-1.4088,-1.4088,-1.4088,-1.4088,-1.4088,-1.4088,-1.4088,-1.4088,-0.8723,-0.871,-0.8625,-0.8288,-0.7357,-0.593,-0.3693,-0.2775,-0.1869,-0.0353,0.0,0.0,0.0,0.0,0.0,0.0,0.0,0.0,0.0,0.0,0.0,0.0,0.0908,0.1993,0.3258,0.4647,0.6004,0.7226,0.7677,0.7834,0.7682,0.6807,0.6045,0.5572,0.4652,0.3579,0.237,0.1969,0.1389,0.0584,0.0182,0.0,0.0,0.0,0.0,0.0,0.0,0.0,0.0,0.0,0.0,0.0,0.0,0.0,0.0,0.0,0.0,0.0,0.0,0.0,-0.0135,-0.0941,-0.2324,-0.3748,-0.4599,-0.5891,-0.7095,-0.7095,-0.7095,-0.7095,-0.7095,-0.7095,-0.7095,-0.7095,-0.7095,-0.7095,-0.7095,-0.7095,-0.7095,-0.7095,-0.7095,-0.7095,-0.7095,-0.7095,-0.7095,-0.7095,-0.7095,-0.7533,-0.8759,-0.9579,-1.0654,-1.2157,-1.3033,-1.3688,-1.4088,-1.4088,-1.4088,-1.4088,-1.4088,-1.4088,-1.4088,-1.4088,-1.4088,-1.4088,-1.4088,-1.4088,-1.4088,-1.4088,-1.4088,-1.4088,-1.4088,-1.4088,-0.8747,-0.8706,-0.838,-0.7075,-0.6586,-0.6205,-0.4996,-0.3323,-0.1616,-0.0293,0.0,0.0,0.0,0.0,0.0,0.0,0.0,0.0,0.0,0.0,0.0,0.0,0.0,0.0519,0.1862,0.3099,0.4347,0.571,0.6911,0.7533,0.7426,0.7415,0.6798,0.5453,0.5403,0.4821,0.3614,0.2413,0.1835,0.179,0.0583,0.0,0.0,0.0,0.0,0.0,0.0,0.0,0.0,0.0,0.0,0.0,0.0,0.0,0.0,0.0,0.0,0.0,0.0,0.0,0.0,0.0,-0.1612,-0.357,-0.3614,-0.5218,-0.7095,-0.7095,-0.7095,-0.7095,-0.7095,-0.7095,-0.7095,-0.7095,-0.7095,-0.7095,-0.7095,-0.7095,-0.7095,-0.7095,-0.7095,-0.7095,-0.7095,-0.7095,-0.7095,-0.7095,-0.7095,-0.7533,-0.8759,-0.889,-0.9792,-1.2029,-1.2279,-1.2766,-1.3997,-1.4088,-1.4088,-1.4088,-1.4088,-1.4088,-1.4088,-1.4088,-1.4088,-1.4088,-1.4088,-1.4088,-1.4088,-1.4088,-1.4088,-1.4088,-1.4088,-1.4088,-0.8442,-0.8401,-0.832,-0.8045,-0.7294,-0.6576,-0.6315,-0.41,-0.1753,-0.0294,0.0,0.0,0.0,0.0,0.0,0.0,0.0,0.0,0.0,0.0,0.0,0.0,0.0,0.0506,0.1893,0.2314,0.3448,0.5648,0.6139,0.6631,0.738,0.7415,0.7163,0.6612,0.6605,0.6024,0.4865,0.451,0.3885,0.3037,0.1835,0.0807,0.0,0.0,0.0,0.0,0.0,0.0,0.0,0.0,0.0,0.0,0.0,0.0,0.0,0.0,0.0,0.0,0.0,0.0,0.0,0.0,-0.1076,-0.2503,-0.3347,-0.4685,-0.6071,-0.6874,-0.7095,-0.7095,-0.7095,-0.7095,-0.7095,-0.7095,-0.7095,-0.7095,-0.7095,-0.7095,-0.7095,-0.7095,-0.7095,-0.7095,-0.7095,-0.7095,-0.7095,-0.7095,-0.7095,-0.7533,-0.8759,-0.9623,-1.0351,-1.1037,-1.1809,-1.2456,-1.2808,-1.3603,-1.4088,-1.4088,-1.4088,-1.4088,-1.4088,-1.4088,-1.4088,-1.4088,-1.4088,-1.4088,-1.4088,-1.4088,-1.4088,-1.4088,-1.4088,-1.4088,-0.8469,-0.8445,-0.8479,-0.8628,-0.8097,-0.7395,-0.6938,-0.446,-0.2052,-0.105,-0.0405,0.0,0.0,0.0,0.0,0.0,0.0,0.0,0.0,0.0,0.0,0.0,0.0,0.0297,0.1116,0.1634,0.2568,0.4083,0.5118,0.5944,0.6557,0.7053,0.7238,0.7098,0.7095,0.6782,0.6071,0.5625,0.5045,0.4283,0.3083,0.1879,0.0718,0.0225,0.0,0.0,0.0,0.0,0.0,0.0,0.0,0.0,0.0,0.0,0.0,0.0,0.0,0.0,0.0,0.0,0.0,0.0,-0.0807,-0.2013,-0.3215,-0.4463,-0.5625,-0.6782,-0.7095,-0.7095,-0.7095,-0.7095,-0.7095,-0.7095,-0.7095,-0.7095,-0.7095,-0.7095,-0.7095,-0.7095,-0.7095,-0.7095,-0.7095,-0.7095,-0.7095,-0.7095,-0.7095,-0.736,-0.8105,-0.8794,-0.9401,-0.9879,-1.0524,-1.1123,-1.1595,-1.2729,-1.3379,-1.3379,-1.3822,-1.4088,-1.4088,-1.4088,-1.4088,-1.4088,-1.4088,-1.4088,-1.4088,-1.4088,-1.4088,-1.4088,-1.4088,-1.4088,-0.8672,-0.8689,-0.8743,-0.8828,-0.8835,-0.8433,-0.7209,-0.4859,-0.2741,-0.2299,-0.1032,0.0,0.0,0.0,0.0,0.0,0.0,0.0,0.0,0.0,0.0,0.0,0.0,0.0,0.0,0.0981,0.1661,0.1796,0.3929,0.527,0.5403,0.6473,0.7095,0.7095,0.7095,0.7095,0.7095,0.6071,0.5536,0.5536,0.433,0.3126,0.1924,0.0718,0.009,0.0,0.0,0.0,0.0,0.0,0.0,0.0,0.0,0.0,0.0,0.0,0.0,0.0,0.0,0.0,0.0,0.0,-0.0807,-0.2013,-0.3215,-0.4463,-0.5625,-0.6782,-0.7095,-0.7095,-0.7095,-0.7095,-0.7095,-0.7095,-0.7095,-0.7095,-0.7095,-0.7095,-0.7095,-0.7095,-0.7095,-0.7095,-0.7095,-0.7095,-0.7095,-0.7095,-0.7095,-0.7095,-0.7095,-0.7095,-0.7536,-0.8627,-0.8846,-0.9323,-1.0351,-1.1509,-1.2157,-1.2157,-1.3252,-1.3955,-1.3955,-1.4039,-1.4088,-1.4088,-1.4088,-1.4088,-1.4088,-1.4088,-1.4088,-1.4088,-1.4088,-1.4088,-0.8394,-0.8533,-0.872,-0.875,-0.891,-0.9016,-0.8734,-0.728,-0.5226,-0.2694,-0.1022,0.0,0.0,0.0,0.0,0.0,0.0,0.0,0.0,0.0,0.0,0.0,0.0,0.0,0.0,0.0232,0.078,0.1714,0.3179,0.4419,0.5359,0.6473,0.7095,0.7095,0.7095,0.7095,0.7095,0.6874,0.6738,0.6738,0.5578,0.4374,0.317,0.1969,0.0897,0.0,0.0,0.0,0.0,0.0,0.0,0.0,0.0,0.0,0.0,0.0,0.0,0.0,0.0,0.0,0.0,0.0,-0.0807,-0.2013,-0.3215,-0.4463,-0.5625,-0.6782,-0.7095,-0.7095,-0.7095,-0.7095,-0.7095,-0.7095,-0.7095,-0.7095,-0.7095,-0.7095,-0.7095,-0.7095,-0.7095,-0.7095,-0.7095,-0.7095,-0.7095,-0.7095,-0.7095,-0.7095,-0.7095,-0.7095,-0.7183,-0.7445,-0.8324,-0.9021,-0.9235,-1.0313,-1.095,-1.095,-1.2029,-1.2674,-1.2674,-1.3603,-1.4088,-1.4088,-1.4088,-1.4088,-1.4088,-1.4088,-1.4088,-1.4088,-1.4088,-1.4088,-0.8374,-0.8537,-0.8726,-0.8801,-0.8937,-0.9052,-0.9052,-0.7865,-0.6255,-0.4582,-0.2557,-0.1269,-0.1914,-0.1455,-0.0954,-0.0936,-0.0978,-0.0712,-0.01,0.0,0.0,0.0,0.0,0.0,0.0,0.0,0.0499,0.1702,0.2903,0.4105,0.5359,0.6473,0.7095,0.7095,0.7095,0.7095,0.7095,0.7095,0.7095,0.7095,0.6517,0.5309,0.3525,0.1746,0.0583,0.0,0.0,0.0,0.0,0.0,0.0,0.0,0.0,0.0,0.0,0.0,0.0,0.0,0.0,0.0,0.0,0.0,-0.0807,-0.2013,-0.3215,-0.4463,-0.5625,-0.6782,-0.7095,-0.7095,-0.7095,-0.7095,-0.7095,-0.7095,-0.7095,-0.7095,-0.7095,-0.7095,-0.7095,-0.7095,-0.7095,-0.7095,-0.7095,-0.7095,-0.7095,-0.7095,-0.7095,-0.7095,-0.7095,-0.7095,-0.7095,-0.7095,-0.7665,-0.8057,-0.8057,-0.91,-0.9792,-0.9792,-1.0864,-1.1509,-1.1509,-1.2595,-1.3512,-1.4088,-1.4088,-1.4088,-1.4088,-1.4088,-1.4088,-1.4088,-1.4088,-1.4088,-0.8282,-0.8516,-0.872,-0.8927,-0.8902,-0.8885,-0.8885,-0.7825,-0.6856,-0.6856,-0.4563,-0.2874,-0.3942,-0.3163,-0.2322,-0.2308,-0.2327,-0.1842,-0.0489,-0.0292,-0.024,-0.0046,0.0,0.0,0.0,0.0,0.0404,0.1433,0.2814,0.4016,0.5045,0.6381,0.7095,0.7095,0.7095,0.7095,0.7095,0.7095,0.7095,0.7095,0.6915,0.5664,0.3525,0.1299,0.018,0.0,0.0,0.0,0.0,0.0,0.0,0.0,0.0,0.0,0.0,0.0,0.0,0.0,0.0,0.0,0.0,0.0,-0.0941,-0.228,-0.3303,-0.4596,-0.5894,-0.6827,-0.7095,-0.7095,-0.7095,-0.7095,-0.7095,-0.7095,-0.7095,-0.7095,-0.7095,-0.7095,-0.7095,-0.7095,-0.7095,-0.7095,-0.7095,-0.7095,-0.7095,-0.7095,-0.7095,-0.7095,-0.7095,-0.7095,-0.7095,-0.7095,-0.7095,-0.7095,-0.7095,-0.8017,-0.8584,-0.8584,-0.9666,-1.0313,-1.0313,-1.1381,-1.2462,-1.3476,-1.3913,-1.4088,-1.4088,-1.4088,-1.4088,-1.4088,-1.4088,-1.4088,-0.7599,-0.8201,-0.8611,-0.9077,-0.9032,-0.8885,-0.8885,-0.8654,-0.8383,-0.8383,-0.5913,-0.3814,-0.4015,-0.3883,-0.3679,-0.3566,-0.3538,-0.3073,-0.1725,-0.1553,-0.1162,-0.0139,0.0,0.0,0.0,0.0,0.0045,0.0225,0.2325,0.3659,0.3838,0.5933,0.7095,0.7095,0.7095,0.7095,0.7095,0.7095,0.7095,0.7095,0.6115,0.491,0.357,0.2191,0.0986,0.0,0.0,0.0,0.0,0.0,0.0,0.0,0.0,0.0,0.0,0.0,0.0,0.0,0.0,0.0,0.0,0.0,-0.1522,-0.3392,-0.357,-0.5129,-0.6918,-0.7051,-0.7095,-0.7095,-0.7095,-0.7095,-0.7095,-0.7095,-0.7095,-0.7095,-0.7095,-0.7095,-0.7095,-0.7095,-0.7095,-0.7095,-0.7095,-0.7095,-0.7095,-0.7095,-0.7095,-0.7095,-0.7095,-0.7095,-0.7095,-0.7095,-0.7095,-0.7095,-0.7095,-0.7228,-0.736,-0.736,-0.8452,-0.9148,-0.9148,-1.0221,-1.0913,-1.1042,-1.3039,-1.4088,-1.4088,-1.4088,-1.4088,-1.4088,-1.4088,-1.4088,-0.7547,-0.8147,-0.8452,-0.8815,-0.8855,-0.8811,-0.8811,-0.8693,-0.856,-0.8479,-0.7294,-0.6279,-0.6398,-0.5634,-0.4978,-0.4946,-0.4839,-0.4342,-0.2997,-0.2226,-0.161,-0.1091,-0.0406,0.0,0.0,0.0,0.0269,0.0941,0.2637,0.3881,0.4552,0.6201,0.7095,0.7095,0.7095,0.7095,0.7095,0.7095,0.7095,0.7095,0.6605,0.5755,0.4552,0.3349,0.179,0.0,0.0,0.0,0.0,0.0,0.0,0.0,0.0,0.0,0.0,0.0,0.0,0.0,0.0,0.0,0.0,0.0,-0.1165,-0.2726,-0.3392,-0.4774,-0.6293,-0.6918,-0.7095,-0.7095,-0.7095,-0.7095,-0.7095,-0.7095,-0.7095,-0.7095,-0.7095,-0.7095,-0.7095,-0.7095,-0.7095,-0.7095,-0.7095,-0.7095,-0.7095,-0.7095,-0.7095,-0.7095,-0.7095,-0.7095,-0.7095,-0.7095,-0.7095,-0.7095,-0.7095,-0.7095,-0.7095,-0.7095,-0.7577,-0.7885,-0.7885,-0.9013,-0.9666,-0.9666,-1.1906,-1.3069,-1.3069,-1.3779,-1.4088,-1.4088,-1.4088,-1.4088,-0.7106,-0.7786,-0.8225,-0.8523,-0.8655,-0.8699,-0.8662,-0.8564,-0.8442,-0.835,-0.8147,-0.8012,-0.814,-0.7168,-0.6287,-0.6259,-0.615,-0.5606,-0.4261,-0.3292,-0.2593,-0.2285,-0.121,-0.0449,-0.0449,-0.018,0.0359,0.1254,0.2458,0.366,0.4865,0.6024,0.6786,0.7095,0.7095,0.7095,0.7095,0.7095,0.7095,0.7095,0.7095,0.6517,0.5359,0.415,0.2458,0.0449,0.0135,0.0,0.0,0.0,0.0,0.0,0.0,0.0,0.0,0.0,0.0,0.0,0.0,0.0,0.0,0.0,-0.0807,-0.2013,-0.3215,-0.4463,-0.5625,-0.6782,-0.7095,-0.7095,-0.7095,-0.7095,-0.7095,-0.7095,-0.7095,-0.7095,-0.7095,-0.7095,-0.7095,-0.7095,-0.7095,-0.7095,-0.7095,-0.7095,-0.7095,-0.7095,-0.7095,-0.7095,-0.7095,-0.7095,-0.7095,-0.7095,-0.7095,-0.7095,-0.7095,-0.7095,-0.7095,-0.7095,-0.7095,-0.7095,-0.7095,-0.7973,-0.8584,-0.889,-1.0869,-1.2029,-1.2285,-1.3203,-1.3779,-1.4088,-1.4088,-1.4088,-0.5834,-0.6849,-0.7909,-0.8218,-0.8503,-0.8672,-0.8526,-0.8486,-0.8442,-0.835,-0.8147,-0.7948,-0.7862,-0.7773,-0.7671,-0.7537,-0.7389,-0.6827,-0.5473,-0.5233,-0.4783,-0.366,-0.2458,-0.1701,-0.1701,-0.0673,0.0045,0.009,0.121,0.2413,0.3614,0.4821,0.5983,0.7051,0.7095,0.7095,0.7095,0.7095,0.7095,0.7095,0.7095,0.6517,0.5359,0.415,0.2903,0.1657,0.0494,0.0,0.0,0.0,0.0,0.0,0.0,0.0,0.0,0.0,0.0,0.0,0.0,0.0,0.0,0.0,-0.0807,-0.2013,-0.3215,-0.4463,-0.5625,-0.6782,-0.7095,-0.7095,-0.7095,-0.7095,-0.7095,-0.7095,-0.7095,-0.7095,-0.7095,-0.7095,-0.7095,-0.7095,-0.7095,-0.7095,-0.7095,-0.7095,-0.7095,-0.7095,-0.7095,-0.7095,-0.7095,-0.7095,-0.7095,-0.7095,-0.7095,-0.7095,-0.7095,-0.7095,-0.7095,-0.7095,-0.7095,-0.7095,-0.7095,-0.7139,-0.7753,-0.889,-1.0096,-1.1209,-1.2285,-1.237,-1.2984,-1.4088,-1.4088,-1.4088,-0.5221,-0.6037,-0.6649,-0.7703,-0.813,-0.8214,-0.8211,-0.8275,-0.8303,-0.8153,-0.8001,-0.7875,-0.7821,-0.7736,-0.7628,-0.7478,-0.7322,-0.7022,-0.6567,-0.5849,-0.5225,-0.4821,-0.2994,-0.179,-0.179,-0.0718,0.0,0.0,0.1121,0.2325,0.3525,0.4732,0.5938,0.7051,0.7095,0.7095,0.7095,0.7095,0.7095,0.7095,0.7095,0.6874,0.6428,0.4505,0.3349,0.2858,0.0852,0.0,0.0,0.0,0.0,0.0,0.0,0.0,0.0,0.0,0.0,0.0,0.0,0.0,0.0,0.0,-0.0314,-0.0852,-0.2057,-0.3304,-0.4508,-0.5667,-0.6517,-0.7095,-0.7095,-0.7095,-0.7095,-0.7095,-0.7095,-0.7095,-0.7095,-0.7095,-0.7095,-0.7095,-0.7095,-0.7095,-0.7095,-0.7095,-0.7095,-0.7095,-0.7095,-0.7095,-0.7095,-0.7095,-0.7095,-0.7095,-0.7095,-0.7095,-0.7095,-0.7095,-0.7095,-0.7095,-0.7095,-0.7095,-0.7095,-0.7095,-0.7316,-0.7753,-0.8141,-0.9653,-1.2285,-1.3075,-1.3688,-1.4088,-1.4088,-1.4088,-0.3863,-0.4676,-0.5339,-0.6762,-0.7213,-0.7415,-0.7861,-0.8041,-0.8075,-0.7923,-0.7811,-0.7726,-0.7672,-0.7587,-0.7489,-0.7433,-0.7241,-0.7095,-0.7095,-0.6428,-0.5983,-0.5983,-0.384,-0.2413,-0.2413,-0.0941,0.0,0.0,0.0763,0.1879,0.3525,0.4374,0.5489,0.7051,0.7095,0.7095,0.7095,0.7095,0.7095,0.7095,0.7095,0.7095,0.7051,0.5085,0.3972,0.3481,0.1478,0.0359,0.0,0.0,0.0,0.0,0.0,0.0,0.0,0.0,0.0,0.0,0.0,0.0,0.0,0.0,0.0,-0.0225,-0.1433,-0.2637,-0.3838,-0.5045,-0.6204,-0.7095,-0.7095,-0.7095,-0.7095,-0.7095,-0.7095,-0.7095,-0.7095,-0.7095,-0.7095,-0.7095,-0.7095,-0.7095,-0.7095,-0.7095,-0.7095,-0.7095,-0.7095,-0.7095,-0.7095,-0.7095,-0.7095,-0.7095,-0.7095,-0.7095,-0.7095,-0.7095,-0.7095,-0.7095,-0.7095,-0.7095,-0.7095,-0.7095,-0.7272,-0.7709,-0.7709,-0.9052,-1.1724,-1.2516,-1.3256,-1.3941,-1.3941,-1.3941,0.0,0.0,0.0,-0.5465,-0.591,-0.6289,-0.7508,-0.7801,-0.7767,-0.7628,-0.7597,-0.7546,-0.7446,-0.7412,-0.7409,-0.7409,-0.7238,-0.7095,-0.7095,-0.7095,-0.7095,-0.7095,-0.5041,-0.3659,-0.3614,-0.1433,-0.0045,0.0,0.0,0.1031,0.3436,0.3614,0.4727,0.7007,0.7092,0.7088,0.7088,0.7088,0.7088,0.7088,0.7095,0.7095,0.7051,0.5891,0.4685,0.3522,0.228,0.1076,0.0,0.0,0.0,0.0,0.0,0.0,0.0,0.0,0.0,0.0,0.0,0.0,0.0,0.0,0.0,-0.0225,-0.1389,-0.2637,-0.3838,-0.5001,-0.6204,-0.7095,-0.7095,-0.7095,-0.7095,-0.7095,-0.7095,-0.7095,-0.7095,-0.7095,-0.7095,-0.7095,-0.7095,-0.7095,-0.7095,-0.7095,-0.7095,-0.7095,-0.7095,-0.7095,-0.7095,-0.7095,-0.7095,-0.7095,-0.7095,-0.7095,-0.7095,-0.7095,-0.7095,-0.7095,-0.7095,-0.7095,-0.7095,-0.7095,-0.7665,-0.8803,-0.8846,-0.9405,-1.0567,-1.0562,-1.1606,-1.3531,-1.3531,-1.3531,-0.1567,0.0,0.0,0.0,0.0,0.0,-0.7257,-0.758,-0.7648,-0.7607,-0.7512,-0.7421,-0.7426,-0.7278,-0.7204,-0.7204,-0.7125,-0.7095,-0.7095,-0.7095,-0.7095,-0.7095,-0.58,-0.4552,-0.3703,-0.2191,-0.0942,-0.0045,0.0,0.0673,0.2236,0.3974,0.5578,0.7051,0.6997,0.6943,0.6943,0.6943,0.6943,0.6947,0.7048,0.7095,0.7051,0.4996,0.3896,0.3498,0.138,0.0312,0.0,0.0,0.0,0.0,0.0,0.0,0.0,0.0,0.0,0.0,0.0,0.0,0.0,0.0,0.0,-0.0045,-0.0404,-0.1969,-0.3659,-0.4016,-0.5531,-0.7095,-0.7095,-0.7095,-0.7095,-0.7095,-0.7095,-0.7095,-0.7095,-0.7095,-0.7095,-0.7095,-0.7095,-0.7095,-0.7095,-0.7095,-0.7095,-0.7095,-0.7095,-0.7095,-0.7095,-0.7095,-0.7095,-0.7095,-0.7095,-0.7095,-0.7095,-0.7095,-0.7095,-0.7095,-0.7095,-0.7095,-0.7095,-0.7095,-0.7272,-0.7577,-0.7577,-0.8189,-0.9362,-1.0108,-1.08,-1.1422,-1.1422,-1.1889,-0.0852,-0.1031,-0.1526,-0.3479,0.0,0.0,-0.5743,-0.6328,-0.667,-0.667,-0.6603,-0.6728,-0.7185,-0.72,-0.7095,-0.7095,-0.7095,-0.7095,-0.7095,-0.7095,-0.7095,-0.7095,-0.6115,-0.4912,-0.3703,-0.2503,-0.1299,-0.009,0.0,0.0763,0.2458,0.4295,0.5815,0.6964,0.6866,0.6834,0.6834,0.6834,0.6834,0.6834,0.694,0.6974,0.687,0.5131,0.4051,0.342,0.1562,0.0477,0.0,0.0,0.0,0.0,0.0,0.0,0.0,0.0,0.0,0.0,0.0,0.0,0.0,0.0,0.0,0.0,0.0,-0.17,-0.3614,-0.3614,-0.5307,-0.7095,-0.7095,-0.7095,-0.7095,-0.7095,-0.7095,-0.7095,-0.7095,-0.7095,-0.7095,-0.7095,-0.7095,-0.7095,-0.7095,-0.7095,-0.7095,-0.7095,-0.7095,-0.7095,-0.7095,-0.7095,-0.7095,-0.7095,-0.7095,-0.7071,-0.7014,-0.7007,-0.7007,-0.7007,-0.7007,-0.7034,-0.7095,-0.7095,-0.7095,-0.7095,-0.7095,-0.7416,-0.8048,-0.9206,-1.0013,-1.0431,-1.0431,-1.081,0.0,0.0,-0.0316,-0.165,-0.2673,0.0,-0.3884,-0.4705,-0.5447,-0.5581,-0.5581,-0.5894,-0.6918,-0.7095,-0.7095,-0.7095,-0.7095,-0.7095,-0.7095,-0.7095,-0.7095,-0.7095,-0.6204,-0.5043,-0.3748,-0.2637,-0.1433,-0.009,0.0,0.103,0.3426,0.4411,0.5529,0.6816,0.6756,0.6675,0.6675,0.6692,0.6692,0.6678,0.6848,0.6848,0.6664,0.5766,0.4685,0.3505,0.2302,0.1174,0.0168,0.0042,0.0,0.0,0.0,0.0,0.0,0.0,0.0,0.0,0.0,0.0,0.0,0.0,0.0,0.0,0.0,-0.1612,-0.3436,-0.3705,-0.5398,-0.7095,-0.7095,-0.7095,-0.7095,-0.7095,-0.7095,-0.7095,-0.7095,-0.7095,-0.7095,-0.7095,-0.7095,-0.7095,-0.7095,-0.7095,-0.7095,-0.7095,-0.7095,-0.7095,-0.7095,-0.7095,-0.7095,-0.7095,-0.7095,-0.7045,-0.692,-0.691,-0.691,-0.691,-0.691,-0.6964,-0.7092,-0.7095,-0.7095,-0.7095,-0.7095,-0.7034,-0.691,-0.8119,-0.9091,-0.9821,-0.9845,-0.9944,0.0,0.0,-0.0315,-0.153,-0.1974,0.0,-0.4623,-0.524,-0.5669,-0.6561,-0.6782,-0.6827,-0.7051,-0.7095,-0.7095,-0.7095,-0.7095,-0.7095,-0.7095,-0.7095,-0.7095,-0.7095,-0.6918,-0.5933,-0.3792,-0.3392,-0.2325,-0.018,0.0,0.098,0.3227,0.3601,0.4635,0.6666,0.6597,0.6555,0.6555,0.6637,0.6637,0.6559,0.6797,0.6848,0.666,0.551,0.4872,0.4489,0.2493,0.1495,0.1229,0.0376,0.0,0.0,0.0,0.0,0.0,0.0,0.0,0.0,0.0,0.0,0.0,0.0,0.0,0.0,0.0,-0.0986,-0.2549,-0.451,-0.6024,-0.7095,-0.7095,-0.7095,-0.7095,-0.7095,-0.7095,-0.7095,-0.7095,-0.7095,-0.7095,-0.7095,-0.7095,-0.7095,-0.7095,-0.7095,-0.7095,-0.7095,-0.7095,-0.7095,-0.7095,-0.7095,-0.7095,-0.7095,-0.7095,-0.7085,-0.7058,-0.7055,-0.7055,-0.7055,-0.7055,-0.7068,-0.7095,-0.7095,-0.7095,-0.7095,-0.7095,-0.7082,-0.7055,-0.7346,-0.7498,-0.7564,-0.7646,-0.8222,0.0,0.0,-0.0135,-0.0763,-0.1344,0.0,0.0,-0.3173,-0.3751,-0.433,-0.4952,-0.5531,-0.616,-0.6694,-0.7095,-0.7095,-0.7095,-0.7095,-0.7095,-0.7095,-0.7095,-0.7095,-0.7095,-0.6201,-0.3837,-0.3614,-0.2592,-0.018,0.0,0.0978,0.3165,0.3256,0.4296,0.6508,0.6484,0.6439,0.6511,0.6518,0.6518,0.6515,0.6627,0.6624,0.6481,0.5409,0.4882,0.4696,0.2539,0.1612,0.1518,0.0445,0.0,0.0,0.0,0.0,0.0,0.0,0.0,0.0,0.0,0.0,0.0,0.0,0.0,0.0,0.0,-0.0852,-0.2281,-0.4734,-0.5802,-0.6381,-0.6962,-0.7095,-0.7095,-0.7095,-0.7095,-0.7095,-0.7095,-0.7095,-0.7075,-0.7004,-0.6991,-0.7014,-0.7085,-0.7095,-0.7095,-0.7095,-0.7095,-0.7095,-0.7095,-0.7095,-0.7095,-0.7095,-0.7095,-0.7068,-0.6997,-0.6991,-0.6991,-0.6991,-0.6991,-0.7021,-0.7092,-0.7095,-0.7095,-0.7095,-0.7095,-0.7095,-0.7095,-0.7095,-0.7058,-0.6994,-0.7061,-0.7404,0.0,0.0,0.0,0.0,-0.0718,-0.1254,0.0,0.0,0.0,-0.2102,-0.2903,-0.3972,-0.5179,-0.616,-0.683,-0.7051,-0.7095,-0.7088,-0.7058,-0.7055,-0.7065,-0.7092,-0.7095,-0.6201,-0.3837,-0.3158,-0.2093,-0.0135,0.0,0.0972,0.3145,0.3171,0.4134,0.6397,0.6385,0.6381,0.647,0.6412,0.6416,0.647,0.6501,0.6436,0.6264,0.5504,0.5094,0.4882,0.2817,0.188,0.1802,0.051,0.0,0.0,0.0,0.0,0.0,0.0,0.0,0.0,0.0,0.0,0.0,0.0,0.0,0.0,0.0,-0.0852,-0.2236,-0.4421,-0.5223,-0.5669,-0.6782,-0.7095,-0.7095,-0.7095,-0.7095,-0.7088,-0.7061,-0.7078,-0.7055,-0.6913,-0.691,-0.6943,-0.7001,-0.7038,-0.7055,-0.7055,-0.7078,-0.7095,-0.7095,-0.7095,-0.7095,-0.7095,-0.7095,-0.7051,-0.6937,-0.6927,-0.6927,-0.6927,-0.6927,-0.6977,-0.7092,-0.7095,-0.7095,-0.7095,-0.7095,-0.7095,-0.7095,-0.7095,-0.7095,-0.7095,-0.7095,-0.7095,0.0,0.0,0.0,0.0,-0.009,-0.0449,-0.1389,0.0,-0.2102,-0.317,0.0,-0.3972,-0.5179,0.0,0.0,-0.6918,-0.7095,-0.7051,-0.6927,-0.691,-0.6957,-0.7082,-0.7095,-0.6201,-0.3837,-0.1672,-0.0308,0.0,0.0,0.0907,0.303,0.3103,0.4104,0.6252,0.6429,0.6436,0.6323,0.6529,0.6529,0.6323,0.6453,0.6436,0.63,0.62,0.6119,0.5983,0.3865,0.2929,0.2773,0.0823,0.0,0.0,0.0,0.0,0.0,0.0,0.0,0.0,0.0,0.0,0.0,0.0,0.0,0.0,0.0,-0.0852,-0.2102,-0.3438,-0.4554,-0.5669,-0.6782,-0.7095,-0.7095,-0.7095,-0.7095,-0.7061,-0.6937,-0.7007,-0.7055,-0.6913,-0.6987,-0.6994,-0.6793,-0.6861,-0.691,-0.691,-0.7014,-0.7095,-0.7095,-0.7095,-0.7095,-0.7095,-0.7095,-0.7088,-0.7071,-0.7071,-0.7071,-0.7071,-0.7071,-0.7078,-0.7095,-0.7095,-0.7095,-0.7095,-0.7095,-0.7095,-0.7095,-0.7095,-0.7095,-0.7095,-0.7095,-0.7095,0.0,0.0,0.0,0.0,0.0,-0.0135,-0.0628,-0.0763,-0.0897,-0.1388,0.0,0.0,0.0,0.0,0.0,0.0,-0.6008,-0.6161,-0.6807,-0.6851,-0.6851,-0.6957,-0.6974,-0.6095,-0.3814,-0.1396,0.0,0.0,0.0,0.0649,0.2137,0.2783,0.3796,0.5311,0.6041,0.6402,0.6422,0.6463,0.6463,0.6422,0.6402,0.6358,0.63,0.63,0.63,0.618,0.4021,0.3085,0.2929,0.0862,0.0,0.0,0.0,0.0,0.0,0.0,0.0,0.0,0.0,0.0,0.0,0.0,0.0,0.0,0.0,-0.0359,-0.1165,-0.3081,-0.3972,-0.4774,-0.6602,-0.7095,-0.7075,-0.6994,-0.6974,-0.6933,-0.6827,-0.6869,-0.693,-0.6824,-0.6873,-0.6906,-0.6736,-0.6895,-0.7007,-0.7007,-0.7058,-0.7095,-0.7095,-0.7095,-0.7095,-0.7095,-0.7095,-0.7095,-0.7095,-0.7095,-0.7095,-0.7095,-0.7095,-0.7095,-0.7095,-0.7095,-0.7095,-0.7095,-0.7095,-0.7095,-0.7095,-0.7095,-0.7095,-0.7095,-0.7095,-0.7095,0.0,0.0,0.0,0.0,0.0,0.0,0.0,0.0,0.0,0.0,-0.0718,0.0,0.0,0.0,-0.3482,-0.4732,0.0,-0.4973,-0.5843,-0.5829,-0.6037,-0.682,-0.6365,-0.5239,-0.3291,-0.1202,0.0,0.0,0.0,0.0605,0.1993,0.2713,0.378,0.5189,0.5954,0.6409,0.6511,0.6409,0.6388,0.6453,0.6351,0.63,0.63,0.63,0.63,0.618,0.4021,0.3085,0.2929,0.0862,0.0,0.0,0.0,0.0,0.0,0.0,0.0,0.0,0.0,0.0,0.0,0.0,0.0,0.0,0.0,0.0,-0.0445,-0.2507,-0.3115,-0.3645,-0.6008,-0.6637,-0.6658,-0.6867,-0.6886,-0.6846,-0.6732,-0.682,-0.6852,-0.6783,-0.6842,-0.691,-0.6841,-0.6923,-0.7038,-0.7038,-0.7071,-0.7095,-0.7095,-0.7095,-0.7095,-0.7095,-0.7095,-0.7095,-0.7095,-0.7095,-0.7095,-0.7095,-0.7095,-0.7095,-0.7095,-0.7095,-0.7095,-0.7095,-0.7095,-0.7095,-0.7095,-0.7058,-0.7038,-0.7041,-0.7078,-0.7075,0.0,0.0,0.0,0.0,0.0,0.0,0.0,0.0,0.0,0.0,-0.0045,-0.0404,-0.1567,-0.1835,-0.2236,-0.3481,-0.3643,0.0,0.0,-0.3459,-0.4285,-0.6632,-0.5021,-0.3205,-0.1994,-0.0752,0.0,0.0,0.0,0.0934,0.3114,0.3137,0.4185,0.6567,0.6546,0.6508,0.6511,0.6508,0.6436,0.6306,0.6303,0.63,0.63,0.63,0.63,0.618,0.4021,0.3085,0.2929,0.0862,0.0,0.0,0.0,0.0,0.0,0.0,0.0,0.0,0.0,0.0,0.0,0.0,0.0,0.0,0.0,0.0,-0.026,-0.1522,-0.1848,-0.2404,-0.4822,-0.5456,-0.5714,-0.6668,-0.6886,-0.6846,-0.6732,-0.682,-0.6883,-0.6879,-0.6994,-0.7088,-0.7082,-0.6977,-0.6893,-0.6893,-0.7007,-0.7095,-0.7095,-0.7095,-0.7095,-0.7095,-0.7095,-0.7095,-0.7095,-0.7095,-0.7095,-0.7095,-0.7095,-0.7095,-0.7095,-0.7095,-0.7095,-0.7095,-0.7095,-0.7095,-0.7095,-0.696,-0.6893,-0.6896,-0.7034,-0.7021,0.0,0.0,0.0,0.0,0.0,0.0,0.0,0.0,0.0,0.0,0.0,-0.0135,-0.0539,-0.0628,-0.0986,-0.2191,-0.2328,-0.2555,0.0,-0.3335,-0.3331,-0.3381,-0.2796,-0.2233,-0.1826,-0.0697,0.0,0.0,0.0,0.0342,0.1063,0.2395,0.354,0.4491,0.5817,0.6511,0.6511,0.6511,0.6443,0.63,0.63,0.63,0.63,0.63,0.63,0.618,0.4021,0.3085,0.2929,0.0862,0.0,0.0,0.0,0.0,0.0,0.0,0.0,0.0,0.0,0.0,0.0,0.0,0.0,0.0,0.0,0.0,-0.0255,-0.1472,-0.1802,-0.2308,-0.4601,-0.5202,-0.5438,-0.6397,-0.6705,-0.6736,-0.6583,-0.6749,-0.6886,-0.6886,-0.7001,-0.7095,-0.7095,-0.7055,-0.7024,-0.7024,-0.7065,-0.7095,-0.7095,-0.7095,-0.7095,-0.7095,-0.7095,-0.7095,-0.7095,-0.7095,-0.7095,-0.7095,-0.7095,-0.7095,-0.7095,-0.7095,-0.7095,-0.7095,-0.7004,-0.6957,-0.6957,-0.6851,-0.6776,-0.678,-0.6827,-0.6824,0.0539,0.0314,0.0,0.0,0.0,0.0,0.0,0.0,0.0,0.0,0.0,0.0,0.0,0.0,-0.0269,-0.1031,-0.11,-0.1295,0.0,-0.2162,-0.1857,-0.1122,-0.1492,-0.1616,-0.1205,-0.0448,0.0,0.0,0.0,0.0172,0.0627,0.225,0.3468,0.4112,0.5658,0.6538,0.6552,0.6491,0.6388,0.63,0.63,0.63,0.63,0.63,0.63,0.618,0.4021,0.3085,0.2929,0.0862,0.0,0.0,0.0,0.0,0.0,0.0,0.0,0.0,0.0,0.0,0.0,0.0,0.0,0.0,0.0,0.0,-0.0166,-0.0945,-0.1147,-0.16,-0.3465,-0.3926,-0.428,-0.5603,-0.6053,-0.621,-0.6491,-0.6753,-0.69,-0.695,-0.7034,-0.7095,-0.7095,-0.7095,-0.7095,-0.7095,-0.7095,-0.7078,-0.7028,-0.7021,-0.7021,-0.7021,-0.6974,-0.694,-0.694,-0.6991,-0.7021,-0.7021,-0.7021,-0.7021,-0.7021,-0.697,-0.694,-0.694,-0.6895,-0.6848,-0.6848,-0.6695,-0.662,-0.6617,-0.6566,-0.6542]}]]